<?xml version="1.0" encoding="UTF-8" standalone="no" ?>
<gpx xmlns="http://www.topografix.com/GPX/1/1" xmlns:xsi="http://www.w3.org/2001/XMLSchema-instance" xsi:schemaLocation="http://www.topografix.com/GPX/1/1 http://www.topografix.com/GPX/1/1/gpx.xsd" version="1.1" creator="VisuGPX - https://www.visugpx.com">
  <metadata>
    <name>Des Mouettes aux Cigales 2021</name>
  </metadata>
  <trk>
    <name><![CDATA[Étape 8 : Charolles - Mâcon]]></name>
    <extensions>
      <line xmlns="http://www.topografix.com/GPX/gpx_style/0/2">
        <color>880000</color>
        <width>4</width>
      </line>
    </extensions>
    <trkseg>
      <trkpt lat="46.43961" lon="4.28173">
        <ele>290.567234</ele>
        <time>2021-09-12T05:38:43.000Z</time>
      </trkpt>
      <trkpt lat="46.43962" lon="4.28193">
        <ele>290.567234</ele>
        <time>2021-09-12T05:38:48.000Z</time>
      </trkpt>
      <trkpt lat="46.43961" lon="4.28199">
        <ele>290.567234</ele>
        <time>2021-09-12T05:38:49.000Z</time>
      </trkpt>
      <trkpt lat="46.43962" lon="4.28192">
        <ele>290.567234</ele>
        <time>2021-09-12T05:38:51.000Z</time>
      </trkpt>
      <trkpt lat="46.43952" lon="4.2819">
        <ele>290.567234</ele>
        <time>2021-09-12T05:38:52.000Z</time>
      </trkpt>
      <trkpt lat="46.43947" lon="4.28169">
        <ele>290.567234</ele>
        <time>2021-09-12T05:38:56.000Z</time>
      </trkpt>
      <trkpt lat="46.4394" lon="4.28143">
        <ele>290.567234</ele>
        <time>2021-09-12T05:39:01.000Z</time>
      </trkpt>
      <trkpt lat="46.43938" lon="4.28137">
        <ele>290.567234</ele>
        <time>2021-09-12T05:39:02.000Z</time>
      </trkpt>
      <trkpt lat="46.43935" lon="4.28132">
        <ele>290.567234</ele>
        <time>2021-09-12T05:39:03.000Z</time>
      </trkpt>
      <trkpt lat="46.43927" lon="4.28115">
        <ele>290.551424</ele>
        <time>2021-09-12T05:39:06.000Z</time>
      </trkpt>
      <trkpt lat="46.43924" lon="4.28111">
        <ele>290.525115</ele>
        <time>2021-09-12T05:39:07.000Z</time>
      </trkpt>
      <trkpt lat="46.43916" lon="4.28103">
        <ele>290.460237</ele>
        <time>2021-09-12T05:39:09.000Z</time>
      </trkpt>
      <trkpt lat="46.43902" lon="4.2809">
        <ele>290.355213</ele>
        <time>2021-09-12T05:39:12.000Z</time>
      </trkpt>
      <trkpt lat="46.43868" lon="4.28069">
        <ele>290.116976</ele>
        <time>2021-09-12T05:39:18.000Z</time>
      </trkpt>
      <trkpt lat="46.43826" lon="4.28043">
        <ele>289.824521</ele>
        <time>2021-09-12T05:39:25.000Z</time>
      </trkpt>
      <trkpt lat="46.43778" lon="4.28023">
        <ele>289.505749</ele>
        <time>2021-09-12T05:39:33.000Z</time>
      </trkpt>
      <trkpt lat="46.43743" lon="4.28007">
        <ele>289.747567</ele>
        <time>2021-09-12T05:39:40.000Z</time>
      </trkpt>
      <trkpt lat="46.43726" lon="4.27999">
        <ele>290.01837</ele>
        <time>2021-09-12T05:39:45.000Z</time>
      </trkpt>
      <trkpt lat="46.4372" lon="4.27999">
        <ele>290.109324</ele>
        <time>2021-09-12T05:39:48.000Z</time>
      </trkpt>
      <trkpt lat="46.4372" lon="4.27999">
        <ele>290.109324</ele>
        <time>2021-09-12T05:39:49.000Z</time>
      </trkpt>
      <trkpt lat="46.43721" lon="4.28001">
        <ele>290.136239</ele>
        <time>2021-09-12T05:39:50.000Z</time>
      </trkpt>
      <trkpt lat="46.43723" lon="4.28006">
        <ele>290.190069</ele>
        <time>2021-09-12T05:39:52.000Z</time>
      </trkpt>
      <trkpt lat="46.43727" lon="4.28018">
        <ele>290.333475</ele>
        <time>2021-09-12T05:39:58.000Z</time>
      </trkpt>
      <trkpt lat="46.4373" lon="4.28027">
        <ele>290.437938</ele>
        <time>2021-09-12T05:40:04.000Z</time>
      </trkpt>
      <trkpt lat="46.4373" lon="4.28029">
        <ele>290.455261</ele>
        <time>2021-09-12T05:40:05.000Z</time>
      </trkpt>
      <trkpt lat="46.43732" lon="4.28045">
        <ele>290.62673</ele>
        <time>2021-09-12T05:40:12.000Z</time>
      </trkpt>
      <trkpt lat="46.43729" lon="4.28074">
        <ele>290.929185</ele>
        <time>2021-09-12T05:40:19.000Z</time>
      </trkpt>
      <trkpt lat="46.43722" lon="4.28111">
        <ele>291.326821</ele>
        <time>2021-09-12T05:40:27.000Z</time>
      </trkpt>
      <trkpt lat="46.43717" lon="4.28159">
        <ele>291.837527</ele>
        <time>2021-09-12T05:40:37.000Z</time>
      </trkpt>
      <trkpt lat="46.43718" lon="4.28204">
        <ele>292.494459</ele>
        <time>2021-09-12T05:40:46.000Z</time>
      </trkpt>
      <trkpt lat="46.43719" lon="4.28239">
        <ele>293.245216</ele>
        <time>2021-09-12T05:40:53.000Z</time>
      </trkpt>
      <trkpt lat="46.4372" lon="4.28282">
        <ele>294.19236</ele>
        <time>2021-09-12T05:41:02.000Z</time>
      </trkpt>
      <trkpt lat="46.43725" lon="4.2832">
        <ele>295.016339</ele>
        <time>2021-09-12T05:41:10.000Z</time>
      </trkpt>
      <trkpt lat="46.43731" lon="4.28357">
        <ele>295.849189</ele>
        <time>2021-09-12T05:41:18.000Z</time>
      </trkpt>
      <trkpt lat="46.43737" lon="4.28391">
        <ele>296.596096</ele>
        <time>2021-09-12T05:41:25.000Z</time>
      </trkpt>
      <trkpt lat="46.43743" lon="4.28429">
        <ele>297.446631</ele>
        <time>2021-09-12T05:41:33.000Z</time>
      </trkpt>
      <trkpt lat="46.4375" lon="4.28471">
        <ele>298.126109</ele>
        <time>2021-09-12T05:41:41.000Z</time>
      </trkpt>
      <trkpt lat="46.43757" lon="4.28514">
        <ele>298.647566</ele>
        <time>2021-09-12T05:41:48.000Z</time>
      </trkpt>
      <trkpt lat="46.43766" lon="4.28569">
        <ele>299.309834</ele>
        <time>2021-09-12T05:41:56.000Z</time>
      </trkpt>
      <trkpt lat="46.43775" lon="4.28622">
        <ele>299.959072</ele>
        <time>2021-09-12T05:42:04.000Z</time>
      </trkpt>
      <trkpt lat="46.43784" lon="4.28672">
        <ele>300.56072</ele>
        <time>2021-09-12T05:42:11.000Z</time>
      </trkpt>
      <trkpt lat="46.43795" lon="4.2874">
        <ele>301.225423</ele>
        <time>2021-09-12T05:42:20.000Z</time>
      </trkpt>
      <trkpt lat="46.43809" lon="4.2882">
        <ele>301.872585</ele>
        <time>2021-09-12T05:42:30.000Z</time>
      </trkpt>
      <trkpt lat="46.4382" lon="4.28889">
        <ele>302.439214</ele>
        <time>2021-09-12T05:42:39.000Z</time>
      </trkpt>
      <trkpt lat="46.4383" lon="4.28948">
        <ele>302.920148</ele>
        <time>2021-09-12T05:42:47.000Z</time>
      </trkpt>
      <trkpt lat="46.4384" lon="4.29004">
        <ele>303.992799</ele>
        <time>2021-09-12T05:42:55.000Z</time>
      </trkpt>
      <trkpt lat="46.43845" lon="4.29036">
        <ele>304.622916</ele>
        <time>2021-09-12T05:43:00.000Z</time>
      </trkpt>
      <trkpt lat="46.43847" lon="4.29047">
        <ele>304.850156</ele>
        <time>2021-09-12T05:43:02.000Z</time>
      </trkpt>
      <trkpt lat="46.43853" lon="4.29085">
        <ele>305.60995</ele>
        <time>2021-09-12T05:43:09.000Z</time>
      </trkpt>
      <trkpt lat="46.43859" lon="4.29121">
        <ele>306.321903</ele>
        <time>2021-09-12T05:43:16.000Z</time>
      </trkpt>
      <trkpt lat="46.43865" lon="4.29153">
        <ele>306.96586</ele>
        <time>2021-09-12T05:43:23.000Z</time>
      </trkpt>
      <trkpt lat="46.43871" lon="4.29195">
        <ele>307.7911</ele>
        <time>2021-09-12T05:43:32.000Z</time>
      </trkpt>
      <trkpt lat="46.43879" lon="4.29241">
        <ele>308.79922</ele>
        <time>2021-09-12T05:43:42.000Z</time>
      </trkpt>
      <trkpt lat="46.43886" lon="4.29278">
        <ele>309.632254</ele>
        <time>2021-09-12T05:43:50.000Z</time>
      </trkpt>
      <trkpt lat="46.43892" lon="4.29318">
        <ele>310.522917</ele>
        <time>2021-09-12T05:43:58.000Z</time>
      </trkpt>
      <trkpt lat="46.439" lon="4.29363">
        <ele>311.524634</ele>
        <time>2021-09-12T05:44:06.000Z</time>
      </trkpt>
      <trkpt lat="46.43907" lon="4.29408">
        <ele>312.529194</ele>
        <time>2021-09-12T05:44:13.000Z</time>
      </trkpt>
      <trkpt lat="46.43916" lon="4.29459">
        <ele>313.644805</ele>
        <time>2021-09-12T05:44:20.000Z</time>
      </trkpt>
      <trkpt lat="46.43926" lon="4.29522">
        <ele>313.923962</ele>
        <time>2021-09-12T05:44:28.000Z</time>
      </trkpt>
      <trkpt lat="46.43937" lon="4.29583">
        <ele>314.186458</ele>
        <time>2021-09-12T05:44:35.000Z</time>
      </trkpt>
      <trkpt lat="46.4395" lon="4.29663">
        <ele>314.530747</ele>
        <time>2021-09-12T05:44:43.000Z</time>
      </trkpt>
      <trkpt lat="46.43952" lon="4.29673">
        <ele>314.575589</ele>
        <time>2021-09-12T05:44:44.000Z</time>
      </trkpt>
      <trkpt lat="46.43966" lon="4.29755">
        <ele>314.442906</ele>
        <time>2021-09-12T05:44:52.000Z</time>
      </trkpt>
      <trkpt lat="46.43979" lon="4.29832">
        <ele>313.897289</ele>
        <time>2021-09-12T05:44:59.000Z</time>
      </trkpt>
      <trkpt lat="46.43992" lon="4.29912">
        <ele>313.329487</ele>
        <time>2021-09-12T05:45:06.000Z</time>
      </trkpt>
      <trkpt lat="46.43994" lon="4.29922">
        <ele>313.252706</ele>
        <time>2021-09-12T05:45:07.000Z</time>
      </trkpt>
      <trkpt lat="46.44" lon="4.29953">
        <ele>313.033339</ele>
        <time>2021-09-12T05:45:10.000Z</time>
      </trkpt>
      <trkpt lat="46.44004" lon="4.29973">
        <ele>312.912395</ele>
        <time>2021-09-12T05:45:12.000Z</time>
      </trkpt>
      <trkpt lat="46.44011" lon="4.30013">
        <ele>312.750565</ele>
        <time>2021-09-12T05:45:16.000Z</time>
      </trkpt>
      <trkpt lat="46.44012" lon="4.30023">
        <ele>312.71179</ele>
        <time>2021-09-12T05:45:17.000Z</time>
      </trkpt>
      <trkpt lat="46.44012" lon="4.30042">
        <ele>312.637392</ele>
        <time>2021-09-12T05:45:19.000Z</time>
      </trkpt>
      <trkpt lat="46.44008" lon="4.30058">
        <ele>312.566996</ele>
        <time>2021-09-12T05:45:21.000Z</time>
      </trkpt>
      <trkpt lat="46.44006" lon="4.3007">
        <ele>312.520719</ele>
        <time>2021-09-12T05:45:22.000Z</time>
      </trkpt>
      <trkpt lat="46.44012" lon="4.30087">
        <ele>312.445124</ele>
        <time>2021-09-12T05:45:24.000Z</time>
      </trkpt>
      <trkpt lat="46.44022" lon="4.30097">
        <ele>312.374879</ele>
        <time>2021-09-12T05:45:26.000Z</time>
      </trkpt>
      <trkpt lat="46.44024" lon="4.30105">
        <ele>312.341628</ele>
        <time>2021-09-12T05:45:27.000Z</time>
      </trkpt>
      <trkpt lat="46.44026" lon="4.30113">
        <ele>312.308018</ele>
        <time>2021-09-12T05:45:28.000Z</time>
      </trkpt>
      <trkpt lat="46.44032" lon="4.30138">
        <ele>312.205711</ele>
        <time>2021-09-12T05:45:31.000Z</time>
      </trkpt>
      <trkpt lat="46.4404" lon="4.30192">
        <ele>311.986468</ele>
        <time>2021-09-12T05:45:38.000Z</time>
      </trkpt>
      <trkpt lat="46.44046" lon="4.3023">
        <ele>312.216609</ele>
        <time>2021-09-12T05:45:44.000Z</time>
      </trkpt>
      <trkpt lat="46.44053" lon="4.30272">
        <ele>312.824169</ele>
        <time>2021-09-12T05:45:52.000Z</time>
      </trkpt>
      <trkpt lat="46.4406" lon="4.30307">
        <ele>313.345351</ele>
        <time>2021-09-12T05:46:00.000Z</time>
      </trkpt>
      <trkpt lat="46.44065" lon="4.3034">
        <ele>313.822142</ele>
        <time>2021-09-12T05:46:08.000Z</time>
      </trkpt>
      <trkpt lat="46.4407" lon="4.30367">
        <ele>314.220824</ele>
        <time>2021-09-12T05:46:15.000Z</time>
      </trkpt>
      <trkpt lat="46.44076" lon="4.30402">
        <ele>314.736354</ele>
        <time>2021-09-12T05:46:24.000Z</time>
      </trkpt>
      <trkpt lat="46.44081" lon="4.30432">
        <ele>315.177455</ele>
        <time>2021-09-12T05:46:32.000Z</time>
      </trkpt>
      <trkpt lat="46.44085" lon="4.30463">
        <ele>315.619089</ele>
        <time>2021-09-12T05:46:40.000Z</time>
      </trkpt>
      <trkpt lat="46.4409" lon="4.30498">
        <ele>316.261096</ele>
        <time>2021-09-12T05:46:48.000Z</time>
      </trkpt>
      <trkpt lat="46.44095" lon="4.30529">
        <ele>316.835072</ele>
        <time>2021-09-12T05:46:55.000Z</time>
      </trkpt>
      <trkpt lat="46.44101" lon="4.30573">
        <ele>317.633555</ele>
        <time>2021-09-12T05:47:04.000Z</time>
      </trkpt>
      <trkpt lat="46.44107" lon="4.30613">
        <ele>318.37809</ele>
        <time>2021-09-12T05:47:12.000Z</time>
      </trkpt>
      <trkpt lat="46.4411" lon="4.30667">
        <ele>319.343241</ele>
        <time>2021-09-12T05:47:20.000Z</time>
      </trkpt>
      <trkpt lat="46.44114" lon="4.30722">
        <ele>320.318491</ele>
        <time>2021-09-12T05:47:27.000Z</time>
      </trkpt>
      <trkpt lat="46.44127" lon="4.30794">
        <ele>320.751881</ele>
        <time>2021-09-12T05:47:36.000Z</time>
      </trkpt>
      <trkpt lat="46.44143" lon="4.30852">
        <ele>321.110404</ele>
        <time>2021-09-12T05:47:43.000Z</time>
      </trkpt>
      <trkpt lat="46.44164" lon="4.30928">
        <ele>321.58408</ele>
        <time>2021-09-12T05:47:52.000Z</time>
      </trkpt>
      <trkpt lat="46.44165" lon="4.30937">
        <ele>321.638453</ele>
        <time>2021-09-12T05:47:53.000Z</time>
      </trkpt>
      <trkpt lat="46.44179" lon="4.3101">
        <ele>321.824336</ele>
        <time>2021-09-12T05:48:01.000Z</time>
      </trkpt>
      <trkpt lat="46.44191" lon="4.31086">
        <ele>321.832446</ele>
        <time>2021-09-12T05:48:09.000Z</time>
      </trkpt>
      <trkpt lat="46.44193" lon="4.31096">
        <ele>321.833469</ele>
        <time>2021-09-12T05:48:10.000Z</time>
      </trkpt>
      <trkpt lat="46.44206" lon="4.31173">
        <ele>321.841707</ele>
        <time>2021-09-12T05:48:18.000Z</time>
      </trkpt>
      <trkpt lat="46.44207" lon="4.31182">
        <ele>321.842677</ele>
        <time>2021-09-12T05:48:19.000Z</time>
      </trkpt>
      <trkpt lat="46.44216" lon="4.31236">
        <ele>321.796431</ele>
        <time>2021-09-12T05:48:25.000Z</time>
      </trkpt>
      <trkpt lat="46.44217" lon="4.31245">
        <ele>321.765269</ele>
        <time>2021-09-12T05:48:26.000Z</time>
      </trkpt>
      <trkpt lat="46.44208" lon="4.31264">
        <ele>321.685667</ele>
        <time>2021-09-12T05:48:28.000Z</time>
      </trkpt>
      <trkpt lat="46.44211" lon="4.31284">
        <ele>321.614809</ele>
        <time>2021-09-12T05:48:30.000Z</time>
      </trkpt>
      <trkpt lat="46.44228" lon="4.3131">
        <ele>321.493318</ele>
        <time>2021-09-12T05:48:33.000Z</time>
      </trkpt>
      <trkpt lat="46.4423" lon="4.3132">
        <ele>321.460406</ele>
        <time>2021-09-12T05:48:34.000Z</time>
      </trkpt>
      <trkpt lat="46.4424" lon="4.31378">
        <ele>321.256258</ele>
        <time>2021-09-12T05:48:40.000Z</time>
      </trkpt>
      <trkpt lat="46.44253" lon="4.31455">
        <ele>320.990115</ele>
        <time>2021-09-12T05:48:48.000Z</time>
      </trkpt>
      <trkpt lat="46.44256" lon="4.31474">
        <ele>321.012586</ele>
        <time>2021-09-12T05:48:50.000Z</time>
      </trkpt>
      <trkpt lat="46.4427" lon="4.31555">
        <ele>321.291286</ele>
        <time>2021-09-12T05:48:59.000Z</time>
      </trkpt>
      <trkpt lat="46.4428" lon="4.31618">
        <ele>321.508844</ele>
        <time>2021-09-12T05:49:07.000Z</time>
      </trkpt>
      <trkpt lat="46.44288" lon="4.31662">
        <ele>321.660153</ele>
        <time>2021-09-12T05:49:14.000Z</time>
      </trkpt>
      <trkpt lat="46.44295" lon="4.31704">
        <ele>321.802869</ele>
        <time>2021-09-12T05:49:22.000Z</time>
      </trkpt>
      <trkpt lat="46.44302" lon="4.31743">
        <ele>322.309826</ele>
        <time>2021-09-12T05:49:30.000Z</time>
      </trkpt>
      <trkpt lat="46.4431" lon="4.31793">
        <ele>323.125274</ele>
        <time>2021-09-12T05:49:40.000Z</time>
      </trkpt>
      <trkpt lat="46.44317" lon="4.31833">
        <ele>323.781068</ele>
        <time>2021-09-12T05:49:48.000Z</time>
      </trkpt>
      <trkpt lat="46.44323" lon="4.31868">
        <ele>324.37086</ele>
        <time>2021-09-12T05:49:55.000Z</time>
      </trkpt>
      <trkpt lat="46.44331" lon="4.31915">
        <ele>325.138276</ele>
        <time>2021-09-12T05:50:04.000Z</time>
      </trkpt>
      <trkpt lat="46.44338" lon="4.3196">
        <ele>325.872962</ele>
        <time>2021-09-12T05:50:12.000Z</time>
      </trkpt>
      <trkpt lat="46.44347" lon="4.32015">
        <ele>326.693399</ele>
        <time>2021-09-12T05:50:22.000Z</time>
      </trkpt>
      <trkpt lat="46.44353" lon="4.3205">
        <ele>327.20676</ele>
        <time>2021-09-12T05:50:29.000Z</time>
      </trkpt>
      <trkpt lat="46.4436" lon="4.32092">
        <ele>327.825192</ele>
        <time>2021-09-12T05:50:38.000Z</time>
      </trkpt>
      <trkpt lat="46.44366" lon="4.32126">
        <ele>328.315523</ele>
        <time>2021-09-12T05:50:45.000Z</time>
      </trkpt>
      <trkpt lat="46.4437" lon="4.32154">
        <ele>328.729809</ele>
        <time>2021-09-12T05:50:51.000Z</time>
      </trkpt>
      <trkpt lat="46.44376" lon="4.3219">
        <ele>329.241789</ele>
        <time>2021-09-12T05:50:57.000Z</time>
      </trkpt>
      <trkpt lat="46.44383" lon="4.3223">
        <ele>329.668832</ele>
        <time>2021-09-12T05:51:02.000Z</time>
      </trkpt>
      <trkpt lat="46.44393" lon="4.32292">
        <ele>329.248782</ele>
        <time>2021-09-12T05:51:08.000Z</time>
      </trkpt>
      <trkpt lat="46.44408" lon="4.32382">
        <ele>328.642984</ele>
        <time>2021-09-12T05:51:15.000Z</time>
      </trkpt>
      <trkpt lat="46.44423" lon="4.32472">
        <ele>328.036963</ele>
        <time>2021-09-12T05:51:21.000Z</time>
      </trkpt>
      <trkpt lat="46.44426" lon="4.32488">
        <ele>327.824226</ele>
        <time>2021-09-12T05:51:22.000Z</time>
      </trkpt>
      <trkpt lat="46.44441" lon="4.3257">
        <ele>326.547354</ele>
        <time>2021-09-12T05:51:27.000Z</time>
      </trkpt>
      <trkpt lat="46.4445" lon="4.32621">
        <ele>325.763071</ele>
        <time>2021-09-12T05:51:30.000Z</time>
      </trkpt>
      <trkpt lat="46.44464" lon="4.32702">
        <ele>324.511702</ele>
        <time>2021-09-12T05:51:35.000Z</time>
      </trkpt>
      <trkpt lat="46.44466" lon="4.32717">
        <ele>324.27761</ele>
        <time>2021-09-12T05:51:36.000Z</time>
      </trkpt>
      <trkpt lat="46.44478" lon="4.32787">
        <ele>323.757518</ele>
        <time>2021-09-12T05:51:41.000Z</time>
      </trkpt>
      <trkpt lat="46.44484" lon="4.32828">
        <ele>323.514757</ele>
        <time>2021-09-12T05:51:45.000Z</time>
      </trkpt>
      <trkpt lat="46.4449" lon="4.32864">
        <ele>323.297452</ele>
        <time>2021-09-12T05:51:50.000Z</time>
      </trkpt>
      <trkpt lat="46.44496" lon="4.32902">
        <ele>323.07659</ele>
        <time>2021-09-12T05:51:57.000Z</time>
      </trkpt>
      <trkpt lat="46.44502" lon="4.32937">
        <ele>322.867519</ele>
        <time>2021-09-12T05:52:05.000Z</time>
      </trkpt>
      <trkpt lat="46.44508" lon="4.32973">
        <ele>322.651896</ele>
        <time>2021-09-12T05:52:14.000Z</time>
      </trkpt>
      <trkpt lat="46.44513" lon="4.33001">
        <ele>322.512298</ele>
        <time>2021-09-12T05:52:20.000Z</time>
      </trkpt>
      <trkpt lat="46.44519" lon="4.3304">
        <ele>322.32522</ele>
        <time>2021-09-12T05:52:27.000Z</time>
      </trkpt>
      <trkpt lat="46.44529" lon="4.33097">
        <ele>322.060522</ele>
        <time>2021-09-12T05:52:35.000Z</time>
      </trkpt>
      <trkpt lat="46.44539" lon="4.33155">
        <ele>321.784366</ele>
        <time>2021-09-12T05:52:41.000Z</time>
      </trkpt>
      <trkpt lat="46.44549" lon="4.33219">
        <ele>321.483095</ele>
        <time>2021-09-12T05:52:46.000Z</time>
      </trkpt>
      <trkpt lat="46.44565" lon="4.33312">
        <ele>320.077988</ele>
        <time>2021-09-12T05:52:52.000Z</time>
      </trkpt>
      <trkpt lat="46.44579" lon="4.33396">
        <ele>318.599635</ele>
        <time>2021-09-12T05:52:57.000Z</time>
      </trkpt>
      <trkpt lat="46.44582" lon="4.33413">
        <ele>318.30122</ele>
        <time>2021-09-12T05:52:58.000Z</time>
      </trkpt>
      <trkpt lat="46.44596" lon="4.33493">
        <ele>316.889817</ele>
        <time>2021-09-12T05:53:03.000Z</time>
      </trkpt>
      <trkpt lat="46.44601" lon="4.33524">
        <ele>316.469521</ele>
        <time>2021-09-12T05:53:05.000Z</time>
      </trkpt>
      <trkpt lat="46.44616" lon="4.33607">
        <ele>315.330818</ele>
        <time>2021-09-12T05:53:11.000Z</time>
      </trkpt>
      <trkpt lat="46.44628" lon="4.33679">
        <ele>314.340294</ele>
        <time>2021-09-12T05:53:17.000Z</time>
      </trkpt>
      <trkpt lat="46.44641" lon="4.33755">
        <ele>313.407857</ele>
        <time>2021-09-12T05:53:24.000Z</time>
      </trkpt>
      <trkpt lat="46.4465" lon="4.33809">
        <ele>313.177981</ele>
        <time>2021-09-12T05:53:30.000Z</time>
      </trkpt>
      <trkpt lat="46.44655" lon="4.33843">
        <ele>313.035767</ele>
        <time>2021-09-12T05:53:35.000Z</time>
      </trkpt>
      <trkpt lat="46.44661" lon="4.33875">
        <ele>312.901818</ele>
        <time>2021-09-12T05:53:41.000Z</time>
      </trkpt>
      <trkpt lat="46.44668" lon="4.33918">
        <ele>312.719845</ele>
        <time>2021-09-12T05:53:50.000Z</time>
      </trkpt>
      <trkpt lat="46.44674" lon="4.33958">
        <ele>312.54961</ele>
        <time>2021-09-12T05:53:58.000Z</time>
      </trkpt>
      <trkpt lat="46.44683" lon="4.34011">
        <ele>312.431494</ele>
        <time>2021-09-12T05:54:08.000Z</time>
      </trkpt>
      <trkpt lat="46.4469" lon="4.34057">
        <ele>312.587923</ele>
        <time>2021-09-12T05:54:16.000Z</time>
      </trkpt>
      <trkpt lat="46.44698" lon="4.34104">
        <ele>312.748886</ele>
        <time>2021-09-12T05:54:24.000Z</time>
      </trkpt>
      <trkpt lat="46.44708" lon="4.34161">
        <ele>312.941821</ele>
        <time>2021-09-12T05:54:33.000Z</time>
      </trkpt>
      <trkpt lat="46.4471" lon="4.34174">
        <ele>312.986504</ele>
        <time>2021-09-12T05:54:35.000Z</time>
      </trkpt>
      <trkpt lat="46.44715" lon="4.34201">
        <ele>313.080604</ele>
        <time>2021-09-12T05:54:39.000Z</time>
      </trkpt>
      <trkpt lat="46.44723" lon="4.34253">
        <ele>313.24024</ele>
        <time>2021-09-12T05:54:46.000Z</time>
      </trkpt>
      <trkpt lat="46.44732" lon="4.34314">
        <ele>313.003213</ele>
        <time>2021-09-12T05:54:53.000Z</time>
      </trkpt>
      <trkpt lat="46.44745" lon="4.34394">
        <ele>312.68597</ele>
        <time>2021-09-12T05:55:01.000Z</time>
      </trkpt>
      <trkpt lat="46.44747" lon="4.34405">
        <ele>312.64343</ele>
        <time>2021-09-12T05:55:02.000Z</time>
      </trkpt>
      <trkpt lat="46.44758" lon="4.34481">
        <ele>312.342778</ele>
        <time>2021-09-12T05:55:09.000Z</time>
      </trkpt>
      <trkpt lat="46.4476" lon="4.34492">
        <ele>312.302609</ele>
        <time>2021-09-12T05:55:10.000Z</time>
      </trkpt>
      <trkpt lat="46.44768" lon="4.34547">
        <ele>312.239436</ele>
        <time>2021-09-12T05:55:16.000Z</time>
      </trkpt>
      <trkpt lat="46.44781" lon="4.3463">
        <ele>312.224325</ele>
        <time>2021-09-12T05:55:26.000Z</time>
      </trkpt>
      <trkpt lat="46.44793" lon="4.34706">
        <ele>312.210402</ele>
        <time>2021-09-12T05:55:35.000Z</time>
      </trkpt>
      <trkpt lat="46.44804" lon="4.34777">
        <ele>312.216969</ele>
        <time>2021-09-12T05:55:42.000Z</time>
      </trkpt>
      <trkpt lat="46.44817" lon="4.34861">
        <ele>312.301752</ele>
        <time>2021-09-12T05:55:50.000Z</time>
      </trkpt>
      <trkpt lat="46.44826" lon="4.34922">
        <ele>312.363004</ele>
        <time>2021-09-12T05:55:57.000Z</time>
      </trkpt>
      <trkpt lat="46.44837" lon="4.34991">
        <ele>312.432226</ele>
        <time>2021-09-12T05:56:06.000Z</time>
      </trkpt>
      <trkpt lat="46.44849" lon="4.3507">
        <ele>313.129645</ele>
        <time>2021-09-12T05:56:15.000Z</time>
      </trkpt>
      <trkpt lat="46.44856" lon="4.35115">
        <ele>313.685922</ele>
        <time>2021-09-12T05:56:21.000Z</time>
      </trkpt>
      <trkpt lat="46.44861" lon="4.35147">
        <ele>314.075584</ele>
        <time>2021-09-12T05:56:27.000Z</time>
      </trkpt>
      <trkpt lat="46.44867" lon="4.35183">
        <ele>314.520521</ele>
        <time>2021-09-12T05:56:36.000Z</time>
      </trkpt>
      <trkpt lat="46.44871" lon="4.35209">
        <ele>314.841672</ele>
        <time>2021-09-12T05:56:43.000Z</time>
      </trkpt>
      <trkpt lat="46.44876" lon="4.3524">
        <ele>315.225104</ele>
        <time>2021-09-12T05:56:51.000Z</time>
      </trkpt>
      <trkpt lat="46.44881" lon="4.35274">
        <ele>315.618063</ele>
        <time>2021-09-12T05:56:59.000Z</time>
      </trkpt>
      <trkpt lat="46.44889" lon="4.35322">
        <ele>315.995775</ele>
        <time>2021-09-12T05:57:09.000Z</time>
      </trkpt>
      <trkpt lat="46.44895" lon="4.35365">
        <ele>316.333183</ele>
        <time>2021-09-12T05:57:16.000Z</time>
      </trkpt>
      <trkpt lat="46.44904" lon="4.35419">
        <ele>316.756692</ele>
        <time>2021-09-12T05:57:23.000Z</time>
      </trkpt>
      <trkpt lat="46.44915" lon="4.35494">
        <ele>317.345164</ele>
        <time>2021-09-12T05:57:31.000Z</time>
      </trkpt>
      <trkpt lat="46.44926" lon="4.35565">
        <ele>317.691245</ele>
        <time>2021-09-12T05:57:38.000Z</time>
      </trkpt>
      <trkpt lat="46.44939" lon="4.35651">
        <ele>317.916208</ele>
        <time>2021-09-12T05:57:46.000Z</time>
      </trkpt>
      <trkpt lat="46.44949" lon="4.35714">
        <ele>318.079115</ele>
        <time>2021-09-12T05:57:53.000Z</time>
      </trkpt>
      <trkpt lat="46.44958" lon="4.35774">
        <ele>318.236868</ele>
        <time>2021-09-12T05:58:01.000Z</time>
      </trkpt>
      <trkpt lat="46.44966" lon="4.35827">
        <ele>318.976793</ele>
        <time>2021-09-12T05:58:09.000Z</time>
      </trkpt>
      <trkpt lat="46.44973" lon="4.35877">
        <ele>319.733984</ele>
        <time>2021-09-12T05:58:18.000Z</time>
      </trkpt>
      <trkpt lat="46.44981" lon="4.3593">
        <ele>320.535156</ele>
        <time>2021-09-12T05:58:29.000Z</time>
      </trkpt>
      <trkpt lat="46.44986" lon="4.35967">
        <ele>321.106797</ele>
        <time>2021-09-12T05:58:37.000Z</time>
      </trkpt>
      <trkpt lat="46.4499" lon="4.35993">
        <ele>321.494795</ele>
        <time>2021-09-12T05:58:43.000Z</time>
      </trkpt>
      <trkpt lat="46.44994" lon="4.36019">
        <ele>321.897787</ele>
        <time>2021-09-12T05:58:50.000Z</time>
      </trkpt>
      <trkpt lat="46.44998" lon="4.3605">
        <ele>322.168077</ele>
        <time>2021-09-12T05:58:57.000Z</time>
      </trkpt>
      <trkpt lat="46.44998" lon="4.36074">
        <ele>322.221801</ele>
        <time>2021-09-12T05:59:02.000Z</time>
      </trkpt>
      <trkpt lat="46.44998" lon="4.36117">
        <ele>322.319812</ele>
        <time>2021-09-12T05:59:10.000Z</time>
      </trkpt>
      <trkpt lat="46.44993" lon="4.36161">
        <ele>322.420107</ele>
        <time>2021-09-12T05:59:16.000Z</time>
      </trkpt>
      <trkpt lat="46.44987" lon="4.36218">
        <ele>322.548661</ele>
        <time>2021-09-12T05:59:22.000Z</time>
      </trkpt>
      <trkpt lat="46.44979" lon="4.36286">
        <ele>322.705137</ele>
        <time>2021-09-12T05:59:28.000Z</time>
      </trkpt>
      <trkpt lat="46.44971" lon="4.36366">
        <ele>321.946405</ele>
        <time>2021-09-12T05:59:34.000Z</time>
      </trkpt>
      <trkpt lat="46.44974" lon="4.3642">
        <ele>321.385751</ele>
        <time>2021-09-12T05:59:38.000Z</time>
      </trkpt>
      <trkpt lat="46.44976" lon="4.36432">
        <ele>321.251381</ele>
        <time>2021-09-12T05:59:39.000Z</time>
      </trkpt>
      <trkpt lat="46.44984" lon="4.36465">
        <ele>320.884207</ele>
        <time>2021-09-12T05:59:42.000Z</time>
      </trkpt>
      <trkpt lat="46.44999" lon="4.36499">
        <ele>320.464711</ele>
        <time>2021-09-12T05:59:46.000Z</time>
      </trkpt>
      <trkpt lat="46.45012" lon="4.36535">
        <ele>320.04166</ele>
        <time>2021-09-12T05:59:51.000Z</time>
      </trkpt>
      <trkpt lat="46.45012" lon="4.36542">
        <ele>319.976475</ele>
        <time>2021-09-12T05:59:52.000Z</time>
      </trkpt>
      <trkpt lat="46.45013" lon="4.36563">
        <ele>319.825531</ele>
        <time>2021-09-12T05:59:55.000Z</time>
      </trkpt>
      <trkpt lat="46.45015" lon="4.36569">
        <ele>319.78031</ele>
        <time>2021-09-12T05:59:56.000Z</time>
      </trkpt>
      <trkpt lat="46.45019" lon="4.36574">
        <ele>319.728083</ele>
        <time>2021-09-12T05:59:57.000Z</time>
      </trkpt>
      <trkpt lat="46.45028" lon="4.36578">
        <ele>319.629278</ele>
        <time>2021-09-12T05:59:59.000Z</time>
      </trkpt>
      <trkpt lat="46.45036" lon="4.36579">
        <ele>319.544281</ele>
        <time>2021-09-12T06:00:01.000Z</time>
      </trkpt>
      <trkpt lat="46.45045" lon="4.36582">
        <ele>319.453712</ele>
        <time>2021-09-12T06:00:03.000Z</time>
      </trkpt>
      <trkpt lat="46.45049" lon="4.36586">
        <ele>319.408098</ele>
        <time>2021-09-12T06:00:04.000Z</time>
      </trkpt>
      <trkpt lat="46.45052" lon="4.3659">
        <ele>319.359397</ele>
        <time>2021-09-12T06:00:05.000Z</time>
      </trkpt>
      <trkpt lat="46.4507" lon="4.36613">
        <ele>319.117801</ele>
        <time>2021-09-12T06:00:10.000Z</time>
      </trkpt>
      <trkpt lat="46.45081" lon="4.36628">
        <ele>318.967735</ele>
        <time>2021-09-12T06:00:13.000Z</time>
      </trkpt>
      <trkpt lat="46.45085" lon="4.36633">
        <ele>318.911366</ele>
        <time>2021-09-12T06:00:14.000Z</time>
      </trkpt>
      <trkpt lat="46.45111" lon="4.36668">
        <ele>318.548739</ele>
        <time>2021-09-12T06:00:20.000Z</time>
      </trkpt>
      <trkpt lat="46.45128" lon="4.36695">
        <ele>318.296771</ele>
        <time>2021-09-12T06:00:25.000Z</time>
      </trkpt>
      <trkpt lat="46.4513" lon="4.36701">
        <ele>318.249309</ele>
        <time>2021-09-12T06:00:26.000Z</time>
      </trkpt>
      <trkpt lat="46.45136" lon="4.36728">
        <ele>318.187274</ele>
        <time>2021-09-12T06:00:30.000Z</time>
      </trkpt>
      <trkpt lat="46.45139" lon="4.36732">
        <ele>318.197997</ele>
        <time>2021-09-12T06:00:31.000Z</time>
      </trkpt>
      <trkpt lat="46.45148" lon="4.36751">
        <ele>318.244018</ele>
        <time>2021-09-12T06:00:34.000Z</time>
      </trkpt>
      <trkpt lat="46.45152" lon="4.36765">
        <ele>318.274551</ele>
        <time>2021-09-12T06:00:36.000Z</time>
      </trkpt>
      <trkpt lat="46.45158" lon="4.36823">
        <ele>318.391932</ele>
        <time>2021-09-12T06:00:43.000Z</time>
      </trkpt>
      <trkpt lat="46.45156" lon="4.36875">
        <ele>318.495111</ele>
        <time>2021-09-12T06:00:50.000Z</time>
      </trkpt>
      <trkpt lat="46.45152" lon="4.36926">
        <ele>318.597521</ele>
        <time>2021-09-12T06:00:58.000Z</time>
      </trkpt>
      <trkpt lat="46.45149" lon="4.36967">
        <ele>318.693956</ele>
        <time>2021-09-12T06:01:05.000Z</time>
      </trkpt>
      <trkpt lat="46.45147" lon="4.37005">
        <ele>319.151457</ele>
        <time>2021-09-12T06:01:12.000Z</time>
      </trkpt>
      <trkpt lat="46.45149" lon="4.3705">
        <ele>319.68229</ele>
        <time>2021-09-12T06:01:21.000Z</time>
      </trkpt>
      <trkpt lat="46.45157" lon="4.37114">
        <ele>320.455845</ele>
        <time>2021-09-12T06:01:31.000Z</time>
      </trkpt>
      <trkpt lat="46.45165" lon="4.37169">
        <ele>321.124796</ele>
        <time>2021-09-12T06:01:40.000Z</time>
      </trkpt>
      <trkpt lat="46.45169" lon="4.37204">
        <ele>321.540109</ele>
        <time>2021-09-12T06:01:47.000Z</time>
      </trkpt>
      <trkpt lat="46.45174" lon="4.37235">
        <ele>321.993389</ele>
        <time>2021-09-12T06:01:55.000Z</time>
      </trkpt>
      <trkpt lat="46.45178" lon="4.37266">
        <ele>322.536325</ele>
        <time>2021-09-12T06:02:03.000Z</time>
      </trkpt>
      <trkpt lat="46.45183" lon="4.37296">
        <ele>323.057463</ele>
        <time>2021-09-12T06:02:12.000Z</time>
      </trkpt>
      <trkpt lat="46.45186" lon="4.37323">
        <ele>323.537011</ele>
        <time>2021-09-12T06:02:20.000Z</time>
      </trkpt>
      <trkpt lat="46.45191" lon="4.37344">
        <ele>323.908777</ele>
        <time>2021-09-12T06:02:26.000Z</time>
      </trkpt>
      <trkpt lat="46.45195" lon="4.37371">
        <ele>324.395556</ele>
        <time>2021-09-12T06:02:32.000Z</time>
      </trkpt>
      <trkpt lat="46.4519" lon="4.37391">
        <ele>324.762792</ele>
        <time>2021-09-12T06:02:36.000Z</time>
      </trkpt>
      <trkpt lat="46.45189" lon="4.37397">
        <ele>324.86887</ele>
        <time>2021-09-12T06:02:37.000Z</time>
      </trkpt>
      <trkpt lat="46.45176" lon="4.37431">
        <ele>325.541266</ele>
        <time>2021-09-12T06:02:42.000Z</time>
      </trkpt>
      <trkpt lat="46.45157" lon="4.37476">
        <ele>326.196692</ele>
        <time>2021-09-12T06:02:47.000Z</time>
      </trkpt>
      <trkpt lat="46.4513" lon="4.37543">
        <ele>325.6026</ele>
        <time>2021-09-12T06:02:53.000Z</time>
      </trkpt>
      <trkpt lat="46.45111" lon="4.37588">
        <ele>325.194284</ele>
        <time>2021-09-12T06:02:57.000Z</time>
      </trkpt>
      <trkpt lat="46.45086" lon="4.37651">
        <ele>324.633167</ele>
        <time>2021-09-12T06:03:03.000Z</time>
      </trkpt>
      <trkpt lat="46.45056" lon="4.37723">
        <ele>323.855661</ele>
        <time>2021-09-12T06:03:10.000Z</time>
      </trkpt>
      <trkpt lat="46.45052" lon="4.37734">
        <ele>323.720812</ele>
        <time>2021-09-12T06:03:11.000Z</time>
      </trkpt>
      <trkpt lat="46.45022" lon="4.37805">
        <ele>322.777492</ele>
        <time>2021-09-12T06:03:18.000Z</time>
      </trkpt>
      <trkpt lat="46.45013" lon="4.37826">
        <ele>322.507678</ele>
        <time>2021-09-12T06:03:20.000Z</time>
      </trkpt>
      <trkpt lat="46.44984" lon="4.37897">
        <ele>321.565198</ele>
        <time>2021-09-12T06:03:27.000Z</time>
      </trkpt>
      <trkpt lat="46.44967" lon="4.37937">
        <ele>321.159114</ele>
        <time>2021-09-12T06:03:31.000Z</time>
      </trkpt>
      <trkpt lat="46.44938" lon="4.38007">
        <ele>320.626768</ele>
        <time>2021-09-12T06:03:38.000Z</time>
      </trkpt>
      <trkpt lat="46.44933" lon="4.38017">
        <ele>320.54953</ele>
        <time>2021-09-12T06:03:39.000Z</time>
      </trkpt>
      <trkpt lat="46.44904" lon="4.38088">
        <ele>320.010774</ele>
        <time>2021-09-12T06:03:46.000Z</time>
      </trkpt>
      <trkpt lat="46.449" lon="4.38097">
        <ele>319.945864</ele>
        <time>2021-09-12T06:03:47.000Z</time>
      </trkpt>
      <trkpt lat="46.44889" lon="4.38124">
        <ele>319.741393</ele>
        <time>2021-09-12T06:03:51.000Z</time>
      </trkpt>
      <trkpt lat="46.4488" lon="4.38145">
        <ele>319.826063</ele>
        <time>2021-09-12T06:03:56.000Z</time>
      </trkpt>
      <trkpt lat="46.44871" lon="4.38169">
        <ele>320.534713</ele>
        <time>2021-09-12T06:04:03.000Z</time>
      </trkpt>
      <trkpt lat="46.44861" lon="4.38191">
        <ele>321.218977</ele>
        <time>2021-09-12T06:04:11.000Z</time>
      </trkpt>
      <trkpt lat="46.44853" lon="4.3821">
        <ele>321.80404</ele>
        <time>2021-09-12T06:04:18.000Z</time>
      </trkpt>
      <trkpt lat="46.44845" lon="4.38228">
        <ele>322.367528</ele>
        <time>2021-09-12T06:04:25.000Z</time>
      </trkpt>
      <trkpt lat="46.44837" lon="4.38249">
        <ele>323.013113</ele>
        <time>2021-09-12T06:04:33.000Z</time>
      </trkpt>
      <trkpt lat="46.44828" lon="4.3827">
        <ele>323.654226</ele>
        <time>2021-09-12T06:04:41.000Z</time>
      </trkpt>
      <trkpt lat="46.4482" lon="4.3829">
        <ele>324.263106</ele>
        <time>2021-09-12T06:04:48.000Z</time>
      </trkpt>
      <trkpt lat="46.44805" lon="4.38325">
        <ele>325.331803</ele>
        <time>2021-09-12T06:04:59.000Z</time>
      </trkpt>
      <trkpt lat="46.44793" lon="4.38353">
        <ele>326.17158</ele>
        <time>2021-09-12T06:05:08.000Z</time>
      </trkpt>
      <trkpt lat="46.44786" lon="4.38371">
        <ele>326.756022</ele>
        <time>2021-09-12T06:05:14.000Z</time>
      </trkpt>
      <trkpt lat="46.44775" lon="4.38396">
        <ele>327.604991</ele>
        <time>2021-09-12T06:05:22.000Z</time>
      </trkpt>
      <trkpt lat="46.44762" lon="4.38427">
        <ele>328.650173</ele>
        <time>2021-09-12T06:05:32.000Z</time>
      </trkpt>
      <trkpt lat="46.44754" lon="4.38448">
        <ele>329.329516</ele>
        <time>2021-09-12T06:05:39.000Z</time>
      </trkpt>
      <trkpt lat="46.44744" lon="4.3847">
        <ele>330.089071</ele>
        <time>2021-09-12T06:05:47.000Z</time>
      </trkpt>
      <trkpt lat="46.44734" lon="4.38494">
        <ele>330.867318</ele>
        <time>2021-09-12T06:05:53.000Z</time>
      </trkpt>
      <trkpt lat="46.44719" lon="4.38531">
        <ele>332.115182</ele>
        <time>2021-09-12T06:06:02.000Z</time>
      </trkpt>
      <trkpt lat="46.44704" lon="4.38566">
        <ele>333.271199</ele>
        <time>2021-09-12T06:06:10.000Z</time>
      </trkpt>
      <trkpt lat="46.44688" lon="4.38604">
        <ele>334.278307</ele>
        <time>2021-09-12T06:06:18.000Z</time>
      </trkpt>
      <trkpt lat="46.44678" lon="4.38629">
        <ele>334.758616</ele>
        <time>2021-09-12T06:06:25.000Z</time>
      </trkpt>
      <trkpt lat="46.44676" lon="4.38632">
        <ele>334.827232</ele>
        <time>2021-09-12T06:06:34.000Z</time>
      </trkpt>
      <trkpt lat="46.44675" lon="4.38635">
        <ele>334.881012</ele>
        <time>2021-09-12T06:06:35.000Z</time>
      </trkpt>
      <trkpt lat="46.44666" lon="4.38656">
        <ele>335.283278</ele>
        <time>2021-09-12T06:06:40.000Z</time>
      </trkpt>
      <trkpt lat="46.4466" lon="4.38672">
        <ele>335.579219</ele>
        <time>2021-09-12T06:06:43.000Z</time>
      </trkpt>
      <trkpt lat="46.44651" lon="4.38693">
        <ele>335.992144</ele>
        <time>2021-09-12T06:06:47.000Z</time>
      </trkpt>
      <trkpt lat="46.44633" lon="4.38737">
        <ele>336.815535</ele>
        <time>2021-09-12T06:06:55.000Z</time>
      </trkpt>
      <trkpt lat="46.44618" lon="4.38773">
        <ele>337.511302</ele>
        <time>2021-09-12T06:07:02.000Z</time>
      </trkpt>
      <trkpt lat="46.4461" lon="4.38793">
        <ele>337.884257</ele>
        <time>2021-09-12T06:07:06.000Z</time>
      </trkpt>
      <trkpt lat="46.44608" lon="4.38798">
        <ele>337.981159</ele>
        <time>2021-09-12T06:07:07.000Z</time>
      </trkpt>
      <trkpt lat="46.44596" lon="4.38826">
        <ele>338.476256</ele>
        <time>2021-09-12T06:07:13.000Z</time>
      </trkpt>
      <trkpt lat="46.44582" lon="4.3886">
        <ele>339.050747</ele>
        <time>2021-09-12T06:07:20.000Z</time>
      </trkpt>
      <trkpt lat="46.44564" lon="4.38904">
        <ele>339.801167</ele>
        <time>2021-09-12T06:07:29.000Z</time>
      </trkpt>
      <trkpt lat="46.4455" lon="4.38938">
        <ele>340.386289</ele>
        <time>2021-09-12T06:07:36.000Z</time>
      </trkpt>
      <trkpt lat="46.44534" lon="4.38977">
        <ele>341.059383</ele>
        <time>2021-09-12T06:07:43.000Z</time>
      </trkpt>
      <trkpt lat="46.44513" lon="4.39026">
        <ele>341.896685</ele>
        <time>2021-09-12T06:07:50.000Z</time>
      </trkpt>
      <trkpt lat="46.44492" lon="4.39077">
        <ele>342.341393</ele>
        <time>2021-09-12T06:07:56.000Z</time>
      </trkpt>
      <trkpt lat="46.44465" lon="4.39143">
        <ele>342.843875</ele>
        <time>2021-09-12T06:08:03.000Z</time>
      </trkpt>
      <trkpt lat="46.44444" lon="4.39193">
        <ele>343.227764</ele>
        <time>2021-09-12T06:08:09.000Z</time>
      </trkpt>
      <trkpt lat="46.44432" lon="4.39222">
        <ele>343.449218</ele>
        <time>2021-09-12T06:08:14.000Z</time>
      </trkpt>
      <trkpt lat="46.44424" lon="4.39243">
        <ele>343.610602</ele>
        <time>2021-09-12T06:08:20.000Z</time>
      </trkpt>
      <trkpt lat="46.44413" lon="4.39268">
        <ele>344.260205</ele>
        <time>2021-09-12T06:08:29.000Z</time>
      </trkpt>
      <trkpt lat="46.44402" lon="4.39296">
        <ele>345.571876</ele>
        <time>2021-09-12T06:08:39.000Z</time>
      </trkpt>
      <trkpt lat="46.44394" lon="4.39315">
        <ele>346.479523</ele>
        <time>2021-09-12T06:08:46.000Z</time>
      </trkpt>
      <trkpt lat="46.44383" lon="4.39343">
        <ele>347.786871</ele>
        <time>2021-09-12T06:08:56.000Z</time>
      </trkpt>
      <trkpt lat="46.44375" lon="4.39361">
        <ele>348.630879</ele>
        <time>2021-09-12T06:09:03.000Z</time>
      </trkpt>
      <trkpt lat="46.44364" lon="4.39388">
        <ele>349.921807</ele>
        <time>2021-09-12T06:09:13.000Z</time>
      </trkpt>
      <trkpt lat="46.44357" lon="4.39404">
        <ele>350.695675</ele>
        <time>2021-09-12T06:09:19.000Z</time>
      </trkpt>
      <trkpt lat="46.44345" lon="4.39433">
        <ele>352.040274</ele>
        <time>2021-09-12T06:09:29.000Z</time>
      </trkpt>
      <trkpt lat="46.44332" lon="4.39463">
        <ele>353.481459</ele>
        <time>2021-09-12T06:09:38.000Z</time>
      </trkpt>
      <trkpt lat="46.44319" lon="4.39495">
        <ele>354.59336</ele>
        <time>2021-09-12T06:09:45.000Z</time>
      </trkpt>
      <trkpt lat="46.44303" lon="4.39531">
        <ele>355.374869</ele>
        <time>2021-09-12T06:09:51.000Z</time>
      </trkpt>
      <trkpt lat="46.44282" lon="4.39583">
        <ele>356.473404</ele>
        <time>2021-09-12T06:09:58.000Z</time>
      </trkpt>
      <trkpt lat="46.44257" lon="4.39642">
        <ele>357.734255</ele>
        <time>2021-09-12T06:10:06.000Z</time>
      </trkpt>
      <trkpt lat="46.44237" lon="4.39688">
        <ele>358.715552</ele>
        <time>2021-09-12T06:10:13.000Z</time>
      </trkpt>
      <trkpt lat="46.44221" lon="4.39726">
        <ele>358.844065</ele>
        <time>2021-09-12T06:10:20.000Z</time>
      </trkpt>
      <trkpt lat="46.44206" lon="4.39761">
        <ele>358.56758</ele>
        <time>2021-09-12T06:10:26.000Z</time>
      </trkpt>
      <trkpt lat="46.44189" lon="4.39801">
        <ele>358.261023</ele>
        <time>2021-09-12T06:10:31.000Z</time>
      </trkpt>
      <trkpt lat="46.44164" lon="4.39861">
        <ele>357.790209</ele>
        <time>2021-09-12T06:10:37.000Z</time>
      </trkpt>
      <trkpt lat="46.44134" lon="4.39932">
        <ele>357.111223</ele>
        <time>2021-09-12T06:10:43.000Z</time>
      </trkpt>
      <trkpt lat="46.44129" lon="4.39944">
        <ele>356.827584</ele>
        <time>2021-09-12T06:10:44.000Z</time>
      </trkpt>
      <trkpt lat="46.44107" lon="4.39994">
        <ele>355.618721</ele>
        <time>2021-09-12T06:10:49.000Z</time>
      </trkpt>
      <trkpt lat="46.44087" lon="4.40041">
        <ele>354.480857</ele>
        <time>2021-09-12T06:10:55.000Z</time>
      </trkpt>
      <trkpt lat="46.44068" lon="4.40086">
        <ele>353.398672</ele>
        <time>2021-09-12T06:11:00.000Z</time>
      </trkpt>
      <trkpt lat="46.4404" lon="4.40153">
        <ele>351.80523</ele>
        <time>2021-09-12T06:11:06.000Z</time>
      </trkpt>
      <trkpt lat="46.4401" lon="4.40223">
        <ele>350.060682</ele>
        <time>2021-09-12T06:11:12.000Z</time>
      </trkpt>
      <trkpt lat="46.43996" lon="4.40257">
        <ele>349.218075</ele>
        <time>2021-09-12T06:11:15.000Z</time>
      </trkpt>
      <trkpt lat="46.43975" lon="4.40307">
        <ele>347.974305</ele>
        <time>2021-09-12T06:11:20.000Z</time>
      </trkpt>
      <trkpt lat="46.43951" lon="4.40361">
        <ele>346.615264</ele>
        <time>2021-09-12T06:11:26.000Z</time>
      </trkpt>
      <trkpt lat="46.43922" lon="4.4043">
        <ele>344.985083</ele>
        <time>2021-09-12T06:11:34.000Z</time>
      </trkpt>
      <trkpt lat="46.439" lon="4.40481">
        <ele>343.770458</ele>
        <time>2021-09-12T06:11:40.000Z</time>
      </trkpt>
      <trkpt lat="46.43868" lon="4.40557">
        <ele>341.987878</ele>
        <time>2021-09-12T06:11:48.000Z</time>
      </trkpt>
      <trkpt lat="46.43836" lon="4.4063">
        <ele>340.283158</ele>
        <time>2021-09-12T06:11:55.000Z</time>
      </trkpt>
      <trkpt lat="46.43832" lon="4.4064">
        <ele>340.04306</ele>
        <time>2021-09-12T06:11:56.000Z</time>
      </trkpt>
      <trkpt lat="46.43799" lon="4.40717">
        <ele>338.291906</ele>
        <time>2021-09-12T06:12:03.000Z</time>
      </trkpt>
      <trkpt lat="46.4379" lon="4.40739">
        <ele>337.782829</ele>
        <time>2021-09-12T06:12:05.000Z</time>
      </trkpt>
      <trkpt lat="46.43757" lon="4.40815">
        <ele>336.090759</ele>
        <time>2021-09-12T06:12:12.000Z</time>
      </trkpt>
      <trkpt lat="46.43738" lon="4.4086">
        <ele>335.729983</ele>
        <time>2021-09-12T06:12:17.000Z</time>
      </trkpt>
      <trkpt lat="46.43724" lon="4.40893">
        <ele>335.462771</ele>
        <time>2021-09-12T06:12:22.000Z</time>
      </trkpt>
      <trkpt lat="46.43712" lon="4.40921">
        <ele>335.239551</ele>
        <time>2021-09-12T06:12:28.000Z</time>
      </trkpt>
      <trkpt lat="46.43701" lon="4.40946">
        <ele>335.035451</ele>
        <time>2021-09-12T06:12:35.000Z</time>
      </trkpt>
      <trkpt lat="46.43686" lon="4.40981">
        <ele>334.756964</ele>
        <time>2021-09-12T06:12:45.000Z</time>
      </trkpt>
      <trkpt lat="46.43667" lon="4.41025">
        <ele>334.400716</ele>
        <time>2021-09-12T06:12:57.000Z</time>
      </trkpt>
      <trkpt lat="46.43655" lon="4.41053">
        <ele>334.339105</ele>
        <time>2021-09-12T06:13:04.000Z</time>
      </trkpt>
      <trkpt lat="46.43639" lon="4.4109">
        <ele>334.357514</ele>
        <time>2021-09-12T06:13:12.000Z</time>
      </trkpt>
      <trkpt lat="46.43622" lon="4.41132">
        <ele>334.378278</ele>
        <time>2021-09-12T06:13:20.000Z</time>
      </trkpt>
      <trkpt lat="46.43602" lon="4.41173">
        <ele>334.399545</ele>
        <time>2021-09-12T06:13:28.000Z</time>
      </trkpt>
      <trkpt lat="46.43579" lon="4.4121">
        <ele>334.421013</ele>
        <time>2021-09-12T06:13:36.000Z</time>
      </trkpt>
      <trkpt lat="46.43551" lon="4.41248">
        <ele>334.349641</ele>
        <time>2021-09-12T06:13:43.000Z</time>
      </trkpt>
      <trkpt lat="46.43521" lon="4.41287">
        <ele>333.785647</ele>
        <time>2021-09-12T06:13:49.000Z</time>
      </trkpt>
      <trkpt lat="46.43485" lon="4.41336">
        <ele>333.092288</ele>
        <time>2021-09-12T06:13:55.000Z</time>
      </trkpt>
      <trkpt lat="46.43444" lon="4.41391">
        <ele>332.30997</ele>
        <time>2021-09-12T06:14:01.000Z</time>
      </trkpt>
      <trkpt lat="46.43432" lon="4.41409">
        <ele>332.065997</ele>
        <time>2021-09-12T06:14:03.000Z</time>
      </trkpt>
      <trkpt lat="46.43391" lon="4.41463">
        <ele>332.468254</ele>
        <time>2021-09-12T06:14:10.000Z</time>
      </trkpt>
      <trkpt lat="46.43386" lon="4.4147">
        <ele>332.552449</ele>
        <time>2021-09-12T06:14:11.000Z</time>
      </trkpt>
      <trkpt lat="46.43366" lon="4.41496">
        <ele>332.88202</ele>
        <time>2021-09-12T06:14:16.000Z</time>
      </trkpt>
      <trkpt lat="46.43353" lon="4.41512">
        <ele>333.084514</ele>
        <time>2021-09-12T06:14:21.000Z</time>
      </trkpt>
      <trkpt lat="46.43342" lon="4.41528">
        <ele>333.275641</ele>
        <time>2021-09-12T06:14:28.000Z</time>
      </trkpt>
      <trkpt lat="46.43331" lon="4.41542">
        <ele>333.448985</ele>
        <time>2021-09-12T06:14:35.000Z</time>
      </trkpt>
      <trkpt lat="46.43323" lon="4.41552">
        <ele>333.582142</ele>
        <time>2021-09-12T06:14:41.000Z</time>
      </trkpt>
      <trkpt lat="46.43311" lon="4.41568">
        <ele>333.775298</ele>
        <time>2021-09-12T06:14:50.000Z</time>
      </trkpt>
      <trkpt lat="46.43297" lon="4.41587">
        <ele>334.010999</ele>
        <time>2021-09-12T06:15:02.000Z</time>
      </trkpt>
      <trkpt lat="46.43288" lon="4.41599">
        <ele>334.498516</ele>
        <time>2021-09-12T06:15:10.000Z</time>
      </trkpt>
      <trkpt lat="46.43277" lon="4.41613">
        <ele>335.706274</ele>
        <time>2021-09-12T06:15:19.000Z</time>
      </trkpt>
      <trkpt lat="46.43265" lon="4.41629">
        <ele>337.06225</ele>
        <time>2021-09-12T06:15:29.000Z</time>
      </trkpt>
      <trkpt lat="46.43255" lon="4.41642">
        <ele>338.23156</ele>
        <time>2021-09-12T06:15:38.000Z</time>
      </trkpt>
      <trkpt lat="46.43247" lon="4.41654">
        <ele>339.232277</ele>
        <time>2021-09-12T06:15:46.000Z</time>
      </trkpt>
      <trkpt lat="46.4324" lon="4.41662">
        <ele>339.946749</ele>
        <time>2021-09-12T06:15:52.000Z</time>
      </trkpt>
      <trkpt lat="46.43239" lon="4.41664">
        <ele>340.066908</ele>
        <time>2021-09-12T06:15:53.000Z</time>
      </trkpt>
      <trkpt lat="46.43235" lon="4.41669">
        <ele>340.564157</ele>
        <time>2021-09-12T06:15:57.000Z</time>
      </trkpt>
      <trkpt lat="46.43233" lon="4.41672">
        <ele>340.805709</ele>
        <time>2021-09-12T06:15:59.000Z</time>
      </trkpt>
      <trkpt lat="46.43226" lon="4.41682">
        <ele>341.619759</ele>
        <time>2021-09-12T06:16:06.000Z</time>
      </trkpt>
      <trkpt lat="46.43219" lon="4.41691">
        <ele>342.389112</ele>
        <time>2021-09-12T06:16:12.000Z</time>
      </trkpt>
      <trkpt lat="46.43212" lon="4.417">
        <ele>343.241617</ele>
        <time>2021-09-12T06:16:19.000Z</time>
      </trkpt>
      <trkpt lat="46.43202" lon="4.41714">
        <ele>344.396811</ele>
        <time>2021-09-12T06:16:28.000Z</time>
      </trkpt>
      <trkpt lat="46.43191" lon="4.41727">
        <ele>345.57007</ele>
        <time>2021-09-12T06:16:37.000Z</time>
      </trkpt>
      <trkpt lat="46.43183" lon="4.41738">
        <ele>346.532344</ele>
        <time>2021-09-12T06:16:44.000Z</time>
      </trkpt>
      <trkpt lat="46.43175" lon="4.41749">
        <ele>347.460111</ele>
        <time>2021-09-12T06:16:51.000Z</time>
      </trkpt>
      <trkpt lat="46.43165" lon="4.41762">
        <ele>348.546296</ele>
        <time>2021-09-12T06:16:59.000Z</time>
      </trkpt>
      <trkpt lat="46.43156" lon="4.41774">
        <ele>349.6775</ele>
        <time>2021-09-12T06:17:07.000Z</time>
      </trkpt>
      <trkpt lat="46.43146" lon="4.41787">
        <ele>351.076613</ele>
        <time>2021-09-12T06:17:16.000Z</time>
      </trkpt>
      <trkpt lat="46.43137" lon="4.41803">
        <ele>352.509229</ele>
        <time>2021-09-12T06:17:25.000Z</time>
      </trkpt>
      <trkpt lat="46.4313" lon="4.41817">
        <ele>353.719215</ele>
        <time>2021-09-12T06:17:32.000Z</time>
      </trkpt>
      <trkpt lat="46.43125" lon="4.41832">
        <ele>354.890767</ele>
        <time>2021-09-12T06:17:40.000Z</time>
      </trkpt>
      <trkpt lat="46.4312" lon="4.4185">
        <ele>356.295685</ele>
        <time>2021-09-12T06:17:49.000Z</time>
      </trkpt>
      <trkpt lat="46.43116" lon="4.41864">
        <ele>357.360869</ele>
        <time>2021-09-12T06:17:56.000Z</time>
      </trkpt>
      <trkpt lat="46.43111" lon="4.41883">
        <ele>358.828121</ele>
        <time>2021-09-12T06:18:05.000Z</time>
      </trkpt>
      <trkpt lat="46.43107" lon="4.41901">
        <ele>360.134444</ele>
        <time>2021-09-12T06:18:13.000Z</time>
      </trkpt>
      <trkpt lat="46.43103" lon="4.41917">
        <ele>361.387131</ele>
        <time>2021-09-12T06:18:21.000Z</time>
      </trkpt>
      <trkpt lat="46.43097" lon="4.41939">
        <ele>363.035234</ele>
        <time>2021-09-12T06:18:31.000Z</time>
      </trkpt>
      <trkpt lat="46.43092" lon="4.41958">
        <ele>364.478986</ele>
        <time>2021-09-12T06:18:40.000Z</time>
      </trkpt>
      <trkpt lat="46.43086" lon="4.41981">
        <ele>366.217518</ele>
        <time>2021-09-12T06:18:50.000Z</time>
      </trkpt>
      <trkpt lat="46.43082" lon="4.41997">
        <ele>367.409924</ele>
        <time>2021-09-12T06:18:56.000Z</time>
      </trkpt>
      <trkpt lat="46.43075" lon="4.42027">
        <ele>368.621491</ele>
        <time>2021-09-12T06:19:06.000Z</time>
      </trkpt>
      <trkpt lat="46.43068" lon="4.42052">
        <ele>369.465776</ele>
        <time>2021-09-12T06:19:14.000Z</time>
      </trkpt>
      <trkpt lat="46.4306" lon="4.42085">
        <ele>370.568016</ele>
        <time>2021-09-12T06:19:23.000Z</time>
      </trkpt>
      <trkpt lat="46.43048" lon="4.42128">
        <ele>371.98864</ele>
        <time>2021-09-12T06:19:32.000Z</time>
      </trkpt>
      <trkpt lat="46.43037" lon="4.42173">
        <ele>373.472306</ele>
        <time>2021-09-12T06:19:40.000Z</time>
      </trkpt>
      <trkpt lat="46.43021" lon="4.42233">
        <ele>375.473474</ele>
        <time>2021-09-12T06:19:50.000Z</time>
      </trkpt>
      <trkpt lat="46.43007" lon="4.42286">
        <ele>376.370625</ele>
        <time>2021-09-12T06:19:58.000Z</time>
      </trkpt>
      <trkpt lat="46.42991" lon="4.42344">
        <ele>377.044359</ele>
        <time>2021-09-12T06:20:06.000Z</time>
      </trkpt>
      <trkpt lat="46.42972" lon="4.42418">
        <ele>377.893667</ele>
        <time>2021-09-12T06:20:16.000Z</time>
      </trkpt>
      <trkpt lat="46.42956" lon="4.42478">
        <ele>378.587784</ele>
        <time>2021-09-12T06:20:25.000Z</time>
      </trkpt>
      <trkpt lat="46.42938" lon="4.42548">
        <ele>379.154037</ele>
        <time>2021-09-12T06:20:36.000Z</time>
      </trkpt>
      <trkpt lat="46.42921" lon="4.42611">
        <ele>379.614874</ele>
        <time>2021-09-12T06:20:46.000Z</time>
      </trkpt>
      <trkpt lat="46.42909" lon="4.4266">
        <ele>379.969785</ele>
        <time>2021-09-12T06:20:53.000Z</time>
      </trkpt>
      <trkpt lat="46.42891" lon="4.42726">
        <ele>380.454217</ele>
        <time>2021-09-12T06:21:01.000Z</time>
      </trkpt>
      <trkpt lat="46.42873" lon="4.42796">
        <ele>380.554317</ele>
        <time>2021-09-12T06:21:09.000Z</time>
      </trkpt>
      <trkpt lat="46.42853" lon="4.42872">
        <ele>380.602881</ele>
        <time>2021-09-12T06:21:18.000Z</time>
      </trkpt>
      <trkpt lat="46.42837" lon="4.42933">
        <ele>380.641363</ele>
        <time>2021-09-12T06:21:26.000Z</time>
      </trkpt>
      <trkpt lat="46.42819" lon="4.43005">
        <ele>380.72195</ele>
        <time>2021-09-12T06:21:34.000Z</time>
      </trkpt>
      <trkpt lat="46.42798" lon="4.43085">
        <ele>380.880594</ele>
        <time>2021-09-12T06:21:42.000Z</time>
      </trkpt>
      <trkpt lat="46.42796" lon="4.43094">
        <ele>380.899237</ele>
        <time>2021-09-12T06:21:43.000Z</time>
      </trkpt>
      <trkpt lat="46.42783" lon="4.43144">
        <ele>380.997994</ele>
        <time>2021-09-12T06:21:49.000Z</time>
      </trkpt>
      <trkpt lat="46.42768" lon="4.43205">
        <ele>381.119526</ele>
        <time>2021-09-12T06:21:58.000Z</time>
      </trkpt>
      <trkpt lat="46.42755" lon="4.43255">
        <ele>382.115374</ele>
        <time>2021-09-12T06:22:06.000Z</time>
      </trkpt>
      <trkpt lat="46.42749" lon="4.4328">
        <ele>382.844191</ele>
        <time>2021-09-12T06:22:12.000Z</time>
      </trkpt>
      <trkpt lat="46.42743" lon="4.43302">
        <ele>383.513385</ele>
        <time>2021-09-12T06:22:20.000Z</time>
      </trkpt>
      <trkpt lat="46.42737" lon="4.43325">
        <ele>384.185209</ele>
        <time>2021-09-12T06:22:28.000Z</time>
      </trkpt>
      <trkpt lat="46.42733" lon="4.43342">
        <ele>384.70868</ele>
        <time>2021-09-12T06:22:35.000Z</time>
      </trkpt>
      <trkpt lat="46.42728" lon="4.43361">
        <ele>385.287737</ele>
        <time>2021-09-12T06:22:43.000Z</time>
      </trkpt>
      <trkpt lat="46.42722" lon="4.43383">
        <ele>385.930455</ele>
        <time>2021-09-12T06:22:52.000Z</time>
      </trkpt>
      <trkpt lat="46.42716" lon="4.43407">
        <ele>386.661906</ele>
        <time>2021-09-12T06:23:02.000Z</time>
      </trkpt>
      <trkpt lat="46.42712" lon="4.43424">
        <ele>387.16153</ele>
        <time>2021-09-12T06:23:09.000Z</time>
      </trkpt>
      <trkpt lat="46.42706" lon="4.43447">
        <ele>387.845511</ele>
        <time>2021-09-12T06:23:17.000Z</time>
      </trkpt>
      <trkpt lat="46.42698" lon="4.43478">
        <ele>388.980574</ele>
        <time>2021-09-12T06:23:26.000Z</time>
      </trkpt>
      <trkpt lat="46.42693" lon="4.43497">
        <ele>389.931742</ele>
        <time>2021-09-12T06:23:32.000Z</time>
      </trkpt>
      <trkpt lat="46.42684" lon="4.4353">
        <ele>391.601477</ele>
        <time>2021-09-12T06:23:41.000Z</time>
      </trkpt>
      <trkpt lat="46.42678" lon="4.43556">
        <ele>392.889786</ele>
        <time>2021-09-12T06:23:48.000Z</time>
      </trkpt>
      <trkpt lat="46.42673" lon="4.43575">
        <ele>393.823414</ele>
        <time>2021-09-12T06:23:54.000Z</time>
      </trkpt>
      <trkpt lat="46.42667" lon="4.43597">
        <ele>394.932191</ele>
        <time>2021-09-12T06:24:02.000Z</time>
      </trkpt>
      <trkpt lat="46.42661" lon="4.43617">
        <ele>395.96556</ele>
        <time>2021-09-12T06:24:10.000Z</time>
      </trkpt>
      <trkpt lat="46.42656" lon="4.43637">
        <ele>396.934706</ele>
        <time>2021-09-12T06:24:18.000Z</time>
      </trkpt>
      <trkpt lat="46.4265" lon="4.4366">
        <ele>398.118896</ele>
        <time>2021-09-12T06:24:28.000Z</time>
      </trkpt>
      <trkpt lat="46.42643" lon="4.43686">
        <ele>399.438341</ele>
        <time>2021-09-12T06:24:40.000Z</time>
      </trkpt>
      <trkpt lat="46.42638" lon="4.43706">
        <ele>400.400688</ele>
        <time>2021-09-12T06:24:49.000Z</time>
      </trkpt>
      <trkpt lat="46.42633" lon="4.43725">
        <ele>401.218054</ele>
        <time>2021-09-12T06:24:58.000Z</time>
      </trkpt>
      <trkpt lat="46.42629" lon="4.43743">
        <ele>401.895083</ele>
        <time>2021-09-12T06:25:06.000Z</time>
      </trkpt>
      <trkpt lat="46.42622" lon="4.43768">
        <ele>402.861358</ele>
        <time>2021-09-12T06:25:17.000Z</time>
      </trkpt>
      <trkpt lat="46.42617" lon="4.43787">
        <ele>403.616762</ele>
        <time>2021-09-12T06:25:24.000Z</time>
      </trkpt>
      <trkpt lat="46.42612" lon="4.43805">
        <ele>404.305733</ele>
        <time>2021-09-12T06:25:30.000Z</time>
      </trkpt>
      <trkpt lat="46.42604" lon="4.43837">
        <ele>405.516857</ele>
        <time>2021-09-12T06:25:39.000Z</time>
      </trkpt>
      <trkpt lat="46.42594" lon="4.43874">
        <ele>406.93399</ele>
        <time>2021-09-12T06:25:48.000Z</time>
      </trkpt>
      <trkpt lat="46.42585" lon="4.43909">
        <ele>408.299696</ele>
        <time>2021-09-12T06:25:56.000Z</time>
      </trkpt>
      <trkpt lat="46.42577" lon="4.43944">
        <ele>409.620969</ele>
        <time>2021-09-12T06:26:02.000Z</time>
      </trkpt>
      <trkpt lat="46.42568" lon="4.43986">
        <ele>409.844321</ele>
        <time>2021-09-12T06:26:07.000Z</time>
      </trkpt>
      <trkpt lat="46.42558" lon="4.44042">
        <ele>409.376405</ele>
        <time>2021-09-12T06:26:12.000Z</time>
      </trkpt>
      <trkpt lat="46.42542" lon="4.44124">
        <ele>408.688454</ele>
        <time>2021-09-12T06:26:18.000Z</time>
      </trkpt>
      <trkpt lat="46.42527" lon="4.44201">
        <ele>408.049863</ele>
        <time>2021-09-12T06:26:23.000Z</time>
      </trkpt>
      <trkpt lat="46.42521" lon="4.44233">
        <ele>407.534307</ele>
        <time>2021-09-12T06:26:25.000Z</time>
      </trkpt>
      <trkpt lat="46.42504" lon="4.4432">
        <ele>405.976267</ele>
        <time>2021-09-12T06:26:30.000Z</time>
      </trkpt>
      <trkpt lat="46.425" lon="4.44338">
        <ele>405.65346</ele>
        <time>2021-09-12T06:26:31.000Z</time>
      </trkpt>
      <trkpt lat="46.42483" lon="4.44421">
        <ele>404.162014</ele>
        <time>2021-09-12T06:26:36.000Z</time>
      </trkpt>
      <trkpt lat="46.42472" lon="4.44476">
        <ele>403.224071</ele>
        <time>2021-09-12T06:26:40.000Z</time>
      </trkpt>
      <trkpt lat="46.42459" lon="4.44543">
        <ele>402.253855</ele>
        <time>2021-09-12T06:26:46.000Z</time>
      </trkpt>
      <trkpt lat="46.42444" lon="4.44618">
        <ele>401.157004</ele>
        <time>2021-09-12T06:26:53.000Z</time>
      </trkpt>
      <trkpt lat="46.42429" lon="4.44698">
        <ele>399.986259</ele>
        <time>2021-09-12T06:27:00.000Z</time>
      </trkpt>
      <trkpt lat="46.42413" lon="4.44779">
        <ele>398.675244</ele>
        <time>2021-09-12T06:27:08.000Z</time>
      </trkpt>
      <trkpt lat="46.42397" lon="4.44862">
        <ele>397.303864</ele>
        <time>2021-09-12T06:27:16.000Z</time>
      </trkpt>
      <trkpt lat="46.42395" lon="4.44872">
        <ele>397.12915</ele>
        <time>2021-09-12T06:27:17.000Z</time>
      </trkpt>
      <trkpt lat="46.42378" lon="4.44958">
        <ele>395.716384</ele>
        <time>2021-09-12T06:27:25.000Z</time>
      </trkpt>
      <trkpt lat="46.42376" lon="4.44969">
        <ele>395.525657</ele>
        <time>2021-09-12T06:27:26.000Z</time>
      </trkpt>
      <trkpt lat="46.42358" lon="4.45054">
        <ele>394.120253</ele>
        <time>2021-09-12T06:27:33.000Z</time>
      </trkpt>
      <trkpt lat="46.42356" lon="4.45066">
        <ele>393.917422</ele>
        <time>2021-09-12T06:27:34.000Z</time>
      </trkpt>
      <trkpt lat="46.42341" lon="4.45135">
        <ele>392.768172</ele>
        <time>2021-09-12T06:27:40.000Z</time>
      </trkpt>
      <trkpt lat="46.42325" lon="4.45184">
        <ele>391.907437</ele>
        <time>2021-09-12T06:27:45.000Z</time>
      </trkpt>
      <trkpt lat="46.42301" lon="4.45227">
        <ele>390.97856</ele>
        <time>2021-09-12T06:27:51.000Z</time>
      </trkpt>
      <trkpt lat="46.42283" lon="4.45252">
        <ele>390.330527</ele>
        <time>2021-09-12T06:27:55.000Z</time>
      </trkpt>
      <trkpt lat="46.42278" lon="4.45259">
        <ele>390.163621</ele>
        <time>2021-09-12T06:27:56.000Z</time>
      </trkpt>
      <trkpt lat="46.42237" lon="4.45288">
        <ele>389.004087</ele>
        <time>2021-09-12T06:28:02.000Z</time>
      </trkpt>
      <trkpt lat="46.42229" lon="4.45292">
        <ele>388.784186</ele>
        <time>2021-09-12T06:28:03.000Z</time>
      </trkpt>
      <trkpt lat="46.4221" lon="4.45297">
        <ele>388.306787</ele>
        <time>2021-09-12T06:28:05.000Z</time>
      </trkpt>
      <trkpt lat="46.42162" lon="4.45295">
        <ele>387.063465</ele>
        <time>2021-09-12T06:28:10.000Z</time>
      </trkpt>
      <trkpt lat="46.42118" lon="4.45294">
        <ele>386.657972</ele>
        <time>2021-09-12T06:28:15.000Z</time>
      </trkpt>
      <trkpt lat="46.42092" lon="4.45293">
        <ele>386.464306</ele>
        <time>2021-09-12T06:28:19.000Z</time>
      </trkpt>
      <trkpt lat="46.42072" lon="4.45294">
        <ele>386.312271</ele>
        <time>2021-09-12T06:28:24.000Z</time>
      </trkpt>
      <trkpt lat="46.42049" lon="4.45296">
        <ele>386.144522</ele>
        <time>2021-09-12T06:28:32.000Z</time>
      </trkpt>
      <trkpt lat="46.42026" lon="4.45297">
        <ele>385.973029</ele>
        <time>2021-09-12T06:28:41.000Z</time>
      </trkpt>
      <trkpt lat="46.42009" lon="4.45299">
        <ele>385.846062</ele>
        <time>2021-09-12T06:28:49.000Z</time>
      </trkpt>
      <trkpt lat="46.41993" lon="4.45302">
        <ele>385.726792</ele>
        <time>2021-09-12T06:28:57.000Z</time>
      </trkpt>
      <trkpt lat="46.41976" lon="4.45305">
        <ele>385.657751</ele>
        <time>2021-09-12T06:29:06.000Z</time>
      </trkpt>
      <trkpt lat="46.4196" lon="4.45312">
        <ele>386.153332</ele>
        <time>2021-09-12T06:29:15.000Z</time>
      </trkpt>
      <trkpt lat="46.41945" lon="4.45323">
        <ele>386.656452</ele>
        <time>2021-09-12T06:29:24.000Z</time>
      </trkpt>
      <trkpt lat="46.41929" lon="4.45343">
        <ele>387.278299</ele>
        <time>2021-09-12T06:29:35.000Z</time>
      </trkpt>
      <trkpt lat="46.41919" lon="4.45359">
        <ele>387.722308</ele>
        <time>2021-09-12T06:29:43.000Z</time>
      </trkpt>
      <trkpt lat="46.41909" lon="4.45377">
        <ele>388.172217</ele>
        <time>2021-09-12T06:29:51.000Z</time>
      </trkpt>
      <trkpt lat="46.41899" lon="4.45397">
        <ele>388.691192</ele>
        <time>2021-09-12T06:29:59.000Z</time>
      </trkpt>
      <trkpt lat="46.41886" lon="4.45422">
        <ele>389.327943</ele>
        <time>2021-09-12T06:30:08.000Z</time>
      </trkpt>
      <trkpt lat="46.41871" lon="4.4545">
        <ele>390.045648</ele>
        <time>2021-09-12T06:30:17.000Z</time>
      </trkpt>
      <trkpt lat="46.41855" lon="4.45481">
        <ele>390.840891</ele>
        <time>2021-09-12T06:30:26.000Z</time>
      </trkpt>
      <trkpt lat="46.41841" lon="4.45508">
        <ele>391.740579</ele>
        <time>2021-09-12T06:30:34.000Z</time>
      </trkpt>
      <trkpt lat="46.41825" lon="4.45539">
        <ele>392.798695</ele>
        <time>2021-09-12T06:30:43.000Z</time>
      </trkpt>
      <trkpt lat="46.41807" lon="4.45575">
        <ele>393.976736</ele>
        <time>2021-09-12T06:30:53.000Z</time>
      </trkpt>
      <trkpt lat="46.41797" lon="4.456">
        <ele>394.791689</ele>
        <time>2021-09-12T06:31:00.000Z</time>
      </trkpt>
      <trkpt lat="46.41789" lon="4.45638">
        <ele>395.85663</ele>
        <time>2021-09-12T06:31:09.000Z</time>
      </trkpt>
      <trkpt lat="46.41779" lon="4.45685">
        <ele>397.191145</ele>
        <time>2021-09-12T06:31:21.000Z</time>
      </trkpt>
      <trkpt lat="46.41774" lon="4.45707">
        <ele>397.830197</ele>
        <time>2021-09-12T06:31:28.000Z</time>
      </trkpt>
      <trkpt lat="46.41767" lon="4.45733">
        <ele>398.807724</ele>
        <time>2021-09-12T06:31:36.000Z</time>
      </trkpt>
      <trkpt lat="46.41761" lon="4.45761">
        <ele>399.920414</ele>
        <time>2021-09-12T06:31:44.000Z</time>
      </trkpt>
      <trkpt lat="46.41756" lon="4.45791">
        <ele>401.108355</ele>
        <time>2021-09-12T06:31:53.000Z</time>
      </trkpt>
      <trkpt lat="46.41753" lon="4.45824">
        <ele>402.371661</ele>
        <time>2021-09-12T06:32:02.000Z</time>
      </trkpt>
      <trkpt lat="46.41749" lon="4.45862">
        <ele>403.835752</ele>
        <time>2021-09-12T06:32:12.000Z</time>
      </trkpt>
      <trkpt lat="46.41745" lon="4.45895">
        <ele>405.124188</ele>
        <time>2021-09-12T06:32:21.000Z</time>
      </trkpt>
      <trkpt lat="46.41741" lon="4.45927">
        <ele>406.353426</ele>
        <time>2021-09-12T06:32:30.000Z</time>
      </trkpt>
      <trkpt lat="46.41737" lon="4.45967">
        <ele>407.899095</ele>
        <time>2021-09-12T06:32:42.000Z</time>
      </trkpt>
      <trkpt lat="46.41734" lon="4.46001">
        <ele>409.272937</ele>
        <time>2021-09-12T06:32:52.000Z</time>
      </trkpt>
      <trkpt lat="46.4173" lon="4.46033">
        <ele>410.558551</ele>
        <time>2021-09-12T06:33:01.000Z</time>
      </trkpt>
      <trkpt lat="46.41728" lon="4.46056">
        <ele>411.517769</ele>
        <time>2021-09-12T06:33:08.000Z</time>
      </trkpt>
      <trkpt lat="46.41725" lon="4.46087">
        <ele>412.745916</ele>
        <time>2021-09-12T06:33:17.000Z</time>
      </trkpt>
      <trkpt lat="46.41722" lon="4.4612">
        <ele>414.1201</ele>
        <time>2021-09-12T06:33:27.000Z</time>
      </trkpt>
      <trkpt lat="46.41719" lon="4.46153">
        <ele>415.429647</ele>
        <time>2021-09-12T06:33:36.000Z</time>
      </trkpt>
      <trkpt lat="46.41716" lon="4.46184">
        <ele>416.706475</ele>
        <time>2021-09-12T06:33:44.000Z</time>
      </trkpt>
      <trkpt lat="46.41712" lon="4.46227">
        <ele>418.438974</ele>
        <time>2021-09-12T06:33:55.000Z</time>
      </trkpt>
      <trkpt lat="46.41709" lon="4.4626">
        <ele>419.584635</ele>
        <time>2021-09-12T06:34:03.000Z</time>
      </trkpt>
      <trkpt lat="46.41706" lon="4.46291">
        <ele>420.638665</ele>
        <time>2021-09-12T06:34:11.000Z</time>
      </trkpt>
      <trkpt lat="46.41703" lon="4.46322">
        <ele>421.686068</ele>
        <time>2021-09-12T06:34:19.000Z</time>
      </trkpt>
      <trkpt lat="46.417" lon="4.4635">
        <ele>422.624753</ele>
        <time>2021-09-12T06:34:26.000Z</time>
      </trkpt>
      <trkpt lat="46.41697" lon="4.46377">
        <ele>423.544892</ele>
        <time>2021-09-12T06:34:33.000Z</time>
      </trkpt>
      <trkpt lat="46.41693" lon="4.46409">
        <ele>424.619012</ele>
        <time>2021-09-12T06:34:41.000Z</time>
      </trkpt>
      <trkpt lat="46.41689" lon="4.46441">
        <ele>425.7129</ele>
        <time>2021-09-12T06:34:50.000Z</time>
      </trkpt>
      <trkpt lat="46.41687" lon="4.46476">
        <ele>426.869537</ele>
        <time>2021-09-12T06:35:00.000Z</time>
      </trkpt>
      <trkpt lat="46.41689" lon="4.46504">
        <ele>427.78076</ele>
        <time>2021-09-12T06:35:08.000Z</time>
      </trkpt>
      <trkpt lat="46.41695" lon="4.46531">
        <ele>428.656443</ele>
        <time>2021-09-12T06:35:15.000Z</time>
      </trkpt>
      <trkpt lat="46.417" lon="4.46555">
        <ele>429.472872</ele>
        <time>2021-09-12T06:35:21.000Z</time>
      </trkpt>
      <trkpt lat="46.41709" lon="4.46599">
        <ele>430.905875</ele>
        <time>2021-09-12T06:35:30.000Z</time>
      </trkpt>
      <trkpt lat="46.41709" lon="4.46634">
        <ele>431.981224</ele>
        <time>2021-09-12T06:35:37.000Z</time>
      </trkpt>
      <trkpt lat="46.41707" lon="4.46659">
        <ele>432.782686</ele>
        <time>2021-09-12T06:35:43.000Z</time>
      </trkpt>
      <trkpt lat="46.41705" lon="4.46685">
        <ele>433.590235</ele>
        <time>2021-09-12T06:35:50.000Z</time>
      </trkpt>
      <trkpt lat="46.41703" lon="4.46714">
        <ele>434.527535</ele>
        <time>2021-09-12T06:35:58.000Z</time>
      </trkpt>
      <trkpt lat="46.417" lon="4.46746">
        <ele>435.553312</ele>
        <time>2021-09-12T06:36:06.000Z</time>
      </trkpt>
      <trkpt lat="46.41699" lon="4.46768">
        <ele>436.420661</ele>
        <time>2021-09-12T06:36:12.000Z</time>
      </trkpt>
      <trkpt lat="46.41695" lon="4.46791">
        <ele>437.346328</ele>
        <time>2021-09-12T06:36:18.000Z</time>
      </trkpt>
      <trkpt lat="46.4169" lon="4.46818">
        <ele>438.412371</ele>
        <time>2021-09-12T06:36:25.000Z</time>
      </trkpt>
      <trkpt lat="46.4168" lon="4.4685">
        <ele>439.771414</ele>
        <time>2021-09-12T06:36:34.000Z</time>
      </trkpt>
      <trkpt lat="46.4167" lon="4.46879">
        <ele>441.038558</ele>
        <time>2021-09-12T06:36:43.000Z</time>
      </trkpt>
      <trkpt lat="46.41663" lon="4.46899">
        <ele>441.926159</ele>
        <time>2021-09-12T06:36:50.000Z</time>
      </trkpt>
      <trkpt lat="46.4166" lon="4.46907">
        <ele>442.241543</ele>
        <time>2021-09-12T06:36:55.000Z</time>
      </trkpt>
      <trkpt lat="46.41658" lon="4.46912">
        <ele>442.492319</ele>
        <time>2021-09-12T06:37:16.000Z</time>
      </trkpt>
      <trkpt lat="46.41656" lon="4.46917">
        <ele>442.711192</ele>
        <time>2021-09-12T06:37:18.000Z</time>
      </trkpt>
      <trkpt lat="46.41648" lon="4.46939">
        <ele>443.669465</ele>
        <time>2021-09-12T06:37:26.000Z</time>
      </trkpt>
      <trkpt lat="46.41641" lon="4.46959">
        <ele>444.531228</ele>
        <time>2021-09-12T06:37:34.000Z</time>
      </trkpt>
      <trkpt lat="46.41639" lon="4.46967">
        <ele>444.878334</ele>
        <time>2021-09-12T06:37:37.000Z</time>
      </trkpt>
      <trkpt lat="46.41637" lon="4.46976">
        <ele>445.243345</ele>
        <time>2021-09-12T06:37:40.000Z</time>
      </trkpt>
      <trkpt lat="46.41633" lon="4.46994">
        <ele>446.053493</ele>
        <time>2021-09-12T06:37:46.000Z</time>
      </trkpt>
      <trkpt lat="46.41629" lon="4.4702">
        <ele>447.29718</ele>
        <time>2021-09-12T06:37:55.000Z</time>
      </trkpt>
      <trkpt lat="46.41626" lon="4.47043">
        <ele>448.418363</ele>
        <time>2021-09-12T06:38:03.000Z</time>
      </trkpt>
      <trkpt lat="46.41624" lon="4.47064">
        <ele>449.416505</ele>
        <time>2021-09-12T06:38:10.000Z</time>
      </trkpt>
      <trkpt lat="46.41622" lon="4.47082">
        <ele>450.230643</ele>
        <time>2021-09-12T06:38:16.000Z</time>
      </trkpt>
      <trkpt lat="46.4162" lon="4.47095">
        <ele>450.86999</ele>
        <time>2021-09-12T06:38:21.000Z</time>
      </trkpt>
      <trkpt lat="46.41618" lon="4.47116">
        <ele>451.839402</ele>
        <time>2021-09-12T06:38:28.000Z</time>
      </trkpt>
      <trkpt lat="46.41616" lon="4.47133">
        <ele>452.681168</ele>
        <time>2021-09-12T06:38:34.000Z</time>
      </trkpt>
      <trkpt lat="46.41613" lon="4.47161">
        <ele>453.992075</ele>
        <time>2021-09-12T06:38:42.000Z</time>
      </trkpt>
      <trkpt lat="46.4161" lon="4.47185">
        <ele>455.113261</ele>
        <time>2021-09-12T06:38:49.000Z</time>
      </trkpt>
      <trkpt lat="46.41608" lon="4.47206">
        <ele>456.09299</ele>
        <time>2021-09-12T06:38:55.000Z</time>
      </trkpt>
      <trkpt lat="46.41605" lon="4.4723">
        <ele>457.26705</ele>
        <time>2021-09-12T06:39:01.000Z</time>
      </trkpt>
      <trkpt lat="46.41601" lon="4.47265">
        <ele>458.290302</ele>
        <time>2021-09-12T06:39:09.000Z</time>
      </trkpt>
      <trkpt lat="46.41595" lon="4.47314">
        <ele>459.433039</ele>
        <time>2021-09-12T06:39:20.000Z</time>
      </trkpt>
      <trkpt lat="46.41591" lon="4.47352">
        <ele>460.308303</ele>
        <time>2021-09-12T06:39:29.000Z</time>
      </trkpt>
      <trkpt lat="46.41586" lon="4.47393">
        <ele>461.260312</ele>
        <time>2021-09-12T06:39:37.000Z</time>
      </trkpt>
      <trkpt lat="46.41581" lon="4.47437">
        <ele>462.281742</ele>
        <time>2021-09-12T06:39:45.000Z</time>
      </trkpt>
      <trkpt lat="46.41577" lon="4.47473">
        <ele>463.124831</ele>
        <time>2021-09-12T06:39:52.000Z</time>
      </trkpt>
      <trkpt lat="46.41572" lon="4.47518">
        <ele>464.202801</ele>
        <time>2021-09-12T06:40:02.000Z</time>
      </trkpt>
      <trkpt lat="46.41568" lon="4.47551">
        <ele>465.037437</ele>
        <time>2021-09-12T06:40:11.000Z</time>
      </trkpt>
      <trkpt lat="46.41565" lon="4.4758">
        <ele>465.761156</ele>
        <time>2021-09-12T06:40:19.000Z</time>
      </trkpt>
      <trkpt lat="46.41562" lon="4.47609">
        <ele>466.48459</ele>
        <time>2021-09-12T06:40:27.000Z</time>
      </trkpt>
      <trkpt lat="46.41558" lon="4.47647">
        <ele>467.456392</ele>
        <time>2021-09-12T06:40:36.000Z</time>
      </trkpt>
      <trkpt lat="46.41554" lon="4.47697">
        <ele>468.717478</ele>
        <time>2021-09-12T06:40:47.000Z</time>
      </trkpt>
      <trkpt lat="46.4155" lon="4.47731">
        <ele>469.571505</ele>
        <time>2021-09-12T06:40:54.000Z</time>
      </trkpt>
      <trkpt lat="46.41546" lon="4.47777">
        <ele>470.642735</ele>
        <time>2021-09-12T06:41:03.000Z</time>
      </trkpt>
      <trkpt lat="46.41541" lon="4.47819">
        <ele>471.585556</ele>
        <time>2021-09-12T06:41:11.000Z</time>
      </trkpt>
      <trkpt lat="46.41533" lon="4.47857">
        <ele>472.449919</ele>
        <time>2021-09-12T06:41:18.000Z</time>
      </trkpt>
      <trkpt lat="46.41524" lon="4.47886">
        <ele>473.150371</ele>
        <time>2021-09-12T06:41:25.000Z</time>
      </trkpt>
      <trkpt lat="46.41508" lon="4.47909">
        <ele>473.867527</ele>
        <time>2021-09-12T06:41:33.000Z</time>
      </trkpt>
      <trkpt lat="46.41487" lon="4.47928">
        <ele>474.635305</ele>
        <time>2021-09-12T06:41:41.000Z</time>
      </trkpt>
      <trkpt lat="46.41457" lon="4.47952">
        <ele>475.727111</ele>
        <time>2021-09-12T06:41:52.000Z</time>
      </trkpt>
      <trkpt lat="46.41432" lon="4.47971">
        <ele>476.804752</ele>
        <time>2021-09-12T06:42:01.000Z</time>
      </trkpt>
      <trkpt lat="46.41413" lon="4.47987">
        <ele>477.658814</ele>
        <time>2021-09-12T06:42:09.000Z</time>
      </trkpt>
      <trkpt lat="46.41399" lon="4.47997">
        <ele>478.264289</ele>
        <time>2021-09-12T06:42:16.000Z</time>
      </trkpt>
      <trkpt lat="46.41386" lon="4.48008">
        <ele>478.847592</ele>
        <time>2021-09-12T06:42:23.000Z</time>
      </trkpt>
      <trkpt lat="46.4137" lon="4.4802">
        <ele>479.537066</ele>
        <time>2021-09-12T06:42:32.000Z</time>
      </trkpt>
      <trkpt lat="46.41356" lon="4.48032">
        <ele>480.192863</ele>
        <time>2021-09-12T06:42:39.000Z</time>
      </trkpt>
      <trkpt lat="46.41335" lon="4.48048">
        <ele>481.087867</ele>
        <time>2021-09-12T06:42:49.000Z</time>
      </trkpt>
      <trkpt lat="46.41317" lon="4.48062">
        <ele>481.884092</ele>
        <time>2021-09-12T06:42:55.000Z</time>
      </trkpt>
      <trkpt lat="46.41313" lon="4.48065">
        <ele>482.055511</ele>
        <time>2021-09-12T06:42:56.000Z</time>
      </trkpt>
      <trkpt lat="46.41292" lon="4.48081">
        <ele>482.839353</ele>
        <time>2021-09-12T06:43:01.000Z</time>
      </trkpt>
      <trkpt lat="46.41246" lon="4.48116">
        <ele>482.717411</ele>
        <time>2021-09-12T06:43:11.000Z</time>
      </trkpt>
      <trkpt lat="46.41216" lon="4.48138">
        <ele>482.638274</ele>
        <time>2021-09-12T06:43:16.000Z</time>
      </trkpt>
      <trkpt lat="46.41179" lon="4.48166">
        <ele>482.541839</ele>
        <time>2021-09-12T06:43:21.000Z</time>
      </trkpt>
      <trkpt lat="46.41133" lon="4.48201">
        <ele>482.370694</ele>
        <time>2021-09-12T06:43:27.000Z</time>
      </trkpt>
      <trkpt lat="46.41082" lon="4.48239">
        <ele>481.43263</ele>
        <time>2021-09-12T06:43:33.000Z</time>
      </trkpt>
      <trkpt lat="46.41073" lon="4.48246">
        <ele>481.275191</ele>
        <time>2021-09-12T06:43:34.000Z</time>
      </trkpt>
      <trkpt lat="46.41022" lon="4.48285">
        <ele>480.322368</ele>
        <time>2021-09-12T06:43:40.000Z</time>
      </trkpt>
      <trkpt lat="46.40995" lon="4.48305">
        <ele>479.832914</ele>
        <time>2021-09-12T06:43:43.000Z</time>
      </trkpt>
      <trkpt lat="46.40952" lon="4.48337">
        <ele>478.480424</ele>
        <time>2021-09-12T06:43:48.000Z</time>
      </trkpt>
      <trkpt lat="46.40908" lon="4.48371">
        <ele>476.593159</ele>
        <time>2021-09-12T06:43:54.000Z</time>
      </trkpt>
      <trkpt lat="46.40879" lon="4.48401">
        <ele>475.264683</ele>
        <time>2021-09-12T06:43:59.000Z</time>
      </trkpt>
      <trkpt lat="46.40871" lon="4.48417">
        <ele>474.724999</ele>
        <time>2021-09-12T06:44:03.000Z</time>
      </trkpt>
      <trkpt lat="46.40869" lon="4.48422">
        <ele>474.60489</ele>
        <time>2021-09-12T06:44:07.000Z</time>
      </trkpt>
      <trkpt lat="46.40868" lon="4.48427">
        <ele>474.455086</ele>
        <time>2021-09-12T06:44:36.000Z</time>
      </trkpt>
      <trkpt lat="46.40867" lon="4.48434">
        <ele>474.260776</ele>
        <time>2021-09-12T06:44:38.000Z</time>
      </trkpt>
      <trkpt lat="46.40864" lon="4.48456">
        <ele>473.688282</ele>
        <time>2021-09-12T06:44:42.000Z</time>
      </trkpt>
      <trkpt lat="46.40865" lon="4.48463">
        <ele>473.522403</ele>
        <time>2021-09-12T06:44:43.000Z</time>
      </trkpt>
      <trkpt lat="46.40865" lon="4.48477">
        <ele>473.151975</ele>
        <time>2021-09-12T06:44:45.000Z</time>
      </trkpt>
      <trkpt lat="46.40866" lon="4.48502">
        <ele>472.530022</ele>
        <time>2021-09-12T06:44:48.000Z</time>
      </trkpt>
      <trkpt lat="46.40864" lon="4.48559">
        <ele>471.162658</ele>
        <time>2021-09-12T06:44:54.000Z</time>
      </trkpt>
      <trkpt lat="46.40857" lon="4.48605">
        <ele>470.061738</ele>
        <time>2021-09-12T06:44:58.000Z</time>
      </trkpt>
      <trkpt lat="46.40854" lon="4.48617">
        <ele>469.754571</ele>
        <time>2021-09-12T06:44:59.000Z</time>
      </trkpt>
      <trkpt lat="46.40837" lon="4.48664">
        <ele>468.511168</ele>
        <time>2021-09-12T06:45:03.000Z</time>
      </trkpt>
      <trkpt lat="46.40822" lon="4.48711">
        <ele>467.259265</ele>
        <time>2021-09-12T06:45:07.000Z</time>
      </trkpt>
      <trkpt lat="46.40818" lon="4.48724">
        <ele>466.924414</ele>
        <time>2021-09-12T06:45:08.000Z</time>
      </trkpt>
      <trkpt lat="46.40817" lon="4.48739">
        <ele>466.576174</ele>
        <time>2021-09-12T06:45:09.000Z</time>
      </trkpt>
      <trkpt lat="46.40815" lon="4.48786">
        <ele>465.203085</ele>
        <time>2021-09-12T06:45:12.000Z</time>
      </trkpt>
      <trkpt lat="46.40825" lon="4.48852">
        <ele>463.189775</ele>
        <time>2021-09-12T06:45:16.000Z</time>
      </trkpt>
      <trkpt lat="46.4084" lon="4.48917">
        <ele>461.157576</ele>
        <time>2021-09-12T06:45:20.000Z</time>
      </trkpt>
      <trkpt lat="46.40855" lon="4.48945">
        <ele>460.10936</ele>
        <time>2021-09-12T06:45:22.000Z</time>
      </trkpt>
      <trkpt lat="46.40863" lon="4.48959">
        <ele>459.575656</ele>
        <time>2021-09-12T06:45:23.000Z</time>
      </trkpt>
      <trkpt lat="46.4087" lon="4.48974">
        <ele>459.040374</ele>
        <time>2021-09-12T06:45:24.000Z</time>
      </trkpt>
      <trkpt lat="46.40875" lon="4.49007">
        <ele>457.956139</ele>
        <time>2021-09-12T06:45:26.000Z</time>
      </trkpt>
      <trkpt lat="46.40876" lon="4.49056">
        <ele>456.359051</ele>
        <time>2021-09-12T06:45:29.000Z</time>
      </trkpt>
      <trkpt lat="46.40872" lon="4.4912">
        <ele>454.285861</ele>
        <time>2021-09-12T06:45:33.000Z</time>
      </trkpt>
      <trkpt lat="46.40862" lon="4.49199">
        <ele>451.662008</ele>
        <time>2021-09-12T06:45:38.000Z</time>
      </trkpt>
      <trkpt lat="46.40858" lon="4.49231">
        <ele>450.598689</ele>
        <time>2021-09-12T06:45:40.000Z</time>
      </trkpt>
      <trkpt lat="46.4085" lon="4.49263">
        <ele>449.413228</ele>
        <time>2021-09-12T06:45:42.000Z</time>
      </trkpt>
      <trkpt lat="46.40845" lon="4.49278">
        <ele>448.800666</ele>
        <time>2021-09-12T06:45:43.000Z</time>
      </trkpt>
      <trkpt lat="46.40838" lon="4.49292">
        <ele>448.173279</ele>
        <time>2021-09-12T06:45:44.000Z</time>
      </trkpt>
      <trkpt lat="46.40821" lon="4.49315">
        <ele>446.927737</ele>
        <time>2021-09-12T06:45:46.000Z</time>
      </trkpt>
      <trkpt lat="46.40781" lon="4.4937">
        <ele>444.000067</ele>
        <time>2021-09-12T06:45:51.000Z</time>
      </trkpt>
      <trkpt lat="46.40773" lon="4.49381">
        <ele>443.422895</ele>
        <time>2021-09-12T06:45:52.000Z</time>
      </trkpt>
      <trkpt lat="46.40734" lon="4.49439">
        <ele>440.410798</ele>
        <time>2021-09-12T06:45:57.000Z</time>
      </trkpt>
      <trkpt lat="46.40718" lon="4.49464">
        <ele>439.075852</ele>
        <time>2021-09-12T06:45:59.000Z</time>
      </trkpt>
      <trkpt lat="46.40679" lon="4.49525">
        <ele>435.781641</ele>
        <time>2021-09-12T06:46:04.000Z</time>
      </trkpt>
      <trkpt lat="46.40663" lon="4.4955">
        <ele>434.457384</ele>
        <time>2021-09-12T06:46:06.000Z</time>
      </trkpt>
      <trkpt lat="46.40638" lon="4.49608">
        <ele>431.743623</ele>
        <time>2021-09-12T06:46:10.000Z</time>
      </trkpt>
      <trkpt lat="46.4061" lon="4.49694">
        <ele>427.835062</ele>
        <time>2021-09-12T06:46:15.000Z</time>
      </trkpt>
      <trkpt lat="46.40605" lon="4.49712">
        <ele>427.023373</ele>
        <time>2021-09-12T06:46:16.000Z</time>
      </trkpt>
      <trkpt lat="46.40578" lon="4.498">
        <ele>422.942052</ele>
        <time>2021-09-12T06:46:21.000Z</time>
      </trkpt>
      <trkpt lat="46.40562" lon="4.4985">
        <ele>420.652514</ele>
        <time>2021-09-12T06:46:24.000Z</time>
      </trkpt>
      <trkpt lat="46.40538" lon="4.49925">
        <ele>417.125671</ele>
        <time>2021-09-12T06:46:29.000Z</time>
      </trkpt>
      <trkpt lat="46.40529" lon="4.49955">
        <ele>415.755066</ele>
        <time>2021-09-12T06:46:32.000Z</time>
      </trkpt>
      <trkpt lat="46.40506" lon="4.50027">
        <ele>412.3741</ele>
        <time>2021-09-12T06:46:37.000Z</time>
      </trkpt>
      <trkpt lat="46.40492" lon="4.50072">
        <ele>410.313719</ele>
        <time>2021-09-12T06:46:40.000Z</time>
      </trkpt>
      <trkpt lat="46.4047" lon="4.50144">
        <ele>406.96112</ele>
        <time>2021-09-12T06:46:45.000Z</time>
      </trkpt>
      <trkpt lat="46.40452" lon="4.50199">
        <ele>404.414301</ele>
        <time>2021-09-12T06:46:49.000Z</time>
      </trkpt>
      <trkpt lat="46.40428" lon="4.50275">
        <ele>400.884043</ele>
        <time>2021-09-12T06:46:55.000Z</time>
      </trkpt>
      <trkpt lat="46.40424" lon="4.50287">
        <ele>400.337016</ele>
        <time>2021-09-12T06:46:56.000Z</time>
      </trkpt>
      <trkpt lat="46.40404" lon="4.5035">
        <ele>397.442727</ele>
        <time>2021-09-12T06:47:02.000Z</time>
      </trkpt>
      <trkpt lat="46.40399" lon="4.50366">
        <ele>396.686151</ele>
        <time>2021-09-12T06:47:04.000Z</time>
      </trkpt>
      <trkpt lat="46.40394" lon="4.5038">
        <ele>396.039278</ele>
        <time>2021-09-12T06:47:06.000Z</time>
      </trkpt>
      <trkpt lat="46.40386" lon="4.50407">
        <ele>394.806812</ele>
        <time>2021-09-12T06:47:11.000Z</time>
      </trkpt>
      <trkpt lat="46.40377" lon="4.50433">
        <ele>393.599859</ele>
        <time>2021-09-12T06:47:17.000Z</time>
      </trkpt>
      <trkpt lat="46.40367" lon="4.50466">
        <ele>392.044596</ele>
        <time>2021-09-12T06:47:25.000Z</time>
      </trkpt>
      <trkpt lat="46.40362" lon="4.50496">
        <ele>390.762043</ele>
        <time>2021-09-12T06:47:32.000Z</time>
      </trkpt>
      <trkpt lat="46.40364" lon="4.50523">
        <ele>389.59777</ele>
        <time>2021-09-12T06:47:39.000Z</time>
      </trkpt>
      <trkpt lat="46.4037" lon="4.50554">
        <ele>388.237335</ele>
        <time>2021-09-12T06:47:47.000Z</time>
      </trkpt>
      <trkpt lat="46.40376" lon="4.50584">
        <ele>386.942692</ele>
        <time>2021-09-12T06:47:55.000Z</time>
      </trkpt>
      <trkpt lat="46.40383" lon="4.50618">
        <ele>386.515031</ele>
        <time>2021-09-12T06:48:05.000Z</time>
      </trkpt>
      <trkpt lat="46.40389" lon="4.50644">
        <ele>386.518804</ele>
        <time>2021-09-12T06:48:13.000Z</time>
      </trkpt>
      <trkpt lat="46.40392" lon="4.50661">
        <ele>386.521336</ele>
        <time>2021-09-12T06:48:19.000Z</time>
      </trkpt>
      <trkpt lat="46.40397" lon="4.50682">
        <ele>386.524336</ele>
        <time>2021-09-12T06:48:27.000Z</time>
      </trkpt>
      <trkpt lat="46.40403" lon="4.50701">
        <ele>386.527285</ele>
        <time>2021-09-12T06:48:35.000Z</time>
      </trkpt>
      <trkpt lat="46.4041" lon="4.5072">
        <ele>386.530356</ele>
        <time>2021-09-12T06:48:43.000Z</time>
      </trkpt>
      <trkpt lat="46.40418" lon="4.50738">
        <ele>386.533186</ele>
        <time>2021-09-12T06:48:50.000Z</time>
      </trkpt>
      <trkpt lat="46.40426" lon="4.50755">
        <ele>386.536138</ele>
        <time>2021-09-12T06:48:56.000Z</time>
      </trkpt>
      <trkpt lat="46.4044" lon="4.5078">
        <ele>386.540703</ele>
        <time>2021-09-12T06:49:04.000Z</time>
      </trkpt>
      <trkpt lat="46.40458" lon="4.5081">
        <ele>386.546179</ele>
        <time>2021-09-12T06:49:13.000Z</time>
      </trkpt>
      <trkpt lat="46.40475" lon="4.5084">
        <ele>386.828409</ele>
        <time>2021-09-12T06:49:22.000Z</time>
      </trkpt>
      <trkpt lat="46.40494" lon="4.50873">
        <ele>387.273218</ele>
        <time>2021-09-12T06:49:31.000Z</time>
      </trkpt>
      <trkpt lat="46.40516" lon="4.50913">
        <ele>387.803202</ele>
        <time>2021-09-12T06:49:41.000Z</time>
      </trkpt>
      <trkpt lat="46.40536" lon="4.50947">
        <ele>388.273834</ele>
        <time>2021-09-12T06:49:49.000Z</time>
      </trkpt>
      <trkpt lat="46.40545" lon="4.50962">
        <ele>388.474343</ele>
        <time>2021-09-12T06:49:52.000Z</time>
      </trkpt>
      <trkpt lat="46.40554" lon="4.50984">
        <ele>388.746994</ele>
        <time>2021-09-12T06:49:56.000Z</time>
      </trkpt>
      <trkpt lat="46.4056" lon="4.51002">
        <ele>388.94848</ele>
        <time>2021-09-12T06:49:59.000Z</time>
      </trkpt>
      <trkpt lat="46.40563" lon="4.51019">
        <ele>389.137163</ele>
        <time>2021-09-12T06:50:02.000Z</time>
      </trkpt>
      <trkpt lat="46.40568" lon="4.51064">
        <ele>389.602341</ele>
        <time>2021-09-12T06:50:10.000Z</time>
      </trkpt>
      <trkpt lat="46.40563" lon="4.51105">
        <ele>390.035401</ele>
        <time>2021-09-12T06:50:18.000Z</time>
      </trkpt>
      <trkpt lat="46.40555" lon="4.51134">
        <ele>390.355318</ele>
        <time>2021-09-12T06:50:24.000Z</time>
      </trkpt>
      <trkpt lat="46.40541" lon="4.51174">
        <ele>390.82385</ele>
        <time>2021-09-12T06:50:31.000Z</time>
      </trkpt>
      <trkpt lat="46.40518" lon="4.5124">
        <ele>391.584189</ele>
        <time>2021-09-12T06:50:40.000Z</time>
      </trkpt>
      <trkpt lat="46.405" lon="4.51294">
        <ele>392.401779</ele>
        <time>2021-09-12T06:50:48.000Z</time>
      </trkpt>
      <trkpt lat="46.40491" lon="4.5132">
        <ele>392.95807</ele>
        <time>2021-09-12T06:50:54.000Z</time>
      </trkpt>
      <trkpt lat="46.40481" lon="4.51349">
        <ele>393.559633</ele>
        <time>2021-09-12T06:51:03.000Z</time>
      </trkpt>
      <trkpt lat="46.40471" lon="4.51378">
        <ele>394.157853</ele>
        <time>2021-09-12T06:51:12.000Z</time>
      </trkpt>
      <trkpt lat="46.40464" lon="4.51399">
        <ele>394.608725</ele>
        <time>2021-09-12T06:51:19.000Z</time>
      </trkpt>
      <trkpt lat="46.40453" lon="4.51432">
        <ele>395.283034</ele>
        <time>2021-09-12T06:51:28.000Z</time>
      </trkpt>
      <trkpt lat="46.4044" lon="4.51473">
        <ele>396.136821</ele>
        <time>2021-09-12T06:51:37.000Z</time>
      </trkpt>
      <trkpt lat="46.40428" lon="4.51511">
        <ele>396.925954</ele>
        <time>2021-09-12T06:51:44.000Z</time>
      </trkpt>
      <trkpt lat="46.40412" lon="4.5156">
        <ele>397.97686</ele>
        <time>2021-09-12T06:51:52.000Z</time>
      </trkpt>
      <trkpt lat="46.40398" lon="4.51605">
        <ele>398.965809</ele>
        <time>2021-09-12T06:52:00.000Z</time>
      </trkpt>
      <trkpt lat="46.40381" lon="4.51659">
        <ele>400.146668</ele>
        <time>2021-09-12T06:52:10.000Z</time>
      </trkpt>
      <trkpt lat="46.40369" lon="4.51694">
        <ele>400.923908</ele>
        <time>2021-09-12T06:52:18.000Z</time>
      </trkpt>
      <trkpt lat="46.40361" lon="4.5172">
        <ele>401.497218</ele>
        <time>2021-09-12T06:52:25.000Z</time>
      </trkpt>
      <trkpt lat="46.40351" lon="4.51749">
        <ele>402.222998</ele>
        <time>2021-09-12T06:52:34.000Z</time>
      </trkpt>
      <trkpt lat="46.40343" lon="4.51776">
        <ele>403.174752</ele>
        <time>2021-09-12T06:52:43.000Z</time>
      </trkpt>
      <trkpt lat="46.40335" lon="4.51798">
        <ele>403.963081</ele>
        <time>2021-09-12T06:52:52.000Z</time>
      </trkpt>
      <trkpt lat="46.40328" lon="4.51822">
        <ele>404.833591</ele>
        <time>2021-09-12T06:53:02.000Z</time>
      </trkpt>
      <trkpt lat="46.40322" lon="4.51838">
        <ele>405.411959</ele>
        <time>2021-09-12T06:53:08.000Z</time>
      </trkpt>
      <trkpt lat="46.40316" lon="4.51857">
        <ele>406.105195</ele>
        <time>2021-09-12T06:53:15.000Z</time>
      </trkpt>
      <trkpt lat="46.40308" lon="4.51882">
        <ele>407.004401</ele>
        <time>2021-09-12T06:53:23.000Z</time>
      </trkpt>
      <trkpt lat="46.40299" lon="4.51914">
        <ele>408.138721</ele>
        <time>2021-09-12T06:53:32.000Z</time>
      </trkpt>
      <trkpt lat="46.40291" lon="4.51951">
        <ele>409.398543</ele>
        <time>2021-09-12T06:53:40.000Z</time>
      </trkpt>
      <trkpt lat="46.40284" lon="4.51983">
        <ele>410.494859</ele>
        <time>2021-09-12T06:53:46.000Z</time>
      </trkpt>
      <trkpt lat="46.40273" lon="4.52034">
        <ele>410.661096</ele>
        <time>2021-09-12T06:53:55.000Z</time>
      </trkpt>
      <trkpt lat="46.4027" lon="4.52054">
        <ele>410.707654</ele>
        <time>2021-09-12T06:53:58.000Z</time>
      </trkpt>
      <trkpt lat="46.40265" lon="4.52077">
        <ele>410.762215</ele>
        <time>2021-09-12T06:54:01.000Z</time>
      </trkpt>
      <trkpt lat="46.40256" lon="4.52127">
        <ele>410.880441</ele>
        <time>2021-09-12T06:54:06.000Z</time>
      </trkpt>
      <trkpt lat="46.40244" lon="4.52193">
        <ele>411.03551</ele>
        <time>2021-09-12T06:54:11.000Z</time>
      </trkpt>
      <trkpt lat="46.40229" lon="4.52279">
        <ele>410.697245</ele>
        <time>2021-09-12T06:54:17.000Z</time>
      </trkpt>
      <trkpt lat="46.40217" lon="4.52342">
        <ele>410.051745</ele>
        <time>2021-09-12T06:54:22.000Z</time>
      </trkpt>
      <trkpt lat="46.40206" lon="4.52423">
        <ele>409.236872</ele>
        <time>2021-09-12T06:54:29.000Z</time>
      </trkpt>
      <trkpt lat="46.40207" lon="4.52481">
        <ele>408.668717</ele>
        <time>2021-09-12T06:54:34.000Z</time>
      </trkpt>
      <trkpt lat="46.40208" lon="4.52533">
        <ele>408.241188</ele>
        <time>2021-09-12T06:54:39.000Z</time>
      </trkpt>
      <trkpt lat="46.40208" lon="4.52552">
        <ele>408.094316</ele>
        <time>2021-09-12T06:54:41.000Z</time>
      </trkpt>
      <trkpt lat="46.40205" lon="4.52581">
        <ele>407.866158</ele>
        <time>2021-09-12T06:54:44.000Z</time>
      </trkpt>
      <trkpt lat="46.40201" lon="4.52649">
        <ele>407.338306</ele>
        <time>2021-09-12T06:54:50.000Z</time>
      </trkpt>
      <trkpt lat="46.40216" lon="4.5269">
        <ele>406.978741</ele>
        <time>2021-09-12T06:54:54.000Z</time>
      </trkpt>
      <trkpt lat="46.40239" lon="4.52745">
        <ele>406.521454</ele>
        <time>2021-09-12T06:55:00.000Z</time>
      </trkpt>
      <trkpt lat="46.40258" lon="4.52791">
        <ele>406.374738</ele>
        <time>2021-09-12T06:55:06.000Z</time>
      </trkpt>
      <trkpt lat="46.40274" lon="4.52832">
        <ele>406.244411</ele>
        <time>2021-09-12T06:55:13.000Z</time>
      </trkpt>
      <trkpt lat="46.40289" lon="4.52872">
        <ele>406.120428</ele>
        <time>2021-09-12T06:55:21.000Z</time>
      </trkpt>
      <trkpt lat="46.4031" lon="4.52904">
        <ele>405.999981</ele>
        <time>2021-09-12T06:55:28.000Z</time>
      </trkpt>
      <trkpt lat="46.40334" lon="4.52935">
        <ele>405.872621</ele>
        <time>2021-09-12T06:55:35.000Z</time>
      </trkpt>
      <trkpt lat="46.40346" lon="4.52951">
        <ele>405.840524</ele>
        <time>2021-09-12T06:55:38.000Z</time>
      </trkpt>
      <trkpt lat="46.40354" lon="4.52962">
        <ele>405.86684</ele>
        <time>2021-09-12T06:55:40.000Z</time>
      </trkpt>
      <trkpt lat="46.40385" lon="4.53002">
        <ele>405.958564</ele>
        <time>2021-09-12T06:55:46.000Z</time>
      </trkpt>
      <trkpt lat="46.40423" lon="4.53052">
        <ele>406.072611</ele>
        <time>2021-09-12T06:55:53.000Z</time>
      </trkpt>
      <trkpt lat="46.40451" lon="4.53089">
        <ele>406.156084</ele>
        <time>2021-09-12T06:55:59.000Z</time>
      </trkpt>
      <trkpt lat="46.40466" lon="4.53109">
        <ele>406.201679</ele>
        <time>2021-09-12T06:56:04.000Z</time>
      </trkpt>
      <trkpt lat="46.40477" lon="4.53124">
        <ele>406.362199</ele>
        <time>2021-09-12T06:56:10.000Z</time>
      </trkpt>
      <trkpt lat="46.40488" lon="4.53139">
        <ele>407.122802</ele>
        <time>2021-09-12T06:56:18.000Z</time>
      </trkpt>
      <trkpt lat="46.40499" lon="4.53153">
        <ele>407.804551</ele>
        <time>2021-09-12T06:56:26.000Z</time>
      </trkpt>
      <trkpt lat="46.40509" lon="4.53168">
        <ele>408.509525</ele>
        <time>2021-09-12T06:56:35.000Z</time>
      </trkpt>
      <trkpt lat="46.4052" lon="4.53181">
        <ele>409.19132</ele>
        <time>2021-09-12T06:56:44.000Z</time>
      </trkpt>
      <trkpt lat="46.40528" lon="4.53192">
        <ele>409.729358</ele>
        <time>2021-09-12T06:56:51.000Z</time>
      </trkpt>
      <trkpt lat="46.40538" lon="4.53204">
        <ele>410.352043</ele>
        <time>2021-09-12T06:56:59.000Z</time>
      </trkpt>
      <trkpt lat="46.40547" lon="4.53216">
        <ele>410.944856</ele>
        <time>2021-09-12T06:57:06.000Z</time>
      </trkpt>
      <trkpt lat="46.40558" lon="4.53233">
        <ele>411.712416</ele>
        <time>2021-09-12T06:57:15.000Z</time>
      </trkpt>
      <trkpt lat="46.40566" lon="4.53249">
        <ele>412.364477</ele>
        <time>2021-09-12T06:57:22.000Z</time>
      </trkpt>
      <trkpt lat="46.40576" lon="4.53271">
        <ele>413.25435</ele>
        <time>2021-09-12T06:57:31.000Z</time>
      </trkpt>
      <trkpt lat="46.40585" lon="4.5329">
        <ele>414.050851</ele>
        <time>2021-09-12T06:57:39.000Z</time>
      </trkpt>
      <trkpt lat="46.40596" lon="4.53312">
        <ele>414.929785</ele>
        <time>2021-09-12T06:57:48.000Z</time>
      </trkpt>
      <trkpt lat="46.40602" lon="4.53328">
        <ele>415.438423</ele>
        <time>2021-09-12T06:57:54.000Z</time>
      </trkpt>
      <trkpt lat="46.40613" lon="4.53356">
        <ele>416.330552</ele>
        <time>2021-09-12T06:58:05.000Z</time>
      </trkpt>
      <trkpt lat="46.40617" lon="4.53367">
        <ele>416.660393</ele>
        <time>2021-09-12T06:58:09.000Z</time>
      </trkpt>
      <trkpt lat="46.40617" lon="4.53369">
        <ele>416.73622</ele>
        <time>2021-09-12T06:58:10.000Z</time>
      </trkpt>
      <trkpt lat="46.40621" lon="4.53385">
        <ele>417.187241</ele>
        <time>2021-09-12T06:58:15.000Z</time>
      </trkpt>
      <trkpt lat="46.40624" lon="4.53406">
        <ele>417.774941</ele>
        <time>2021-09-12T06:58:20.000Z</time>
      </trkpt>
      <trkpt lat="46.40625" lon="4.53435">
        <ele>418.596685</ele>
        <time>2021-09-12T06:58:26.000Z</time>
      </trkpt>
      <trkpt lat="46.4062" lon="4.53476">
        <ele>419.745466</ele>
        <time>2021-09-12T06:58:34.000Z</time>
      </trkpt>
      <trkpt lat="46.40611" lon="4.53524">
        <ele>421.100997</ele>
        <time>2021-09-12T06:58:42.000Z</time>
      </trkpt>
      <trkpt lat="46.40604" lon="4.53562">
        <ele>422.21812</ele>
        <time>2021-09-12T06:58:50.000Z</time>
      </trkpt>
      <trkpt lat="46.406" lon="4.53587">
        <ele>423.247198</ele>
        <time>2021-09-12T06:58:57.000Z</time>
      </trkpt>
      <trkpt lat="46.40596" lon="4.53606">
        <ele>424.033774</ele>
        <time>2021-09-12T06:59:03.000Z</time>
      </trkpt>
      <trkpt lat="46.40591" lon="4.53637">
        <ele>425.313042</ele>
        <time>2021-09-12T06:59:13.000Z</time>
      </trkpt>
      <trkpt lat="46.40585" lon="4.53668">
        <ele>426.554853</ele>
        <time>2021-09-12T06:59:23.000Z</time>
      </trkpt>
      <trkpt lat="46.40581" lon="4.53694">
        <ele>427.625235</ele>
        <time>2021-09-12T06:59:32.000Z</time>
      </trkpt>
      <trkpt lat="46.40576" lon="4.53718">
        <ele>428.615441</ele>
        <time>2021-09-12T06:59:40.000Z</time>
      </trkpt>
      <trkpt lat="46.40571" lon="4.5375">
        <ele>429.907263</ele>
        <time>2021-09-12T06:59:50.000Z</time>
      </trkpt>
      <trkpt lat="46.40567" lon="4.53778">
        <ele>431.040746</ele>
        <time>2021-09-12T06:59:59.000Z</time>
      </trkpt>
      <trkpt lat="46.40564" lon="4.53801">
        <ele>432.007927</ele>
        <time>2021-09-12T07:00:07.000Z</time>
      </trkpt>
      <trkpt lat="46.40562" lon="4.53826">
        <ele>432.837691</ele>
        <time>2021-09-12T07:00:15.000Z</time>
      </trkpt>
      <trkpt lat="46.40561" lon="4.53856">
        <ele>433.648457</ele>
        <time>2021-09-12T07:00:24.000Z</time>
      </trkpt>
      <trkpt lat="46.4056" lon="4.53874">
        <ele>434.122763</ele>
        <time>2021-09-12T07:00:30.000Z</time>
      </trkpt>
      <trkpt lat="46.40559" lon="4.53902">
        <ele>434.884982</ele>
        <time>2021-09-12T07:00:38.000Z</time>
      </trkpt>
      <trkpt lat="46.40558" lon="4.53935">
        <ele>435.773827</ele>
        <time>2021-09-12T07:00:47.000Z</time>
      </trkpt>
      <trkpt lat="46.40556" lon="4.53976">
        <ele>436.867607</ele>
        <time>2021-09-12T07:00:56.000Z</time>
      </trkpt>
      <trkpt lat="46.40554" lon="4.5402">
        <ele>438.066308</ele>
        <time>2021-09-12T07:01:04.000Z</time>
      </trkpt>
      <trkpt lat="46.40552" lon="4.5408">
        <ele>439.711232</ele>
        <time>2021-09-12T07:01:14.000Z</time>
      </trkpt>
      <trkpt lat="46.4055" lon="4.54133">
        <ele>441.479007</ele>
        <time>2021-09-12T07:01:23.000Z</time>
      </trkpt>
      <trkpt lat="46.40547" lon="4.54184">
        <ele>443.177047</ele>
        <time>2021-09-12T07:01:33.000Z</time>
      </trkpt>
      <trkpt lat="46.40546" lon="4.54217">
        <ele>444.281184</ele>
        <time>2021-09-12T07:01:41.000Z</time>
      </trkpt>
      <trkpt lat="46.40545" lon="4.54243">
        <ele>445.167653</ele>
        <time>2021-09-12T07:01:49.000Z</time>
      </trkpt>
      <trkpt lat="46.40544" lon="4.54268">
        <ele>446.007886</ele>
        <time>2021-09-12T07:01:57.000Z</time>
      </trkpt>
      <trkpt lat="46.40543" lon="4.54291">
        <ele>446.781401</ele>
        <time>2021-09-12T07:02:05.000Z</time>
      </trkpt>
      <trkpt lat="46.40543" lon="4.54312">
        <ele>447.484284</ele>
        <time>2021-09-12T07:02:13.000Z</time>
      </trkpt>
      <trkpt lat="46.40541" lon="4.54341">
        <ele>448.601486</ele>
        <time>2021-09-12T07:02:25.000Z</time>
      </trkpt>
      <trkpt lat="46.40541" lon="4.54361">
        <ele>449.721225</ele>
        <time>2021-09-12T07:02:34.000Z</time>
      </trkpt>
      <trkpt lat="46.4054" lon="4.54378">
        <ele>450.645766</ele>
        <time>2021-09-12T07:02:41.000Z</time>
      </trkpt>
      <trkpt lat="46.40539" lon="4.54397">
        <ele>451.720617</ele>
        <time>2021-09-12T07:02:49.000Z</time>
      </trkpt>
      <trkpt lat="46.40538" lon="4.54418">
        <ele>452.906934</ele>
        <time>2021-09-12T07:02:57.000Z</time>
      </trkpt>
      <trkpt lat="46.40537" lon="4.54442">
        <ele>454.209795</ele>
        <time>2021-09-12T07:03:06.000Z</time>
      </trkpt>
      <trkpt lat="46.40536" lon="4.5446">
        <ele>455.246934</ele>
        <time>2021-09-12T07:03:13.000Z</time>
      </trkpt>
      <trkpt lat="46.40535" lon="4.5449">
        <ele>456.880245</ele>
        <time>2021-09-12T07:03:24.000Z</time>
      </trkpt>
      <trkpt lat="46.40533" lon="4.54514">
        <ele>458.229635</ele>
        <time>2021-09-12T07:03:33.000Z</time>
      </trkpt>
      <trkpt lat="46.40532" lon="4.54537">
        <ele>459.495905</ele>
        <time>2021-09-12T07:03:41.000Z</time>
      </trkpt>
      <trkpt lat="46.40531" lon="4.54565">
        <ele>461.068242</ele>
        <time>2021-09-12T07:03:51.000Z</time>
      </trkpt>
      <trkpt lat="46.4053" lon="4.54583">
        <ele>462.086364</ele>
        <time>2021-09-12T07:03:58.000Z</time>
      </trkpt>
      <trkpt lat="46.4053" lon="4.54598">
        <ele>462.838564</ele>
        <time>2021-09-12T07:04:04.000Z</time>
      </trkpt>
      <trkpt lat="46.40526" lon="4.5462">
        <ele>463.676172</ele>
        <time>2021-09-12T07:04:14.000Z</time>
      </trkpt>
      <trkpt lat="46.4052" lon="4.54636">
        <ele>464.314444</ele>
        <time>2021-09-12T07:04:22.000Z</time>
      </trkpt>
      <trkpt lat="46.40511" lon="4.54651">
        <ele>465.040801</ele>
        <time>2021-09-12T07:04:30.000Z</time>
      </trkpt>
      <trkpt lat="46.40498" lon="4.54665">
        <ele>465.887348</ele>
        <time>2021-09-12T07:04:37.000Z</time>
      </trkpt>
      <trkpt lat="46.40478" lon="4.54681">
        <ele>467.078196</ele>
        <time>2021-09-12T07:04:46.000Z</time>
      </trkpt>
      <trkpt lat="46.40451" lon="4.54702">
        <ele>468.700732</ele>
        <time>2021-09-12T07:04:58.000Z</time>
      </trkpt>
      <trkpt lat="46.40428" lon="4.54721">
        <ele>470.077496</ele>
        <time>2021-09-12T07:05:07.000Z</time>
      </trkpt>
      <trkpt lat="46.4041" lon="4.54736">
        <ele>471.173971</ele>
        <time>2021-09-12T07:05:14.000Z</time>
      </trkpt>
      <trkpt lat="46.40389" lon="4.54752">
        <ele>472.373095</ele>
        <time>2021-09-12T07:05:21.000Z</time>
      </trkpt>
      <trkpt lat="46.40367" lon="4.5477">
        <ele>473.500495</ele>
        <time>2021-09-12T07:05:27.000Z</time>
      </trkpt>
      <trkpt lat="46.40359" lon="4.54776">
        <ele>473.912465</ele>
        <time>2021-09-12T07:05:29.000Z</time>
      </trkpt>
      <trkpt lat="46.40344" lon="4.54787">
        <ele>474.671196</ele>
        <time>2021-09-12T07:05:33.000Z</time>
      </trkpt>
      <trkpt lat="46.40322" lon="4.54803">
        <ele>475.74641</ele>
        <time>2021-09-12T07:05:40.000Z</time>
      </trkpt>
      <trkpt lat="46.40301" lon="4.54818">
        <ele>476.77757</ele>
        <time>2021-09-12T07:05:49.000Z</time>
      </trkpt>
      <trkpt lat="46.4028" lon="4.54833">
        <ele>477.814086</ele>
        <time>2021-09-12T07:05:58.000Z</time>
      </trkpt>
      <trkpt lat="46.40263" lon="4.54846">
        <ele>478.691671</ele>
        <time>2021-09-12T07:06:06.000Z</time>
      </trkpt>
      <trkpt lat="46.40246" lon="4.54858">
        <ele>479.507759</ele>
        <time>2021-09-12T07:06:14.000Z</time>
      </trkpt>
      <trkpt lat="46.40233" lon="4.54868">
        <ele>480.177046</ele>
        <time>2021-09-12T07:06:21.000Z</time>
      </trkpt>
      <trkpt lat="46.4022" lon="4.54878">
        <ele>480.820775</ele>
        <time>2021-09-12T07:06:27.000Z</time>
      </trkpt>
      <trkpt lat="46.40201" lon="4.54892">
        <ele>481.784378</ele>
        <time>2021-09-12T07:06:35.000Z</time>
      </trkpt>
      <trkpt lat="46.40183" lon="4.54906">
        <ele>482.712742</ele>
        <time>2021-09-12T07:06:42.000Z</time>
      </trkpt>
      <trkpt lat="46.4016" lon="4.54925">
        <ele>483.89375</ele>
        <time>2021-09-12T07:06:51.000Z</time>
      </trkpt>
      <trkpt lat="46.40139" lon="4.54942">
        <ele>484.935136</ele>
        <time>2021-09-12T07:06:59.000Z</time>
      </trkpt>
      <trkpt lat="46.40124" lon="4.54965">
        <ele>485.89925</ele>
        <time>2021-09-12T07:07:06.000Z</time>
      </trkpt>
      <trkpt lat="46.4011" lon="4.54995">
        <ele>487.018173</ele>
        <time>2021-09-12T07:07:14.000Z</time>
      </trkpt>
      <trkpt lat="46.40099" lon="4.55028">
        <ele>488.138572</ele>
        <time>2021-09-12T07:07:22.000Z</time>
      </trkpt>
      <trkpt lat="46.4009" lon="4.5506">
        <ele>488.934009</ele>
        <time>2021-09-12T07:07:30.000Z</time>
      </trkpt>
      <trkpt lat="46.40078" lon="4.55104">
        <ele>489.980277</ele>
        <time>2021-09-12T07:07:40.000Z</time>
      </trkpt>
      <trkpt lat="46.40066" lon="4.55147">
        <ele>491.025323</ele>
        <time>2021-09-12T07:07:50.000Z</time>
      </trkpt>
      <trkpt lat="46.40058" lon="4.5518">
        <ele>491.809098</ele>
        <time>2021-09-12T07:07:57.000Z</time>
      </trkpt>
      <trkpt lat="46.4005" lon="4.55224">
        <ele>492.82588</ele>
        <time>2021-09-12T07:08:05.000Z</time>
      </trkpt>
      <trkpt lat="46.40052" lon="4.55254">
        <ele>493.506438</ele>
        <time>2021-09-12T07:08:10.000Z</time>
      </trkpt>
      <trkpt lat="46.40054" lon="4.55267">
        <ele>493.795649</ele>
        <time>2021-09-12T07:08:12.000Z</time>
      </trkpt>
      <trkpt lat="46.40061" lon="4.55312">
        <ele>494.552269</ele>
        <time>2021-09-12T07:08:19.000Z</time>
      </trkpt>
      <trkpt lat="46.40076" lon="4.5536">
        <ele>495.316006</ele>
        <time>2021-09-12T07:08:27.000Z</time>
      </trkpt>
      <trkpt lat="46.4009" lon="4.55396">
        <ele>495.921399</ele>
        <time>2021-09-12T07:08:34.000Z</time>
      </trkpt>
      <trkpt lat="46.40094" lon="4.55406">
        <ele>496.096495</ele>
        <time>2021-09-12T07:08:36.000Z</time>
      </trkpt>
      <trkpt lat="46.40106" lon="4.55433">
        <ele>496.555864</ele>
        <time>2021-09-12T07:08:41.000Z</time>
      </trkpt>
      <trkpt lat="46.40111" lon="4.55443">
        <ele>496.74056</ele>
        <time>2021-09-12T07:08:43.000Z</time>
      </trkpt>
      <trkpt lat="46.40119" lon="4.55459">
        <ele>497.020036</ele>
        <time>2021-09-12T07:08:46.000Z</time>
      </trkpt>
      <trkpt lat="46.40136" lon="4.55488">
        <ele>497.582563</ele>
        <time>2021-09-12T07:08:51.000Z</time>
      </trkpt>
      <trkpt lat="46.4016" lon="4.5553">
        <ele>498.29016</ele>
        <time>2021-09-12T07:08:58.000Z</time>
      </trkpt>
      <trkpt lat="46.40166" lon="4.55541">
        <ele>498.455671</ele>
        <time>2021-09-12T07:09:00.000Z</time>
      </trkpt>
      <trkpt lat="46.40178" lon="4.5556">
        <ele>498.773827</ele>
        <time>2021-09-12T07:09:04.000Z</time>
      </trkpt>
      <trkpt lat="46.40194" lon="4.55589">
        <ele>499.229507</ele>
        <time>2021-09-12T07:09:10.000Z</time>
      </trkpt>
      <trkpt lat="46.40197" lon="4.55593">
        <ele>499.302553</ele>
        <time>2021-09-12T07:09:11.000Z</time>
      </trkpt>
      <trkpt lat="46.40214" lon="4.55617">
        <ele>499.726256</ele>
        <time>2021-09-12T07:09:17.000Z</time>
      </trkpt>
      <trkpt lat="46.40222" lon="4.55627">
        <ele>499.907779</ele>
        <time>2021-09-12T07:09:22.000Z</time>
      </trkpt>
      <trkpt lat="46.40227" lon="4.55634">
        <ele>500.032499</ele>
        <time>2021-09-12T07:09:56.000Z</time>
      </trkpt>
      <trkpt lat="46.40229" lon="4.55637">
        <ele>500.082905</ele>
        <time>2021-09-12T07:09:57.000Z</time>
      </trkpt>
      <trkpt lat="46.40243" lon="4.55654">
        <ele>500.420311</ele>
        <time>2021-09-12T07:10:03.000Z</time>
      </trkpt>
      <trkpt lat="46.40265" lon="4.5567">
        <ele>500.851422</ele>
        <time>2021-09-12T07:10:08.000Z</time>
      </trkpt>
      <trkpt lat="46.40275" lon="4.55681">
        <ele>500.996577</ele>
        <time>2021-09-12T07:10:10.000Z</time>
      </trkpt>
      <trkpt lat="46.40279" lon="4.55688">
        <ele>500.9527</ele>
        <time>2021-09-12T07:10:11.000Z</time>
      </trkpt>
      <trkpt lat="46.40304" lon="4.55737">
        <ele>500.660041</ele>
        <time>2021-09-12T07:10:17.000Z</time>
      </trkpt>
      <trkpt lat="46.40323" lon="4.55795">
        <ele>500.352572</ele>
        <time>2021-09-12T07:10:23.000Z</time>
      </trkpt>
      <trkpt lat="46.40339" lon="4.55854">
        <ele>500.050549</ele>
        <time>2021-09-12T07:10:29.000Z</time>
      </trkpt>
      <trkpt lat="46.40347" lon="4.559">
        <ele>499.8241</ele>
        <time>2021-09-12T07:10:34.000Z</time>
      </trkpt>
      <trkpt lat="46.40353" lon="4.55923">
        <ele>499.550916</ele>
        <time>2021-09-12T07:10:37.000Z</time>
      </trkpt>
      <trkpt lat="46.40358" lon="4.5594">
        <ele>499.2562</ele>
        <time>2021-09-12T07:10:39.000Z</time>
      </trkpt>
      <trkpt lat="46.40378" lon="4.55974">
        <ele>498.566796</ele>
        <time>2021-09-12T07:10:43.000Z</time>
      </trkpt>
      <trkpt lat="46.40404" lon="4.56017">
        <ele>497.658553</ele>
        <time>2021-09-12T07:10:47.000Z</time>
      </trkpt>
      <trkpt lat="46.40444" lon="4.56073">
        <ele>496.382585</ele>
        <time>2021-09-12T07:10:52.000Z</time>
      </trkpt>
      <trkpt lat="46.40452" lon="4.56084">
        <ele>496.129917</ele>
        <time>2021-09-12T07:10:53.000Z</time>
      </trkpt>
      <trkpt lat="46.405" lon="4.56147">
        <ele>494.268055</ele>
        <time>2021-09-12T07:10:59.000Z</time>
      </trkpt>
      <trkpt lat="46.40509" lon="4.56155">
        <ele>493.921809</ele>
        <time>2021-09-12T07:11:00.000Z</time>
      </trkpt>
      <trkpt lat="46.40529" lon="4.56162">
        <ele>493.2574</ele>
        <time>2021-09-12T07:11:02.000Z</time>
      </trkpt>
      <trkpt lat="46.40573" lon="4.56163">
        <ele>491.858978</ele>
        <time>2021-09-12T07:11:06.000Z</time>
      </trkpt>
      <trkpt lat="46.40584" lon="4.56166">
        <ele>491.484713</ele>
        <time>2021-09-12T07:11:07.000Z</time>
      </trkpt>
      <trkpt lat="46.40593" lon="4.56176">
        <ele>491.110698</ele>
        <time>2021-09-12T07:11:08.000Z</time>
      </trkpt>
      <trkpt lat="46.40599" lon="4.5619">
        <ele>490.76592</ele>
        <time>2021-09-12T07:11:09.000Z</time>
      </trkpt>
      <trkpt lat="46.40602" lon="4.56205">
        <ele>490.426978</ele>
        <time>2021-09-12T07:11:10.000Z</time>
      </trkpt>
      <trkpt lat="46.40605" lon="4.5622">
        <ele>490.069759</ele>
        <time>2021-09-12T07:11:11.000Z</time>
      </trkpt>
      <trkpt lat="46.40603" lon="4.56253">
        <ele>489.136922</ele>
        <time>2021-09-12T07:11:13.000Z</time>
      </trkpt>
      <trkpt lat="46.40593" lon="4.56284">
        <ele>488.05808</ele>
        <time>2021-09-12T07:11:15.000Z</time>
      </trkpt>
      <trkpt lat="46.40567" lon="4.56361">
        <ele>485.470222</ele>
        <time>2021-09-12T07:11:20.000Z</time>
      </trkpt>
      <trkpt lat="46.40562" lon="4.56376">
        <ele>484.953587</ele>
        <time>2021-09-12T07:11:21.000Z</time>
      </trkpt>
      <trkpt lat="46.40544" lon="4.5644">
        <ele>482.810549</ele>
        <time>2021-09-12T07:11:25.000Z</time>
      </trkpt>
      <trkpt lat="46.40521" lon="4.56523">
        <ele>479.882158</ele>
        <time>2021-09-12T07:11:30.000Z</time>
      </trkpt>
      <trkpt lat="46.40516" lon="4.56539">
        <ele>479.288653</ele>
        <time>2021-09-12T07:11:31.000Z</time>
      </trkpt>
      <trkpt lat="46.40494" lon="4.56615">
        <ele>476.510678</ele>
        <time>2021-09-12T07:11:36.000Z</time>
      </trkpt>
      <trkpt lat="46.40488" lon="4.56629">
        <ele>475.94696</ele>
        <time>2021-09-12T07:11:37.000Z</time>
      </trkpt>
      <trkpt lat="46.40457" lon="4.56682">
        <ele>473.606723</ele>
        <time>2021-09-12T07:11:41.000Z</time>
      </trkpt>
      <trkpt lat="46.40414" lon="4.56735">
        <ele>470.690006</ele>
        <time>2021-09-12T07:11:46.000Z</time>
      </trkpt>
      <trkpt lat="46.40374" lon="4.56771">
        <ele>468.227614</ele>
        <time>2021-09-12T07:11:51.000Z</time>
      </trkpt>
      <trkpt lat="46.40344" lon="4.56798">
        <ele>466.389995</ele>
        <time>2021-09-12T07:11:56.000Z</time>
      </trkpt>
      <trkpt lat="46.40322" lon="4.56817">
        <ele>465.062578</ele>
        <time>2021-09-12T07:12:01.000Z</time>
      </trkpt>
      <trkpt lat="46.40303" lon="4.56835">
        <ele>463.864293</ele>
        <time>2021-09-12T07:12:07.000Z</time>
      </trkpt>
      <trkpt lat="46.40279" lon="4.56856">
        <ele>462.773994</ele>
        <time>2021-09-12T07:12:15.000Z</time>
      </trkpt>
      <trkpt lat="46.40257" lon="4.56876">
        <ele>461.769872</ele>
        <time>2021-09-12T07:12:23.000Z</time>
      </trkpt>
      <trkpt lat="46.40232" lon="4.56898">
        <ele>460.660758</ele>
        <time>2021-09-12T07:12:32.000Z</time>
      </trkpt>
      <trkpt lat="46.40206" lon="4.56922">
        <ele>459.502154</ele>
        <time>2021-09-12T07:12:40.000Z</time>
      </trkpt>
      <trkpt lat="46.40183" lon="4.56943">
        <ele>458.456404</ele>
        <time>2021-09-12T07:12:46.000Z</time>
      </trkpt>
      <trkpt lat="46.40179" lon="4.56946">
        <ele>458.281572</ele>
        <time>2021-09-12T07:12:47.000Z</time>
      </trkpt>
      <trkpt lat="46.4015" lon="4.56966">
        <ele>457.056128</ele>
        <time>2021-09-12T07:12:54.000Z</time>
      </trkpt>
      <trkpt lat="46.40119" lon="4.56986">
        <ele>456.562942</ele>
        <time>2021-09-12T07:13:02.000Z</time>
      </trkpt>
      <trkpt lat="46.40094" lon="4.57002">
        <ele>456.307805</ele>
        <time>2021-09-12T07:13:09.000Z</time>
      </trkpt>
      <trkpt lat="46.40065" lon="4.57023">
        <ele>456.010478</ele>
        <time>2021-09-12T07:13:18.000Z</time>
      </trkpt>
      <trkpt lat="46.40041" lon="4.57043">
        <ele>455.7433</ele>
        <time>2021-09-12T07:13:26.000Z</time>
      </trkpt>
      <trkpt lat="46.4001" lon="4.57069">
        <ele>455.411191</ele>
        <time>2021-09-12T07:13:35.000Z</time>
      </trkpt>
      <trkpt lat="46.39999" lon="4.57079">
        <ele>455.29188</ele>
        <time>2021-09-12T07:13:38.000Z</time>
      </trkpt>
      <trkpt lat="46.39981" lon="4.57095">
        <ele>455.149501</ele>
        <time>2021-09-12T07:13:43.000Z</time>
      </trkpt>
      <trkpt lat="46.39959" lon="4.57118">
        <ele>455.177896</ele>
        <time>2021-09-12T07:13:49.000Z</time>
      </trkpt>
      <trkpt lat="46.39933" lon="4.57148">
        <ele>455.212391</ele>
        <time>2021-09-12T07:13:56.000Z</time>
      </trkpt>
      <trkpt lat="46.39903" lon="4.5719">
        <ele>455.256035</ele>
        <time>2021-09-12T07:14:05.000Z</time>
      </trkpt>
      <trkpt lat="46.39878" lon="4.57227">
        <ele>455.294207</ele>
        <time>2021-09-12T07:14:13.000Z</time>
      </trkpt>
      <trkpt lat="46.39853" lon="4.57263">
        <ele>455.331396</ele>
        <time>2021-09-12T07:14:21.000Z</time>
      </trkpt>
      <trkpt lat="46.39827" lon="4.57301">
        <ele>455.183073</ele>
        <time>2021-09-12T07:14:30.000Z</time>
      </trkpt>
      <trkpt lat="46.39808" lon="4.57328">
        <ele>455.072437</ele>
        <time>2021-09-12T07:14:37.000Z</time>
      </trkpt>
      <trkpt lat="46.39787" lon="4.57359">
        <ele>454.945462</ele>
        <time>2021-09-12T07:14:44.000Z</time>
      </trkpt>
      <trkpt lat="46.39772" lon="4.57385">
        <ele>454.848355</ele>
        <time>2021-09-12T07:14:49.000Z</time>
      </trkpt>
      <trkpt lat="46.3977" lon="4.57392">
        <ele>454.825605</ele>
        <time>2021-09-12T07:14:50.000Z</time>
      </trkpt>
      <trkpt lat="46.39769" lon="4.574">
        <ele>454.801977</ele>
        <time>2021-09-12T07:14:51.000Z</time>
      </trkpt>
      <trkpt lat="46.39767" lon="4.5742">
        <ele>454.746111</ele>
        <time>2021-09-12T07:14:53.000Z</time>
      </trkpt>
      <trkpt lat="46.39766" lon="4.5743">
        <ele>454.715892</ele>
        <time>2021-09-12T07:14:54.000Z</time>
      </trkpt>
      <trkpt lat="46.39763" lon="4.57452">
        <ele>454.652463</ele>
        <time>2021-09-12T07:14:56.000Z</time>
      </trkpt>
      <trkpt lat="46.39756" lon="4.57472">
        <ele>454.586584</ele>
        <time>2021-09-12T07:14:58.000Z</time>
      </trkpt>
      <trkpt lat="46.39743" lon="4.57484">
        <ele>454.226384</ele>
        <time>2021-09-12T07:15:00.000Z</time>
      </trkpt>
      <trkpt lat="46.39735" lon="4.57487">
        <ele>454.021874</ele>
        <time>2021-09-12T07:15:01.000Z</time>
      </trkpt>
      <trkpt lat="46.39728" lon="4.5749">
        <ele>453.820379</ele>
        <time>2021-09-12T07:15:02.000Z</time>
      </trkpt>
      <trkpt lat="46.39713" lon="4.57496">
        <ele>453.418801</ele>
        <time>2021-09-12T07:15:04.000Z</time>
      </trkpt>
      <trkpt lat="46.39706" lon="4.575">
        <ele>453.219055</ele>
        <time>2021-09-12T07:15:05.000Z</time>
      </trkpt>
      <trkpt lat="46.39693" lon="4.57509">
        <ele>452.844886</ele>
        <time>2021-09-12T07:15:07.000Z</time>
      </trkpt>
      <trkpt lat="46.39681" lon="4.57523">
        <ele>452.441607</ele>
        <time>2021-09-12T07:15:09.000Z</time>
      </trkpt>
      <trkpt lat="46.39671" lon="4.57543">
        <ele>451.991491</ele>
        <time>2021-09-12T07:15:11.000Z</time>
      </trkpt>
      <trkpt lat="46.39665" lon="4.57554">
        <ele>451.744223</ele>
        <time>2021-09-12T07:15:12.000Z</time>
      </trkpt>
      <trkpt lat="46.39655" lon="4.57595">
        <ele>450.942167</ele>
        <time>2021-09-12T07:15:15.000Z</time>
      </trkpt>
      <trkpt lat="46.39652" lon="4.5761">
        <ele>450.661659</ele>
        <time>2021-09-12T07:15:16.000Z</time>
      </trkpt>
      <trkpt lat="46.39644" lon="4.5769">
        <ele>449.014238</ele>
        <time>2021-09-12T07:15:21.000Z</time>
      </trkpt>
      <trkpt lat="46.39636" lon="4.57776">
        <ele>446.958577</ele>
        <time>2021-09-12T07:15:26.000Z</time>
      </trkpt>
      <trkpt lat="46.39627" lon="4.57872">
        <ele>444.655909</ele>
        <time>2021-09-12T07:15:31.000Z</time>
      </trkpt>
      <trkpt lat="46.39619" lon="4.57955">
        <ele>442.430089</ele>
        <time>2021-09-12T07:15:35.000Z</time>
      </trkpt>
      <trkpt lat="46.39611" lon="4.58036">
        <ele>440.049057</ele>
        <time>2021-09-12T07:15:39.000Z</time>
      </trkpt>
      <trkpt lat="46.39604" lon="4.58113">
        <ele>437.756832</ele>
        <time>2021-09-12T07:15:43.000Z</time>
      </trkpt>
      <trkpt lat="46.396" lon="4.58151">
        <ele>436.641773</ele>
        <time>2021-09-12T07:15:45.000Z</time>
      </trkpt>
      <trkpt lat="46.39591" lon="4.58244">
        <ele>433.422658</ele>
        <time>2021-09-12T07:15:50.000Z</time>
      </trkpt>
      <trkpt lat="46.39588" lon="4.5828">
        <ele>432.139804</ele>
        <time>2021-09-12T07:15:52.000Z</time>
      </trkpt>
      <trkpt lat="46.39579" lon="4.58367">
        <ele>429.029221</ele>
        <time>2021-09-12T07:15:57.000Z</time>
      </trkpt>
      <trkpt lat="46.39575" lon="4.584">
        <ele>427.836512</ele>
        <time>2021-09-12T07:15:59.000Z</time>
      </trkpt>
      <trkpt lat="46.39567" lon="4.58484">
        <ele>424.58325</ele>
        <time>2021-09-12T07:16:04.000Z</time>
      </trkpt>
      <trkpt lat="46.39563" lon="4.58518">
        <ele>423.182799</ele>
        <time>2021-09-12T07:16:06.000Z</time>
      </trkpt>
      <trkpt lat="46.39552" lon="4.58588">
        <ele>420.304508</ele>
        <time>2021-09-12T07:16:10.000Z</time>
      </trkpt>
      <trkpt lat="46.3953" lon="4.58677">
        <ele>416.570931</ele>
        <time>2021-09-12T07:16:15.000Z</time>
      </trkpt>
      <trkpt lat="46.39525" lon="4.58694">
        <ele>415.763968</ele>
        <time>2021-09-12T07:16:16.000Z</time>
      </trkpt>
      <trkpt lat="46.39503" lon="4.58776">
        <ele>411.749418</ele>
        <time>2021-09-12T07:16:21.000Z</time>
      </trkpt>
      <trkpt lat="46.39494" lon="4.5881">
        <ele>410.132675</ele>
        <time>2021-09-12T07:16:23.000Z</time>
      </trkpt>
      <trkpt lat="46.39471" lon="4.58896">
        <ele>405.966332</ele>
        <time>2021-09-12T07:16:28.000Z</time>
      </trkpt>
      <trkpt lat="46.39457" lon="4.58948">
        <ele>403.385339</ele>
        <time>2021-09-12T07:16:31.000Z</time>
      </trkpt>
      <trkpt lat="46.39434" lon="4.5903">
        <ele>399.185766</ele>
        <time>2021-09-12T07:16:36.000Z</time>
      </trkpt>
      <trkpt lat="46.3943" lon="4.59046">
        <ele>398.41918</ele>
        <time>2021-09-12T07:16:37.000Z</time>
      </trkpt>
      <trkpt lat="46.39407" lon="4.59132">
        <ele>394.061937</ele>
        <time>2021-09-12T07:16:43.000Z</time>
      </trkpt>
      <trkpt lat="46.39403" lon="4.59145">
        <ele>393.398302</ele>
        <time>2021-09-12T07:16:44.000Z</time>
      </trkpt>
      <trkpt lat="46.39387" lon="4.59205">
        <ele>390.192285</ele>
        <time>2021-09-12T07:16:49.000Z</time>
      </trkpt>
      <trkpt lat="46.3937" lon="4.59267">
        <ele>386.75062</ele>
        <time>2021-09-12T07:16:55.000Z</time>
      </trkpt>
      <trkpt lat="46.39352" lon="4.59329">
        <ele>383.342828</ele>
        <time>2021-09-12T07:17:01.000Z</time>
      </trkpt>
      <trkpt lat="46.39333" lon="4.59398">
        <ele>379.592304</ele>
        <time>2021-09-12T07:17:07.000Z</time>
      </trkpt>
      <trkpt lat="46.39315" lon="4.59462">
        <ele>376.179575</ele>
        <time>2021-09-12T07:17:13.000Z</time>
      </trkpt>
      <trkpt lat="46.39297" lon="4.59526">
        <ele>372.788339</ele>
        <time>2021-09-12T07:17:19.000Z</time>
      </trkpt>
      <trkpt lat="46.39277" lon="4.59601">
        <ele>368.840435</ele>
        <time>2021-09-12T07:17:25.000Z</time>
      </trkpt>
      <trkpt lat="46.39253" lon="4.59687">
        <ele>364.674753</ele>
        <time>2021-09-12T07:17:31.000Z</time>
      </trkpt>
      <trkpt lat="46.39232" lon="4.59763">
        <ele>361.33731</ele>
        <time>2021-09-12T07:17:36.000Z</time>
      </trkpt>
      <trkpt lat="46.39221" lon="4.59805">
        <ele>359.483738</ele>
        <time>2021-09-12T07:17:39.000Z</time>
      </trkpt>
      <trkpt lat="46.39207" lon="4.59871">
        <ele>356.65452</ele>
        <time>2021-09-12T07:17:44.000Z</time>
      </trkpt>
      <trkpt lat="46.39204" lon="4.59896">
        <ele>355.627364</ele>
        <time>2021-09-12T07:17:46.000Z</time>
      </trkpt>
      <trkpt lat="46.392" lon="4.5993">
        <ele>354.23727</ele>
        <time>2021-09-12T07:17:49.000Z</time>
      </trkpt>
      <trkpt lat="46.3919" lon="4.59997">
        <ele>351.511084</ele>
        <time>2021-09-12T07:17:55.000Z</time>
      </trkpt>
      <trkpt lat="46.39175" lon="4.60057">
        <ele>348.952822</ele>
        <time>2021-09-12T07:18:00.000Z</time>
      </trkpt>
      <trkpt lat="46.39154" lon="4.60133">
        <ele>345.682715</ele>
        <time>2021-09-12T07:18:06.000Z</time>
      </trkpt>
      <trkpt lat="46.3915" lon="4.60145">
        <ele>345.158286</ele>
        <time>2021-09-12T07:18:07.000Z</time>
      </trkpt>
      <trkpt lat="46.39128" lon="4.60216">
        <ele>342.28197</ele>
        <time>2021-09-12T07:18:13.000Z</time>
      </trkpt>
      <trkpt lat="46.39124" lon="4.60228">
        <ele>341.817354</ele>
        <time>2021-09-12T07:18:14.000Z</time>
      </trkpt>
      <trkpt lat="46.391" lon="4.60293">
        <ele>339.087434</ele>
        <time>2021-09-12T07:18:20.000Z</time>
      </trkpt>
      <trkpt lat="46.39072" lon="4.60367">
        <ele>336.005597</ele>
        <time>2021-09-12T07:18:27.000Z</time>
      </trkpt>
      <trkpt lat="46.39064" lon="4.60387">
        <ele>335.180965</ele>
        <time>2021-09-12T07:18:29.000Z</time>
      </trkpt>
      <trkpt lat="46.39052" lon="4.60428">
        <ele>333.615344</ele>
        <time>2021-09-12T07:18:33.000Z</time>
      </trkpt>
      <trkpt lat="46.39049" lon="4.60451">
        <ele>332.814271</ele>
        <time>2021-09-12T07:18:35.000Z</time>
      </trkpt>
      <trkpt lat="46.39046" lon="4.60515">
        <ele>330.555296</ele>
        <time>2021-09-12T07:18:40.000Z</time>
      </trkpt>
      <trkpt lat="46.39043" lon="4.60607">
        <ele>327.348648</ele>
        <time>2021-09-12T07:18:46.000Z</time>
      </trkpt>
      <trkpt lat="46.3904" lon="4.60689">
        <ele>324.482594</ele>
        <time>2021-09-12T07:18:51.000Z</time>
      </trkpt>
      <trkpt lat="46.39038" lon="4.60723">
        <ele>323.312655</ele>
        <time>2021-09-12T07:18:53.000Z</time>
      </trkpt>
      <trkpt lat="46.39035" lon="4.60805">
        <ele>320.481273</ele>
        <time>2021-09-12T07:18:58.000Z</time>
      </trkpt>
      <trkpt lat="46.39034" lon="4.60835">
        <ele>319.418609</ele>
        <time>2021-09-12T07:19:00.000Z</time>
      </trkpt>
      <trkpt lat="46.39031" lon="4.60924">
        <ele>316.368776</ele>
        <time>2021-09-12T07:19:06.000Z</time>
      </trkpt>
      <trkpt lat="46.3903" lon="4.60953">
        <ele>315.411602</ele>
        <time>2021-09-12T07:19:08.000Z</time>
      </trkpt>
      <trkpt lat="46.39027" lon="4.61038">
        <ele>312.566624</ele>
        <time>2021-09-12T07:19:14.000Z</time>
      </trkpt>
      <trkpt lat="46.39025" lon="4.61078">
        <ele>311.216275</ele>
        <time>2021-09-12T07:19:17.000Z</time>
      </trkpt>
      <trkpt lat="46.39022" lon="4.61165">
        <ele>308.300323</ele>
        <time>2021-09-12T07:19:24.000Z</time>
      </trkpt>
      <trkpt lat="46.3902" lon="4.61229">
        <ele>306.281934</ele>
        <time>2021-09-12T07:19:30.000Z</time>
      </trkpt>
      <trkpt lat="46.39017" lon="4.61299">
        <ele>304.047359</ele>
        <time>2021-09-12T07:19:37.000Z</time>
      </trkpt>
      <trkpt lat="46.39016" lon="4.61343">
        <ele>302.673119</ele>
        <time>2021-09-12T07:19:41.000Z</time>
      </trkpt>
      <trkpt lat="46.39015" lon="4.61366">
        <ele>301.933777</ele>
        <time>2021-09-12T07:19:43.000Z</time>
      </trkpt>
      <trkpt lat="46.39012" lon="4.61431">
        <ele>299.82719</ele>
        <time>2021-09-12T07:19:48.000Z</time>
      </trkpt>
      <trkpt lat="46.39009" lon="4.61524">
        <ele>296.748446</ele>
        <time>2021-09-12T07:19:54.000Z</time>
      </trkpt>
      <trkpt lat="46.39004" lon="4.61573">
        <ele>295.102479</ele>
        <time>2021-09-12T07:19:57.000Z</time>
      </trkpt>
      <trkpt lat="46.38999" lon="4.61589">
        <ele>294.527532</ele>
        <time>2021-09-12T07:19:58.000Z</time>
      </trkpt>
      <trkpt lat="46.38993" lon="4.61604">
        <ele>293.939123</ele>
        <time>2021-09-12T07:19:59.000Z</time>
      </trkpt>
      <trkpt lat="46.38978" lon="4.61631">
        <ele>292.807931</ele>
        <time>2021-09-12T07:20:01.000Z</time>
      </trkpt>
      <trkpt lat="46.38937" lon="4.6169">
        <ele>290.233769</ele>
        <time>2021-09-12T07:20:06.000Z</time>
      </trkpt>
      <trkpt lat="46.3893" lon="4.61701">
        <ele>289.77673</ele>
        <time>2021-09-12T07:20:07.000Z</time>
      </trkpt>
      <trkpt lat="46.38894" lon="4.61752">
        <ele>287.652794</ele>
        <time>2021-09-12T07:20:12.000Z</time>
      </trkpt>
      <trkpt lat="46.38867" lon="4.61792">
        <ele>285.986837</ele>
        <time>2021-09-12T07:20:17.000Z</time>
      </trkpt>
      <trkpt lat="46.38862" lon="4.61799">
        <ele>285.704247</ele>
        <time>2021-09-12T07:20:18.000Z</time>
      </trkpt>
      <trkpt lat="46.38844" lon="4.61828">
        <ele>284.567713</ele>
        <time>2021-09-12T07:20:22.000Z</time>
      </trkpt>
      <trkpt lat="46.38835" lon="4.61851">
        <ele>283.82311</ele>
        <time>2021-09-12T07:20:25.000Z</time>
      </trkpt>
      <trkpt lat="46.38831" lon="4.61866">
        <ele>283.406574</ele>
        <time>2021-09-12T07:20:27.000Z</time>
      </trkpt>
      <trkpt lat="46.38824" lon="4.61904">
        <ele>282.388888</ele>
        <time>2021-09-12T07:20:33.000Z</time>
      </trkpt>
      <trkpt lat="46.38827" lon="4.61925">
        <ele>281.830445</ele>
        <time>2021-09-12T07:20:37.000Z</time>
      </trkpt>
      <trkpt lat="46.38828" lon="4.6193">
        <ele>281.690175</ele>
        <time>2021-09-12T07:20:38.000Z</time>
      </trkpt>
      <trkpt lat="46.38838" lon="4.61959">
        <ele>280.85872</ele>
        <time>2021-09-12T07:20:43.000Z</time>
      </trkpt>
      <trkpt lat="46.38847" lon="4.61988">
        <ele>280.009944</ele>
        <time>2021-09-12T07:20:48.000Z</time>
      </trkpt>
      <trkpt lat="46.38851" lon="4.61999">
        <ele>279.689488</ele>
        <time>2021-09-12T07:20:50.000Z</time>
      </trkpt>
      <trkpt lat="46.38857" lon="4.62016">
        <ele>279.202132</ele>
        <time>2021-09-12T07:20:53.000Z</time>
      </trkpt>
      <trkpt lat="46.38866" lon="4.62045">
        <ele>278.36202</ele>
        <time>2021-09-12T07:20:58.000Z</time>
      </trkpt>
      <trkpt lat="46.3888" lon="4.62087">
        <ele>277.29168</ele>
        <time>2021-09-12T07:21:05.000Z</time>
      </trkpt>
      <trkpt lat="46.38886" lon="4.62105">
        <ele>277.070106</ele>
        <time>2021-09-12T07:21:08.000Z</time>
      </trkpt>
      <trkpt lat="46.38892" lon="4.62124">
        <ele>276.844573</ele>
        <time>2021-09-12T07:21:11.000Z</time>
      </trkpt>
      <trkpt lat="46.38912" lon="4.62186">
        <ele>276.099088</ele>
        <time>2021-09-12T07:21:21.000Z</time>
      </trkpt>
      <trkpt lat="46.38926" lon="4.62233">
        <ele>275.53476</ele>
        <time>2021-09-12T07:21:29.000Z</time>
      </trkpt>
      <trkpt lat="46.38936" lon="4.62265">
        <ele>275.151245</ele>
        <time>2021-09-12T07:21:35.000Z</time>
      </trkpt>
      <trkpt lat="46.3894" lon="4.62276">
        <ele>275.025067</ele>
        <time>2021-09-12T07:21:37.000Z</time>
      </trkpt>
      <trkpt lat="46.38955" lon="4.62326">
        <ele>274.445489</ele>
        <time>2021-09-12T07:21:46.000Z</time>
      </trkpt>
      <trkpt lat="46.38968" lon="4.62368">
        <ele>274.028239</ele>
        <time>2021-09-12T07:21:53.000Z</time>
      </trkpt>
      <trkpt lat="46.38984" lon="4.62417">
        <ele>273.547681</ele>
        <time>2021-09-12T07:22:00.000Z</time>
      </trkpt>
      <trkpt lat="46.38998" lon="4.62463">
        <ele>273.102835</ele>
        <time>2021-09-12T07:22:05.000Z</time>
      </trkpt>
      <trkpt lat="46.39018" lon="4.62527">
        <ele>272.476432</ele>
        <time>2021-09-12T07:22:11.000Z</time>
      </trkpt>
      <trkpt lat="46.39045" lon="4.62606">
        <ele>271.411976</ele>
        <time>2021-09-12T07:22:18.000Z</time>
      </trkpt>
      <trkpt lat="46.3907" lon="4.62677">
        <ele>270.34357</ele>
        <time>2021-09-12T07:22:24.000Z</time>
      </trkpt>
      <trkpt lat="46.3908" lon="4.62701">
        <ele>269.972086</ele>
        <time>2021-09-12T07:22:26.000Z</time>
      </trkpt>
      <trkpt lat="46.39114" lon="4.62768">
        <ele>268.834037</ele>
        <time>2021-09-12T07:22:32.000Z</time>
      </trkpt>
      <trkpt lat="46.3912" lon="4.6278">
        <ele>268.64073</ele>
        <time>2021-09-12T07:22:33.000Z</time>
      </trkpt>
      <trkpt lat="46.39158" lon="4.62839">
        <ele>267.527032</ele>
        <time>2021-09-12T07:22:39.000Z</time>
      </trkpt>
      <trkpt lat="46.39196" lon="4.62887">
        <ele>266.529746</ele>
        <time>2021-09-12T07:22:45.000Z</time>
      </trkpt>
      <trkpt lat="46.39235" lon="4.62929">
        <ele>265.552539</ele>
        <time>2021-09-12T07:22:52.000Z</time>
      </trkpt>
      <trkpt lat="46.39263" lon="4.62956">
        <ele>264.99208</ele>
        <time>2021-09-12T07:22:58.000Z</time>
      </trkpt>
      <trkpt lat="46.39291" lon="4.62983">
        <ele>264.643206</ele>
        <time>2021-09-12T07:23:05.000Z</time>
      </trkpt>
      <trkpt lat="46.39295" lon="4.62987">
        <ele>264.594439</ele>
        <time>2021-09-12T07:23:06.000Z</time>
      </trkpt>
      <trkpt lat="46.39306" lon="4.63005">
        <ele>264.412836</ele>
        <time>2021-09-12T07:23:10.000Z</time>
      </trkpt>
      <trkpt lat="46.39314" lon="4.6302">
        <ele>264.28201</ele>
        <time>2021-09-12T07:23:13.000Z</time>
      </trkpt>
      <trkpt lat="46.39327" lon="4.63061">
        <ele>263.961367</ele>
        <time>2021-09-12T07:23:20.000Z</time>
      </trkpt>
      <trkpt lat="46.39332" lon="4.6311">
        <ele>263.604371</ele>
        <time>2021-09-12T07:23:28.000Z</time>
      </trkpt>
      <trkpt lat="46.39331" lon="4.63116">
        <ele>263.560106</ele>
        <time>2021-09-12T07:23:29.000Z</time>
      </trkpt>
      <trkpt lat="46.39327" lon="4.63148">
        <ele>263.329943</ele>
        <time>2021-09-12T07:23:34.000Z</time>
      </trkpt>
      <trkpt lat="46.39326" lon="4.63154">
        <ele>263.284242</ele>
        <time>2021-09-12T07:23:35.000Z</time>
      </trkpt>
      <trkpt lat="46.39313" lon="4.63197">
        <ele>263.124963</ele>
        <time>2021-09-12T07:23:42.000Z</time>
      </trkpt>
      <trkpt lat="46.393" lon="4.63225">
        <ele>263.031574</ele>
        <time>2021-09-12T07:23:47.000Z</time>
      </trkpt>
      <trkpt lat="46.39297" lon="4.6323">
        <ele>263.01205</ele>
        <time>2021-09-12T07:23:48.000Z</time>
      </trkpt>
      <trkpt lat="46.39278" lon="4.63265">
        <ele>262.889005</ele>
        <time>2021-09-12T07:23:54.000Z</time>
      </trkpt>
      <trkpt lat="46.39275" lon="4.63271">
        <ele>262.868089</ele>
        <time>2021-09-12T07:23:55.000Z</time>
      </trkpt>
      <trkpt lat="46.3925" lon="4.63317">
        <ele>262.708223</ele>
        <time>2021-09-12T07:24:02.000Z</time>
      </trkpt>
      <trkpt lat="46.39237" lon="4.63345">
        <ele>262.614612</ele>
        <time>2021-09-12T07:24:06.000Z</time>
      </trkpt>
      <trkpt lat="46.3923" lon="4.63359">
        <ele>262.567467</ele>
        <time>2021-09-12T07:24:08.000Z</time>
      </trkpt>
      <trkpt lat="46.39209" lon="4.63404">
        <ele>262.34839</ele>
        <time>2021-09-12T07:24:14.000Z</time>
      </trkpt>
      <trkpt lat="46.39207" lon="4.63413">
        <ele>262.303729</ele>
        <time>2021-09-12T07:24:15.000Z</time>
      </trkpt>
      <trkpt lat="46.39198" lon="4.6347">
        <ele>262.028146</ele>
        <time>2021-09-12T07:24:21.000Z</time>
      </trkpt>
      <trkpt lat="46.3919" lon="4.63539">
        <ele>261.700305</ele>
        <time>2021-09-12T07:24:28.000Z</time>
      </trkpt>
      <trkpt lat="46.39184" lon="4.6359">
        <ele>261.457412</ele>
        <time>2021-09-12T07:24:33.000Z</time>
      </trkpt>
      <trkpt lat="46.39176" lon="4.63666">
        <ele>261.160225</ele>
        <time>2021-09-12T07:24:41.000Z</time>
      </trkpt>
      <trkpt lat="46.39168" lon="4.63734">
        <ele>260.943811</ele>
        <time>2021-09-12T07:24:49.000Z</time>
      </trkpt>
      <trkpt lat="46.39163" lon="4.63785">
        <ele>260.784102</ele>
        <time>2021-09-12T07:24:55.000Z</time>
      </trkpt>
      <trkpt lat="46.39163" lon="4.63793">
        <ele>260.758088</ele>
        <time>2021-09-12T07:24:56.000Z</time>
      </trkpt>
      <trkpt lat="46.39166" lon="4.6381">
        <ele>260.7052</ele>
        <time>2021-09-12T07:24:58.000Z</time>
      </trkpt>
      <trkpt lat="46.39155" lon="4.63827">
        <ele>260.632068</ele>
        <time>2021-09-12T07:25:00.000Z</time>
      </trkpt>
      <trkpt lat="46.39158" lon="4.63836">
        <ele>260.601749</ele>
        <time>2021-09-12T07:25:01.000Z</time>
      </trkpt>
      <trkpt lat="46.39151" lon="4.63882">
        <ele>260.52866</ele>
        <time>2021-09-12T07:25:06.000Z</time>
      </trkpt>
      <trkpt lat="46.39146" lon="4.63933">
        <ele>260.96021</ele>
        <time>2021-09-12T07:25:12.000Z</time>
      </trkpt>
      <trkpt lat="46.39146" lon="4.63971">
        <ele>261.272554</ele>
        <time>2021-09-12T07:25:18.000Z</time>
      </trkpt>
      <trkpt lat="46.39153" lon="4.63999">
        <ele>261.516516</ele>
        <time>2021-09-12T07:25:25.000Z</time>
      </trkpt>
      <trkpt lat="46.39164" lon="4.64018">
        <ele>261.728435</ele>
        <time>2021-09-12T07:25:32.000Z</time>
      </trkpt>
      <trkpt lat="46.39178" lon="4.6404">
        <ele>261.976213</ele>
        <time>2021-09-12T07:25:40.000Z</time>
      </trkpt>
      <trkpt lat="46.3919" lon="4.64058">
        <ele>262.184799</ele>
        <time>2021-09-12T07:25:47.000Z</time>
      </trkpt>
      <trkpt lat="46.39205" lon="4.64082">
        <ele>262.455371</ele>
        <time>2021-09-12T07:25:55.000Z</time>
      </trkpt>
      <trkpt lat="46.3922" lon="4.64105">
        <ele>262.769154</ele>
        <time>2021-09-12T07:26:02.000Z</time>
      </trkpt>
      <trkpt lat="46.39238" lon="4.64132">
        <ele>263.31286</ele>
        <time>2021-09-12T07:26:10.000Z</time>
      </trkpt>
      <trkpt lat="46.39258" lon="4.64162">
        <ele>263.919277</ele>
        <time>2021-09-12T07:26:19.000Z</time>
      </trkpt>
      <trkpt lat="46.39281" lon="4.64197">
        <ele>264.611051</ele>
        <time>2021-09-12T07:26:29.000Z</time>
      </trkpt>
      <trkpt lat="46.39297" lon="4.64222">
        <ele>265.101996</ele>
        <time>2021-09-12T07:26:36.000Z</time>
      </trkpt>
      <trkpt lat="46.39314" lon="4.64248">
        <ele>265.620564</ele>
        <time>2021-09-12T07:26:43.000Z</time>
      </trkpt>
      <trkpt lat="46.39337" lon="4.64282">
        <ele>266.302778</ele>
        <time>2021-09-12T07:26:51.000Z</time>
      </trkpt>
      <trkpt lat="46.39356" lon="4.64311">
        <ele>266.990246</ele>
        <time>2021-09-12T07:26:58.000Z</time>
      </trkpt>
      <trkpt lat="46.39376" lon="4.64342">
        <ele>267.730806</ele>
        <time>2021-09-12T07:27:06.000Z</time>
      </trkpt>
      <trkpt lat="46.39389" lon="4.64361">
        <ele>268.198287</ele>
        <time>2021-09-12T07:27:11.000Z</time>
      </trkpt>
      <trkpt lat="46.39403" lon="4.64383">
        <ele>268.728552</ele>
        <time>2021-09-12T07:27:17.000Z</time>
      </trkpt>
      <trkpt lat="46.39424" lon="4.64415">
        <ele>269.498357</ele>
        <time>2021-09-12T07:27:26.000Z</time>
      </trkpt>
      <trkpt lat="46.39441" lon="4.64444">
        <ele>270.177281</ele>
        <time>2021-09-12T07:27:34.000Z</time>
      </trkpt>
      <trkpt lat="46.39458" lon="4.64473">
        <ele>270.842056</ele>
        <time>2021-09-12T07:27:42.000Z</time>
      </trkpt>
      <trkpt lat="46.39477" lon="4.64505">
        <ele>271.812368</ele>
        <time>2021-09-12T07:27:51.000Z</time>
      </trkpt>
      <trkpt lat="46.39488" lon="4.64526">
        <ele>272.463015</ele>
        <time>2021-09-12T07:27:57.000Z</time>
      </trkpt>
      <trkpt lat="46.39502" lon="4.64549">
        <ele>273.20109</ele>
        <time>2021-09-12T07:28:04.000Z</time>
      </trkpt>
      <trkpt lat="46.39515" lon="4.64571">
        <ele>273.91051</ele>
        <time>2021-09-12T07:28:11.000Z</time>
      </trkpt>
      <trkpt lat="46.39535" lon="4.64612">
        <ele>275.13661</ele>
        <time>2021-09-12T07:28:22.000Z</time>
      </trkpt>
      <trkpt lat="46.39545" lon="4.6464">
        <ele>275.917626</ele>
        <time>2021-09-12T07:28:29.000Z</time>
      </trkpt>
      <trkpt lat="46.39557" lon="4.6467">
        <ele>276.761593</ele>
        <time>2021-09-12T07:28:37.000Z</time>
      </trkpt>
      <trkpt lat="46.39563" lon="4.64694">
        <ele>277.387981</ele>
        <time>2021-09-12T07:28:43.000Z</time>
      </trkpt>
      <trkpt lat="46.39574" lon="4.64736">
        <ele>278.706015</ele>
        <time>2021-09-12T07:28:54.000Z</time>
      </trkpt>
      <trkpt lat="46.39579" lon="4.64767">
        <ele>279.664268</ele>
        <time>2021-09-12T07:29:02.000Z</time>
      </trkpt>
      <trkpt lat="46.39581" lon="4.64806">
        <ele>280.798555</ele>
        <time>2021-09-12T07:29:11.000Z</time>
      </trkpt>
      <trkpt lat="46.39581" lon="4.6484">
        <ele>281.795737</ele>
        <time>2021-09-12T07:29:18.000Z</time>
      </trkpt>
      <trkpt lat="46.39585" lon="4.64891">
        <ele>283.31219</ele>
        <time>2021-09-12T07:29:29.000Z</time>
      </trkpt>
      <trkpt lat="46.39586" lon="4.64928">
        <ele>284.410996</ele>
        <time>2021-09-12T07:29:37.000Z</time>
      </trkpt>
      <trkpt lat="46.39586" lon="4.64968">
        <ele>285.194968</ele>
        <time>2021-09-12T07:29:45.000Z</time>
      </trkpt>
      <trkpt lat="46.39581" lon="4.65018">
        <ele>285.67993</ele>
        <time>2021-09-12T07:29:55.000Z</time>
      </trkpt>
      <trkpt lat="46.39577" lon="4.65058">
        <ele>286.065552</ele>
        <time>2021-09-12T07:30:02.000Z</time>
      </trkpt>
      <trkpt lat="46.39576" lon="4.65068">
        <ele>286.167448</ele>
        <time>2021-09-12T07:30:04.000Z</time>
      </trkpt>
      <trkpt lat="46.39576" lon="4.65074">
        <ele>286.218335</ele>
        <time>2021-09-12T07:30:05.000Z</time>
      </trkpt>
      <trkpt lat="46.3958" lon="4.65074">
        <ele>286.265509</ele>
        <time>2021-09-12T07:30:06.000Z</time>
      </trkpt>
      <trkpt lat="46.39589" lon="4.65074">
        <ele>286.387608</ele>
        <time>2021-09-12T07:30:08.000Z</time>
      </trkpt>
      <trkpt lat="46.3962" lon="4.65075">
        <ele>286.827673</ele>
        <time>2021-09-12T07:30:14.000Z</time>
      </trkpt>
      <trkpt lat="46.39661" lon="4.65077">
        <ele>287.388611</ele>
        <time>2021-09-12T07:30:20.000Z</time>
      </trkpt>
      <trkpt lat="46.39709" lon="4.6508">
        <ele>286.893217</ele>
        <time>2021-09-12T07:30:26.000Z</time>
      </trkpt>
      <trkpt lat="46.3977" lon="4.65082">
        <ele>285.927573</ele>
        <time>2021-09-12T07:30:33.000Z</time>
      </trkpt>
      <trkpt lat="46.39779" lon="4.65082">
        <ele>285.785358</ele>
        <time>2021-09-12T07:30:34.000Z</time>
      </trkpt>
      <trkpt lat="46.39813" lon="4.65083">
        <ele>285.249608</ele>
        <time>2021-09-12T07:30:38.000Z</time>
      </trkpt>
      <trkpt lat="46.39827" lon="4.65084">
        <ele>285.018865</ele>
        <time>2021-09-12T07:30:40.000Z</time>
      </trkpt>
      <trkpt lat="46.39839" lon="4.65084">
        <ele>284.830818</ele>
        <time>2021-09-12T07:30:42.000Z</time>
      </trkpt>
      <trkpt lat="46.39852" lon="4.651">
        <ele>284.584682</ele>
        <time>2021-09-12T07:30:43.000Z</time>
      </trkpt>
      <trkpt lat="46.39852" lon="4.65105">
        <ele>284.538098</ele>
        <time>2021-09-12T07:30:44.000Z</time>
      </trkpt>
      <trkpt lat="46.39847" lon="4.65116">
        <ele>284.426364</ele>
        <time>2021-09-12T07:30:45.000Z</time>
      </trkpt>
      <trkpt lat="46.39843" lon="4.65123">
        <ele>284.340934</ele>
        <time>2021-09-12T07:30:46.000Z</time>
      </trkpt>
      <trkpt lat="46.39834" lon="4.65134">
        <ele>284.196862</ele>
        <time>2021-09-12T07:30:48.000Z</time>
      </trkpt>
      <trkpt lat="46.39824" lon="4.65139">
        <ele>284.062751</ele>
        <time>2021-09-12T07:30:50.000Z</time>
      </trkpt>
      <trkpt lat="46.39815" lon="4.65141">
        <ele>283.943744</ele>
        <time>2021-09-12T07:30:52.000Z</time>
      </trkpt>
      <trkpt lat="46.39779" lon="4.65151">
        <ele>283.480099</ele>
        <time>2021-09-12T07:31:00.000Z</time>
      </trkpt>
      <trkpt lat="46.3974" lon="4.65161">
        <ele>282.981355</ele>
        <time>2021-09-12T07:31:09.000Z</time>
      </trkpt>
      <trkpt lat="46.39707" lon="4.65171">
        <ele>282.558889</ele>
        <time>2021-09-12T07:31:17.000Z</time>
      </trkpt>
      <trkpt lat="46.39679" lon="4.65184">
        <ele>282.538338</ele>
        <time>2021-09-12T07:31:24.000Z</time>
      </trkpt>
      <trkpt lat="46.3965" lon="4.65206">
        <ele>282.842943</ele>
        <time>2021-09-12T07:31:32.000Z</time>
      </trkpt>
      <trkpt lat="46.39626" lon="4.65226">
        <ele>283.100528</ele>
        <time>2021-09-12T07:31:39.000Z</time>
      </trkpt>
      <trkpt lat="46.39604" lon="4.65252">
        <ele>283.358357</ele>
        <time>2021-09-12T07:31:46.000Z</time>
      </trkpt>
      <trkpt lat="46.39587" lon="4.65277">
        <ele>283.577646</ele>
        <time>2021-09-12T07:31:52.000Z</time>
      </trkpt>
      <trkpt lat="46.39562" lon="4.65321">
        <ele>283.940685</ele>
        <time>2021-09-12T07:32:02.000Z</time>
      </trkpt>
      <trkpt lat="46.39548" lon="4.65347">
        <ele>284.456751</ele>
        <time>2021-09-12T07:32:08.000Z</time>
      </trkpt>
      <trkpt lat="46.39536" lon="4.65368">
        <ele>285.09974</ele>
        <time>2021-09-12T07:32:13.000Z</time>
      </trkpt>
      <trkpt lat="46.3952" lon="4.65393">
        <ele>285.914908</ele>
        <time>2021-09-12T07:32:20.000Z</time>
      </trkpt>
      <trkpt lat="46.39507" lon="4.65416">
        <ele>286.652371</ele>
        <time>2021-09-12T07:32:27.000Z</time>
      </trkpt>
      <trkpt lat="46.39487" lon="4.65449">
        <ele>287.688382</ele>
        <time>2021-09-12T07:32:37.000Z</time>
      </trkpt>
      <trkpt lat="46.39474" lon="4.6547">
        <ele>288.374521</ele>
        <time>2021-09-12T07:32:44.000Z</time>
      </trkpt>
      <trkpt lat="46.3946" lon="4.65491">
        <ele>289.06668</ele>
        <time>2021-09-12T07:32:51.000Z</time>
      </trkpt>
      <trkpt lat="46.39446" lon="4.65509">
        <ele>289.733177</ele>
        <time>2021-09-12T07:32:58.000Z</time>
      </trkpt>
      <trkpt lat="46.39435" lon="4.65524">
        <ele>290.243686</ele>
        <time>2021-09-12T07:33:04.000Z</time>
      </trkpt>
      <trkpt lat="46.39419" lon="4.65546">
        <ele>291.329473</ele>
        <time>2021-09-12T07:33:12.000Z</time>
      </trkpt>
      <trkpt lat="46.39405" lon="4.65564">
        <ele>292.254978</ele>
        <time>2021-09-12T07:33:19.000Z</time>
      </trkpt>
      <trkpt lat="46.39389" lon="4.65585">
        <ele>293.348635</ele>
        <time>2021-09-12T07:33:27.000Z</time>
      </trkpt>
      <trkpt lat="46.39369" lon="4.65612">
        <ele>294.711601</ele>
        <time>2021-09-12T07:33:37.000Z</time>
      </trkpt>
      <trkpt lat="46.39353" lon="4.65634">
        <ele>295.831722</ele>
        <time>2021-09-12T07:33:45.000Z</time>
      </trkpt>
      <trkpt lat="46.39336" lon="4.65656">
        <ele>296.965258</ele>
        <time>2021-09-12T07:33:53.000Z</time>
      </trkpt>
      <trkpt lat="46.39323" lon="4.65673">
        <ele>297.840188</ele>
        <time>2021-09-12T07:33:59.000Z</time>
      </trkpt>
      <trkpt lat="46.39304" lon="4.65698">
        <ele>299.109372</ele>
        <time>2021-09-12T07:34:09.000Z</time>
      </trkpt>
      <trkpt lat="46.39291" lon="4.65716">
        <ele>300.280893</ele>
        <time>2021-09-12T07:34:17.000Z</time>
      </trkpt>
      <trkpt lat="46.39274" lon="4.65739">
        <ele>301.843239</ele>
        <time>2021-09-12T07:34:27.000Z</time>
      </trkpt>
      <trkpt lat="46.39261" lon="4.65757">
        <ele>303.081404</ele>
        <time>2021-09-12T07:34:35.000Z</time>
      </trkpt>
      <trkpt lat="46.39251" lon="4.65769">
        <ele>303.975866</ele>
        <time>2021-09-12T07:34:41.000Z</time>
      </trkpt>
      <trkpt lat="46.3924" lon="4.65784">
        <ele>304.967948</ele>
        <time>2021-09-12T07:34:48.000Z</time>
      </trkpt>
      <trkpt lat="46.39224" lon="4.65805">
        <ele>306.463559</ele>
        <time>2021-09-12T07:34:58.000Z</time>
      </trkpt>
      <trkpt lat="46.39213" lon="4.6582">
        <ele>307.463813</ele>
        <time>2021-09-12T07:35:05.000Z</time>
      </trkpt>
      <trkpt lat="46.39201" lon="4.65837">
        <ele>308.617102</ele>
        <time>2021-09-12T07:35:13.000Z</time>
      </trkpt>
      <trkpt lat="46.39185" lon="4.65859">
        <ele>310.122272</ele>
        <time>2021-09-12T07:35:23.000Z</time>
      </trkpt>
      <trkpt lat="46.39175" lon="4.65871">
        <ele>311.00039</ele>
        <time>2021-09-12T07:35:29.000Z</time>
      </trkpt>
      <trkpt lat="46.39163" lon="4.65888">
        <ele>312.162385</ele>
        <time>2021-09-12T07:35:37.000Z</time>
      </trkpt>
      <trkpt lat="46.39152" lon="4.65903">
        <ele>313.208044</ele>
        <time>2021-09-12T07:35:44.000Z</time>
      </trkpt>
      <trkpt lat="46.39141" lon="4.65919">
        <ele>314.222475</ele>
        <time>2021-09-12T07:35:51.000Z</time>
      </trkpt>
      <trkpt lat="46.39137" lon="4.65925">
        <ele>314.640451</ele>
        <time>2021-09-12T07:35:54.000Z</time>
      </trkpt>
      <trkpt lat="46.39133" lon="4.65931">
        <ele>315.066669</ele>
        <time>2021-09-12T07:35:57.000Z</time>
      </trkpt>
      <trkpt lat="46.39119" lon="4.65951">
        <ele>316.373746</ele>
        <time>2021-09-12T07:36:06.000Z</time>
      </trkpt>
      <trkpt lat="46.3911" lon="4.65964">
        <ele>317.256097</ele>
        <time>2021-09-12T07:36:12.000Z</time>
      </trkpt>
      <trkpt lat="46.39096" lon="4.65986">
        <ele>318.700168</ele>
        <time>2021-09-12T07:36:22.000Z</time>
      </trkpt>
      <trkpt lat="46.39087" lon="4.66003">
        <ele>319.725576</ele>
        <time>2021-09-12T07:36:29.000Z</time>
      </trkpt>
      <trkpt lat="46.39079" lon="4.66017">
        <ele>320.605236</ele>
        <time>2021-09-12T07:36:35.000Z</time>
      </trkpt>
      <trkpt lat="46.39068" lon="4.66037">
        <ele>321.799112</ele>
        <time>2021-09-12T07:36:43.000Z</time>
      </trkpt>
      <trkpt lat="46.39056" lon="4.66058">
        <ele>323.087469</ele>
        <time>2021-09-12T07:36:51.000Z</time>
      </trkpt>
      <trkpt lat="46.39045" lon="4.66079">
        <ele>324.221726</ele>
        <time>2021-09-12T07:36:59.000Z</time>
      </trkpt>
      <trkpt lat="46.39035" lon="4.66099">
        <ele>324.971601</ele>
        <time>2021-09-12T07:37:07.000Z</time>
      </trkpt>
      <trkpt lat="46.39026" lon="4.66116">
        <ele>325.645322</ele>
        <time>2021-09-12T07:37:14.000Z</time>
      </trkpt>
      <trkpt lat="46.39017" lon="4.66132">
        <ele>326.258494</ele>
        <time>2021-09-12T07:37:20.000Z</time>
      </trkpt>
      <trkpt lat="46.39009" lon="4.66149">
        <ele>326.901834</ele>
        <time>2021-09-12T07:37:26.000Z</time>
      </trkpt>
      <trkpt lat="46.38997" lon="4.66173">
        <ele>327.79792</ele>
        <time>2021-09-12T07:37:33.000Z</time>
      </trkpt>
      <trkpt lat="46.38984" lon="4.66206">
        <ele>328.97854</ele>
        <time>2021-09-12T07:37:41.000Z</time>
      </trkpt>
      <trkpt lat="46.38973" lon="4.66237">
        <ele>330.045276</ele>
        <time>2021-09-12T07:37:47.000Z</time>
      </trkpt>
      <trkpt lat="46.3897" lon="4.66248">
        <ele>330.404754</ele>
        <time>2021-09-12T07:37:49.000Z</time>
      </trkpt>
      <trkpt lat="46.38963" lon="4.66271">
        <ele>331.182158</ele>
        <time>2021-09-12T07:37:53.000Z</time>
      </trkpt>
      <trkpt lat="46.38962" lon="4.66278">
        <ele>331.391491</ele>
        <time>2021-09-12T07:37:54.000Z</time>
      </trkpt>
      <trkpt lat="46.38955" lon="4.66307">
        <ele>332.077356</ele>
        <time>2021-09-12T07:37:58.000Z</time>
      </trkpt>
      <trkpt lat="46.38943" lon="4.66372">
        <ele>332.720816</ele>
        <time>2021-09-12T07:38:06.000Z</time>
      </trkpt>
      <trkpt lat="46.38939" lon="4.66414">
        <ele>333.132583</ele>
        <time>2021-09-12T07:38:12.000Z</time>
      </trkpt>
      <trkpt lat="46.38938" lon="4.66436">
        <ele>333.345749</ele>
        <time>2021-09-12T07:38:17.000Z</time>
      </trkpt>
      <trkpt lat="46.38942" lon="4.66466">
        <ele>333.641515</ele>
        <time>2021-09-12T07:38:23.000Z</time>
      </trkpt>
      <trkpt lat="46.38955" lon="4.66484">
        <ele>333.889739</ele>
        <time>2021-09-12T07:38:28.000Z</time>
      </trkpt>
      <trkpt lat="46.38963" lon="4.66487">
        <ele>333.996927</ele>
        <time>2021-09-12T07:38:32.000Z</time>
      </trkpt>
      <trkpt lat="46.38965" lon="4.66486">
        <ele>334.035998</ele>
        <time>2021-09-12T07:38:34.000Z</time>
      </trkpt>
      <trkpt lat="46.3897" lon="4.66486">
        <ele>334.101626</ele>
        <time>2021-09-12T07:38:37.000Z</time>
      </trkpt>
      <trkpt lat="46.38981" lon="4.66485">
        <ele>334.251412</ele>
        <time>2021-09-12T07:38:42.000Z</time>
      </trkpt>
      <trkpt lat="46.38988" lon="4.66481">
        <ele>334.356338</ele>
        <time>2021-09-12T07:38:46.000Z</time>
      </trkpt>
      <trkpt lat="46.39" lon="4.66473">
        <ele>334.626668</ele>
        <time>2021-09-12T07:38:52.000Z</time>
      </trkpt>
      <trkpt lat="46.39015" lon="4.66463">
        <ele>335.077038</ele>
        <time>2021-09-12T07:38:57.000Z</time>
      </trkpt>
      <trkpt lat="46.39029" lon="4.66452">
        <ele>335.5308</ele>
        <time>2021-09-12T07:39:01.000Z</time>
      </trkpt>
      <trkpt lat="46.39048" lon="4.66431">
        <ele>336.215936</ele>
        <time>2021-09-12T07:39:07.000Z</time>
      </trkpt>
      <trkpt lat="46.39055" lon="4.66424">
        <ele>336.446198</ele>
        <time>2021-09-12T07:39:09.000Z</time>
      </trkpt>
      <trkpt lat="46.39067" lon="4.66409">
        <ele>336.897379</ele>
        <time>2021-09-12T07:39:13.000Z</time>
      </trkpt>
      <trkpt lat="46.39085" lon="4.66391">
        <ele>337.502891</ele>
        <time>2021-09-12T07:39:19.000Z</time>
      </trkpt>
      <trkpt lat="46.39103" lon="4.66379">
        <ele>338.066665</ele>
        <time>2021-09-12T07:39:25.000Z</time>
      </trkpt>
      <trkpt lat="46.3912" lon="4.66369">
        <ele>338.597048</ele>
        <time>2021-09-12T07:39:31.000Z</time>
      </trkpt>
      <trkpt lat="46.39138" lon="4.66367">
        <ele>339.112009</ele>
        <time>2021-09-12T07:39:37.000Z</time>
      </trkpt>
      <trkpt lat="46.39147" lon="4.66366">
        <ele>339.364308</ele>
        <time>2021-09-12T07:39:40.000Z</time>
      </trkpt>
      <trkpt lat="46.39151" lon="4.66365">
        <ele>339.469318</ele>
        <time>2021-09-12T07:39:41.000Z</time>
      </trkpt>
      <trkpt lat="46.39177" lon="4.66361">
        <ele>340.243801</ele>
        <time>2021-09-12T07:39:48.000Z</time>
      </trkpt>
      <trkpt lat="46.39207" lon="4.66357">
        <ele>341.154067</ele>
        <time>2021-09-12T07:39:56.000Z</time>
      </trkpt>
      <trkpt lat="46.3922" lon="4.66366">
        <ele>341.577019</ele>
        <time>2021-09-12T07:40:00.000Z</time>
      </trkpt>
      <trkpt lat="46.39227" lon="4.6639">
        <ele>342.111182</ele>
        <time>2021-09-12T07:40:05.000Z</time>
      </trkpt>
      <trkpt lat="46.39223" lon="4.66412">
        <ele>342.59582</ele>
        <time>2021-09-12T07:40:10.000Z</time>
      </trkpt>
      <trkpt lat="46.39212" lon="4.66425">
        <ele>343.005753</ele>
        <time>2021-09-12T07:40:14.000Z</time>
      </trkpt>
      <trkpt lat="46.3919" lon="4.66423">
        <ele>343.662976</ele>
        <time>2021-09-12T07:40:20.000Z</time>
      </trkpt>
      <trkpt lat="46.39165" lon="4.66409">
        <ele>344.460389</ele>
        <time>2021-09-12T07:40:29.000Z</time>
      </trkpt>
      <trkpt lat="46.39147" lon="4.66402">
        <ele>345.004058</ele>
        <time>2021-09-12T07:40:36.000Z</time>
      </trkpt>
      <trkpt lat="46.39128" lon="4.66405">
        <ele>345.499617</ele>
        <time>2021-09-12T07:40:43.000Z</time>
      </trkpt>
      <trkpt lat="46.39111" lon="4.66417">
        <ele>345.981244</ele>
        <time>2021-09-12T07:40:50.000Z</time>
      </trkpt>
      <trkpt lat="46.39094" lon="4.66436">
        <ele>346.531378</ele>
        <time>2021-09-12T07:40:58.000Z</time>
      </trkpt>
      <trkpt lat="46.39082" lon="4.66451">
        <ele>346.925634</ele>
        <time>2021-09-12T07:41:04.000Z</time>
      </trkpt>
      <trkpt lat="46.3907" lon="4.66466">
        <ele>347.334196</ele>
        <time>2021-09-12T07:41:10.000Z</time>
      </trkpt>
      <trkpt lat="46.39059" lon="4.66485">
        <ele>347.774623</ele>
        <time>2021-09-12T07:41:16.000Z</time>
      </trkpt>
      <trkpt lat="46.39046" lon="4.66509">
        <ele>348.306268</ele>
        <time>2021-09-12T07:41:23.000Z</time>
      </trkpt>
      <trkpt lat="46.39031" lon="4.66538">
        <ele>348.944598</ele>
        <time>2021-09-12T07:41:31.000Z</time>
      </trkpt>
      <trkpt lat="46.39017" lon="4.66568">
        <ele>349.585793</ele>
        <time>2021-09-12T07:41:39.000Z</time>
      </trkpt>
      <trkpt lat="46.39003" lon="4.66598">
        <ele>350.19544</ele>
        <time>2021-09-12T07:41:47.000Z</time>
      </trkpt>
      <trkpt lat="46.38989" lon="4.66621">
        <ele>350.717884</ele>
        <time>2021-09-12T07:41:54.000Z</time>
      </trkpt>
      <trkpt lat="46.38974" lon="4.66641">
        <ele>351.24315</ele>
        <time>2021-09-12T07:42:01.000Z</time>
      </trkpt>
      <trkpt lat="46.38955" lon="4.6666">
        <ele>351.792067</ele>
        <time>2021-09-12T07:42:08.000Z</time>
      </trkpt>
      <trkpt lat="46.38934" lon="4.66681">
        <ele>352.423191</ele>
        <time>2021-09-12T07:42:16.000Z</time>
      </trkpt>
      <trkpt lat="46.38909" lon="4.66706">
        <ele>353.190526</ele>
        <time>2021-09-12T07:42:26.000Z</time>
      </trkpt>
      <trkpt lat="46.38894" lon="4.66722">
        <ele>353.6423</ele>
        <time>2021-09-12T07:42:32.000Z</time>
      </trkpt>
      <trkpt lat="46.38875" lon="4.66741">
        <ele>353.834805</ele>
        <time>2021-09-12T07:42:40.000Z</time>
      </trkpt>
      <trkpt lat="46.38857" lon="4.66758">
        <ele>353.597849</ele>
        <time>2021-09-12T07:42:47.000Z</time>
      </trkpt>
      <trkpt lat="46.37616" lon="4.68837">
        <ele>332.673361</ele>
        <time>2021-09-12T07:52:25.000Z</time>
      </trkpt>
      <trkpt lat="46.37553" lon="4.68845">
        <ele>331.586679</ele>
        <time>2021-09-12T07:52:32.000Z</time>
      </trkpt>
      <trkpt lat="46.37544" lon="4.68846">
        <ele>331.19934</ele>
        <time>2021-09-12T07:52:33.000Z</time>
      </trkpt>
      <trkpt lat="46.3749" lon="4.68852">
        <ele>328.828465</ele>
        <time>2021-09-12T07:52:39.000Z</time>
      </trkpt>
      <trkpt lat="46.37481" lon="4.68853">
        <ele>328.428257</ele>
        <time>2021-09-12T07:52:40.000Z</time>
      </trkpt>
      <trkpt lat="46.37427" lon="4.68858">
        <ele>326.049547</ele>
        <time>2021-09-12T07:52:46.000Z</time>
      </trkpt>
      <trkpt lat="46.37418" lon="4.68859">
        <ele>325.658306</ele>
        <time>2021-09-12T07:52:47.000Z</time>
      </trkpt>
      <trkpt lat="46.37358" lon="4.68866">
        <ele>322.761933</ele>
        <time>2021-09-12T07:52:54.000Z</time>
      </trkpt>
      <trkpt lat="46.37325" lon="4.68876">
        <ele>321.040184</ele>
        <time>2021-09-12T07:52:58.000Z</time>
      </trkpt>
      <trkpt lat="46.37318" lon="4.6888">
        <ele>320.616377</ele>
        <time>2021-09-12T07:52:59.000Z</time>
      </trkpt>
      <trkpt lat="46.37311" lon="4.68886">
        <ele>320.21802</ele>
        <time>2021-09-12T07:53:00.000Z</time>
      </trkpt>
      <trkpt lat="46.37292" lon="4.68907">
        <ele>318.971278</ele>
        <time>2021-09-12T07:53:03.000Z</time>
      </trkpt>
      <trkpt lat="46.3726" lon="4.68945">
        <ele>316.827011</ele>
        <time>2021-09-12T07:53:08.000Z</time>
      </trkpt>
      <trkpt lat="46.37244" lon="4.68956">
        <ele>315.940265</ele>
        <time>2021-09-12T07:53:10.000Z</time>
      </trkpt>
      <trkpt lat="46.37244" lon="4.68956">
        <ele>315.940265</ele>
        <time>2021-09-12T07:53:11.000Z</time>
      </trkpt>
      <trkpt lat="46.37212" lon="4.68969">
        <ele>314.300005</ele>
        <time>2021-09-12T07:53:14.000Z</time>
      </trkpt>
      <trkpt lat="46.37152" lon="4.68984">
        <ele>311.566571</ele>
        <time>2021-09-12T07:53:21.000Z</time>
      </trkpt>
      <trkpt lat="46.37143" lon="4.68987">
        <ele>311.163731</ele>
        <time>2021-09-12T07:53:22.000Z</time>
      </trkpt>
      <trkpt lat="46.3709" lon="4.69001">
        <ele>308.695716</ele>
        <time>2021-09-12T07:53:28.000Z</time>
      </trkpt>
      <trkpt lat="46.37062" lon="4.69008">
        <ele>307.454501</ele>
        <time>2021-09-12T07:53:31.000Z</time>
      </trkpt>
      <trkpt lat="46.37002" lon="4.69024">
        <ele>304.864955</ele>
        <time>2021-09-12T07:53:38.000Z</time>
      </trkpt>
      <trkpt lat="46.36984" lon="4.69028">
        <ele>304.133118</ele>
        <time>2021-09-12T07:53:40.000Z</time>
      </trkpt>
      <trkpt lat="46.36931" lon="4.69041">
        <ele>301.896477</ele>
        <time>2021-09-12T07:53:46.000Z</time>
      </trkpt>
      <trkpt lat="46.36913" lon="4.69045">
        <ele>301.16511</ele>
        <time>2021-09-12T07:53:48.000Z</time>
      </trkpt>
      <trkpt lat="46.36854" lon="4.6906">
        <ele>298.780409</ele>
        <time>2021-09-12T07:53:55.000Z</time>
      </trkpt>
      <trkpt lat="46.36795" lon="4.69074">
        <ele>296.686848</ele>
        <time>2021-09-12T07:54:02.000Z</time>
      </trkpt>
      <trkpt lat="46.36787" lon="4.69076">
        <ele>296.388412</ele>
        <time>2021-09-12T07:54:03.000Z</time>
      </trkpt>
      <trkpt lat="46.36729" lon="4.6909">
        <ele>294.283967</ele>
        <time>2021-09-12T07:54:10.000Z</time>
      </trkpt>
      <trkpt lat="46.36676" lon="4.69103">
        <ele>292.462419</ele>
        <time>2021-09-12T07:54:16.000Z</time>
      </trkpt>
      <trkpt lat="46.36615" lon="4.69118">
        <ele>290.435677</ele>
        <time>2021-09-12T07:54:23.000Z</time>
      </trkpt>
      <trkpt lat="46.36573" lon="4.6913">
        <ele>289.029592</ele>
        <time>2021-09-12T07:54:28.000Z</time>
      </trkpt>
      <trkpt lat="46.3655" lon="4.69138">
        <ele>288.234732</ele>
        <time>2021-09-12T07:54:31.000Z</time>
      </trkpt>
      <trkpt lat="46.36537" lon="4.6915">
        <ele>287.724161</ele>
        <time>2021-09-12T07:54:33.000Z</time>
      </trkpt>
      <trkpt lat="46.3652" lon="4.69187">
        <ele>286.823222</ele>
        <time>2021-09-12T07:54:37.000Z</time>
      </trkpt>
      <trkpt lat="46.3651" lon="4.69204">
        <ele>286.4352</ele>
        <time>2021-09-12T07:54:39.000Z</time>
      </trkpt>
      <trkpt lat="46.365" lon="4.69219">
        <ele>286.056875</ele>
        <time>2021-09-12T07:54:41.000Z</time>
      </trkpt>
      <trkpt lat="46.36459" lon="4.69268">
        <ele>284.680678</ele>
        <time>2021-09-12T07:54:48.000Z</time>
      </trkpt>
      <trkpt lat="46.36421" lon="4.69311">
        <ele>283.449044</ele>
        <time>2021-09-12T07:54:55.000Z</time>
      </trkpt>
      <trkpt lat="46.36394" lon="4.69338">
        <ele>282.617988</ele>
        <time>2021-09-12T07:55:00.000Z</time>
      </trkpt>
      <trkpt lat="46.36377" lon="4.69352">
        <ele>282.098466</ele>
        <time>2021-09-12T07:55:03.000Z</time>
      </trkpt>
      <trkpt lat="46.36363" lon="4.69359">
        <ele>281.740584</ele>
        <time>2021-09-12T07:55:05.000Z</time>
      </trkpt>
      <trkpt lat="46.36318" lon="4.69368">
        <ele>280.571291</ele>
        <time>2021-09-12T07:55:11.000Z</time>
      </trkpt>
      <trkpt lat="46.36264" lon="4.69379">
        <ele>279.179768</ele>
        <time>2021-09-12T07:55:18.000Z</time>
      </trkpt>
      <trkpt lat="46.3623" lon="4.69396">
        <ele>278.270305</ele>
        <time>2021-09-12T07:55:23.000Z</time>
      </trkpt>
      <trkpt lat="46.36179" lon="4.69406">
        <ele>276.982663</ele>
        <time>2021-09-12T07:55:30.000Z</time>
      </trkpt>
      <trkpt lat="46.3614" lon="4.69419">
        <ele>275.984812</ele>
        <time>2021-09-12T07:55:36.000Z</time>
      </trkpt>
      <trkpt lat="46.36122" lon="4.69423">
        <ele>275.516474</ele>
        <time>2021-09-12T07:55:39.000Z</time>
      </trkpt>
      <trkpt lat="46.3611" lon="4.69421">
        <ele>275.228886</ele>
        <time>2021-09-12T07:55:41.000Z</time>
      </trkpt>
      <trkpt lat="46.36105" lon="4.69421">
        <ele>275.093763</ele>
        <time>2021-09-12T07:55:42.000Z</time>
      </trkpt>
      <trkpt lat="46.36091" lon="4.69415">
        <ele>274.732225</ele>
        <time>2021-09-12T07:55:45.000Z</time>
      </trkpt>
      <trkpt lat="46.36086" lon="4.69419">
        <ele>274.595236</ele>
        <time>2021-09-12T07:55:46.000Z</time>
      </trkpt>
      <trkpt lat="46.36083" lon="4.69422">
        <ele>274.493435</ele>
        <time>2021-09-12T07:55:47.000Z</time>
      </trkpt>
      <trkpt lat="46.3607" lon="4.6943">
        <ele>274.144141</ele>
        <time>2021-09-12T07:55:50.000Z</time>
      </trkpt>
      <trkpt lat="46.36062" lon="4.69433">
        <ele>273.936443</ele>
        <time>2021-09-12T07:55:53.000Z</time>
      </trkpt>
      <trkpt lat="46.36044" lon="4.69441">
        <ele>273.479129</ele>
        <time>2021-09-12T07:55:56.000Z</time>
      </trkpt>
      <trkpt lat="46.36026" lon="4.69443">
        <ele>272.666444</ele>
        <time>2021-09-12T07:55:59.000Z</time>
      </trkpt>
      <trkpt lat="46.36019" lon="4.69445">
        <ele>272.355891</ele>
        <time>2021-09-12T07:56:00.000Z</time>
      </trkpt>
      <trkpt lat="46.36011" lon="4.69449">
        <ele>272.008807</ele>
        <time>2021-09-12T07:56:01.000Z</time>
      </trkpt>
      <trkpt lat="46.35998" lon="4.69462">
        <ele>271.289397</ele>
        <time>2021-09-12T07:56:03.000Z</time>
      </trkpt>
      <trkpt lat="46.35976" lon="4.69488">
        <ele>270.066918</ele>
        <time>2021-09-12T07:56:07.000Z</time>
      </trkpt>
      <trkpt lat="46.35968" lon="4.69499">
        <ele>269.564522</ele>
        <time>2021-09-12T07:56:09.000Z</time>
      </trkpt>
      <trkpt lat="46.3597" lon="4.69505">
        <ele>269.353299</ele>
        <time>2021-09-12T07:56:10.000Z</time>
      </trkpt>
      <trkpt lat="46.35972" lon="4.69513">
        <ele>269.10541</ele>
        <time>2021-09-12T07:56:11.000Z</time>
      </trkpt>
      <trkpt lat="46.3597" lon="4.6953">
        <ele>268.573609</ele>
        <time>2021-09-12T07:56:13.000Z</time>
      </trkpt>
      <trkpt lat="46.35965" lon="4.69542">
        <ele>268.156392</ele>
        <time>2021-09-12T07:56:15.000Z</time>
      </trkpt>
      <trkpt lat="46.35952" lon="4.69573">
        <ele>267.042003</ele>
        <time>2021-09-12T07:56:19.000Z</time>
      </trkpt>
      <trkpt lat="46.35948" lon="4.69581">
        <ele>266.749693</ele>
        <time>2021-09-12T07:56:20.000Z</time>
      </trkpt>
      <trkpt lat="46.35945" lon="4.69589">
        <ele>266.484939</ele>
        <time>2021-09-12T07:56:21.000Z</time>
      </trkpt>
      <trkpt lat="46.35937" lon="4.69612">
        <ele>265.706042</ele>
        <time>2021-09-12T07:56:24.000Z</time>
      </trkpt>
      <trkpt lat="46.35928" lon="4.69645">
        <ele>264.991083</ele>
        <time>2021-09-12T07:56:28.000Z</time>
      </trkpt>
      <trkpt lat="46.35926" lon="4.69653">
        <ele>264.83755</ele>
        <time>2021-09-12T07:56:29.000Z</time>
      </trkpt>
      <trkpt lat="46.35923" lon="4.69661">
        <ele>264.687384</ele>
        <time>2021-09-12T07:56:30.000Z</time>
      </trkpt>
      <trkpt lat="46.35918" lon="4.69677">
        <ele>264.360057</ele>
        <time>2021-09-12T07:56:32.000Z</time>
      </trkpt>
      <trkpt lat="46.35914" lon="4.69681">
        <ele>264.230487</ele>
        <time>2021-09-12T07:56:33.000Z</time>
      </trkpt>
      <trkpt lat="46.35891" lon="4.69709">
        <ele>263.435927</ele>
        <time>2021-09-12T07:56:39.000Z</time>
      </trkpt>
      <trkpt lat="46.35884" lon="4.69717">
        <ele>263.193926</ele>
        <time>2021-09-12T07:56:41.000Z</time>
      </trkpt>
      <trkpt lat="46.35873" lon="4.6973">
        <ele>262.822354</ele>
        <time>2021-09-12T07:56:44.000Z</time>
      </trkpt>
      <trkpt lat="46.35869" lon="4.69735">
        <ele>262.694456</ele>
        <time>2021-09-12T07:56:45.000Z</time>
      </trkpt>
      <trkpt lat="46.35855" lon="4.69758">
        <ele>262.117004</ele>
        <time>2021-09-12T07:56:49.000Z</time>
      </trkpt>
      <trkpt lat="46.35824" lon="4.6981">
        <ele>260.882539</ele>
        <time>2021-09-12T07:56:57.000Z</time>
      </trkpt>
      <trkpt lat="46.35809" lon="4.69854">
        <ele>260.064865</ele>
        <time>2021-09-12T07:57:03.000Z</time>
      </trkpt>
      <trkpt lat="46.35791" lon="4.69904">
        <ele>259.14194</ele>
        <time>2021-09-12T07:57:10.000Z</time>
      </trkpt>
      <trkpt lat="46.35785" lon="4.69905">
        <ele>259.01353</ele>
        <time>2021-09-12T07:57:12.000Z</time>
      </trkpt>
      <trkpt lat="46.35759" lon="4.69885">
        <ele>258.303867</ele>
        <time>2021-09-12T07:57:17.000Z</time>
      </trkpt>
      <trkpt lat="46.3572" lon="4.69857">
        <ele>257.280617</ele>
        <time>2021-09-12T07:57:23.000Z</time>
      </trkpt>
      <trkpt lat="46.35702" lon="4.69847">
        <ele>256.817418</ele>
        <time>2021-09-12T07:57:26.000Z</time>
      </trkpt>
      <trkpt lat="46.35697" lon="4.6985">
        <ele>256.686425</ele>
        <time>2021-09-12T07:57:27.000Z</time>
      </trkpt>
      <trkpt lat="46.35677" lon="4.69877">
        <ele>255.975757</ele>
        <time>2021-09-12T07:57:31.000Z</time>
      </trkpt>
      <trkpt lat="46.3565" lon="4.69915">
        <ele>254.990665</ele>
        <time>2021-09-12T07:57:36.000Z</time>
      </trkpt>
      <trkpt lat="46.35639" lon="4.69931">
        <ele>254.572104</ele>
        <time>2021-09-12T07:57:38.000Z</time>
      </trkpt>
      <trkpt lat="46.35624" lon="4.69952">
        <ele>254.013817</ele>
        <time>2021-09-12T07:57:41.000Z</time>
      </trkpt>
      <trkpt lat="46.35607" lon="4.69979">
        <ele>253.354051</ele>
        <time>2021-09-12T07:57:46.000Z</time>
      </trkpt>
      <trkpt lat="46.35601" lon="4.69992">
        <ele>253.068046</ele>
        <time>2021-09-12T07:57:50.000Z</time>
      </trkpt>
      <trkpt lat="46.35587" lon="4.70019">
        <ele>252.439649</ele>
        <time>2021-09-12T07:57:56.000Z</time>
      </trkpt>
      <trkpt lat="46.35578" lon="4.70035">
        <ele>252.067894</ele>
        <time>2021-09-12T07:57:59.000Z</time>
      </trkpt>
      <trkpt lat="46.35574" lon="4.7005">
        <ele>251.80216</ele>
        <time>2021-09-12T07:58:01.000Z</time>
      </trkpt>
      <trkpt lat="46.35565" lon="4.70063">
        <ele>251.793889</ele>
        <time>2021-09-12T07:58:03.000Z</time>
      </trkpt>
      <trkpt lat="46.3556" lon="4.70068">
        <ele>251.790137</ele>
        <time>2021-09-12T07:58:04.000Z</time>
      </trkpt>
      <trkpt lat="46.35548" lon="4.70081">
        <ele>251.780147</ele>
        <time>2021-09-12T07:58:07.000Z</time>
      </trkpt>
      <trkpt lat="46.35543" lon="4.70085">
        <ele>251.776822</ele>
        <time>2021-09-12T07:58:08.000Z</time>
      </trkpt>
      <trkpt lat="46.35517" lon="4.70113">
        <ele>251.755505</ele>
        <time>2021-09-12T07:58:14.000Z</time>
      </trkpt>
      <trkpt lat="46.35501" lon="4.70136">
        <ele>251.740872</ele>
        <time>2021-09-12T07:58:21.000Z</time>
      </trkpt>
      <trkpt lat="46.35491" lon="4.70153">
        <ele>251.730535</ele>
        <time>2021-09-12T07:58:25.000Z</time>
      </trkpt>
      <trkpt lat="46.35488" lon="4.70158">
        <ele>251.72756</ele>
        <time>2021-09-12T07:58:26.000Z</time>
      </trkpt>
      <trkpt lat="46.35477" lon="4.70174">
        <ele>251.717645</ele>
        <time>2021-09-12T07:58:29.000Z</time>
      </trkpt>
      <trkpt lat="46.35469" lon="4.70185">
        <ele>251.710422</ele>
        <time>2021-09-12T07:58:31.000Z</time>
      </trkpt>
      <trkpt lat="46.35441" lon="4.70224">
        <ele>251.676061</ele>
        <time>2021-09-12T07:58:38.000Z</time>
      </trkpt>
      <trkpt lat="46.35432" lon="4.70233">
        <ele>251.587869</ele>
        <time>2021-09-12T07:58:40.000Z</time>
      </trkpt>
      <trkpt lat="46.35419" lon="4.70248">
        <ele>251.454601</ele>
        <time>2021-09-12T07:58:43.000Z</time>
      </trkpt>
      <trkpt lat="46.35392" lon="4.70279">
        <ele>251.177304</ele>
        <time>2021-09-12T07:58:49.000Z</time>
      </trkpt>
      <trkpt lat="46.35371" lon="4.70319">
        <ele>250.896291</ele>
        <time>2021-09-12T07:58:53.000Z</time>
      </trkpt>
      <trkpt lat="46.35337" lon="4.70373">
        <ele>250.491391</ele>
        <time>2021-09-12T07:58:59.000Z</time>
      </trkpt>
      <trkpt lat="46.35296" lon="4.70434">
        <ele>249.98973</ele>
        <time>2021-09-12T07:59:04.000Z</time>
      </trkpt>
      <trkpt lat="46.3529" lon="4.70443">
        <ele>249.907077</ele>
        <time>2021-09-12T07:59:05.000Z</time>
      </trkpt>
      <trkpt lat="46.35256" lon="4.70495">
        <ele>249.443628</ele>
        <time>2021-09-12T07:59:12.000Z</time>
      </trkpt>
      <trkpt lat="46.35217" lon="4.70553">
        <ele>248.925272</ele>
        <time>2021-09-12T07:59:18.000Z</time>
      </trkpt>
      <trkpt lat="46.35212" lon="4.70562">
        <ele>248.852667</ele>
        <time>2021-09-12T07:59:19.000Z</time>
      </trkpt>
      <trkpt lat="46.35174" lon="4.70618">
        <ele>248.265389</ele>
        <time>2021-09-12T07:59:26.000Z</time>
      </trkpt>
      <trkpt lat="46.35159" lon="4.7064">
        <ele>247.986023</ele>
        <time>2021-09-12T07:59:29.000Z</time>
      </trkpt>
      <trkpt lat="46.3515" lon="4.70654">
        <ele>247.809574</ele>
        <time>2021-09-12T07:59:31.000Z</time>
      </trkpt>
      <trkpt lat="46.35135" lon="4.70676">
        <ele>247.540822</ele>
        <time>2021-09-12T07:59:34.000Z</time>
      </trkpt>
      <trkpt lat="46.35126" lon="4.7069">
        <ele>247.365926</ele>
        <time>2021-09-12T07:59:36.000Z</time>
      </trkpt>
      <trkpt lat="46.35104" lon="4.70726">
        <ele>246.936206</ele>
        <time>2021-09-12T07:59:41.000Z</time>
      </trkpt>
      <trkpt lat="46.35097" lon="4.70738">
        <ele>246.789796</ele>
        <time>2021-09-12T07:59:43.000Z</time>
      </trkpt>
      <trkpt lat="46.35095" lon="4.70743">
        <ele>246.734755</ele>
        <time>2021-09-12T07:59:45.000Z</time>
      </trkpt>
      <trkpt lat="46.35095" lon="4.70743">
        <ele>246.734755</ele>
        <time>2021-09-12T07:59:47.000Z</time>
      </trkpt>
      <trkpt lat="46.35094" lon="4.70745">
        <ele>246.713248</ele>
        <time>2021-09-12T07:59:50.000Z</time>
      </trkpt>
      <trkpt lat="46.3509" lon="4.70751">
        <ele>246.641383</ele>
        <time>2021-09-12T07:59:52.000Z</time>
      </trkpt>
      <trkpt lat="46.35092" lon="4.70763">
        <ele>246.53649</ele>
        <time>2021-09-12T07:59:55.000Z</time>
      </trkpt>
      <trkpt lat="46.35097" lon="4.70778">
        <ele>246.381671</ele>
        <time>2021-09-12T07:59:58.000Z</time>
      </trkpt>
      <trkpt lat="46.35098" lon="4.70784">
        <ele>246.330424</ele>
        <time>2021-09-12T07:59:59.000Z</time>
      </trkpt>
      <trkpt lat="46.35091" lon="4.70817">
        <ele>246.038561</ele>
        <time>2021-09-12T08:00:04.000Z</time>
      </trkpt>
      <trkpt lat="46.35091" lon="4.70817">
        <ele>246.038561</ele>
        <time>2021-09-12T08:00:05.000Z</time>
      </trkpt>
      <trkpt lat="46.35071" lon="4.70842">
        <ele>245.736922</ele>
        <time>2021-09-12T08:00:09.000Z</time>
      </trkpt>
      <trkpt lat="46.35067" lon="4.70849">
        <ele>245.667198</ele>
        <time>2021-09-12T08:00:10.000Z</time>
      </trkpt>
      <trkpt lat="46.35033" lon="4.70901">
        <ele>245.100529</ele>
        <time>2021-09-12T08:00:18.000Z</time>
      </trkpt>
      <trkpt lat="46.35" lon="4.70954">
        <ele>244.533125</ele>
        <time>2021-09-12T08:00:26.000Z</time>
      </trkpt>
      <trkpt lat="46.34971" lon="4.70999">
        <ele>244.135678</ele>
        <time>2021-09-12T08:00:34.000Z</time>
      </trkpt>
      <trkpt lat="46.34947" lon="4.71037">
        <ele>244.043193</ele>
        <time>2021-09-12T08:00:41.000Z</time>
      </trkpt>
      <trkpt lat="46.34927" lon="4.71069">
        <ele>243.963037</ele>
        <time>2021-09-12T08:00:47.000Z</time>
      </trkpt>
      <trkpt lat="46.34914" lon="4.71091">
        <ele>243.909885</ele>
        <time>2021-09-12T08:00:51.000Z</time>
      </trkpt>
      <trkpt lat="46.34908" lon="4.71104">
        <ele>243.881571</ele>
        <time>2021-09-12T08:00:53.000Z</time>
      </trkpt>
      <trkpt lat="46.34903" lon="4.71117">
        <ele>243.853771</ele>
        <time>2021-09-12T08:00:55.000Z</time>
      </trkpt>
      <trkpt lat="46.34902" lon="4.71133">
        <ele>243.825197</ele>
        <time>2021-09-12T08:00:57.000Z</time>
      </trkpt>
      <trkpt lat="46.349" lon="4.71141">
        <ele>243.80868</ele>
        <time>2021-09-12T08:00:58.000Z</time>
      </trkpt>
      <trkpt lat="46.34893" lon="4.71155">
        <ele>243.778293</ele>
        <time>2021-09-12T08:01:00.000Z</time>
      </trkpt>
      <trkpt lat="46.34886" lon="4.71166">
        <ele>243.750989</ele>
        <time>2021-09-12T08:01:02.000Z</time>
      </trkpt>
      <trkpt lat="46.34882" lon="4.71168">
        <ele>243.738205</ele>
        <time>2021-09-12T08:01:03.000Z</time>
      </trkpt>
      <trkpt lat="46.34877" lon="4.71169">
        <ele>243.725364</ele>
        <time>2021-09-12T08:01:04.000Z</time>
      </trkpt>
      <trkpt lat="46.34874" lon="4.71176">
        <ele>243.709835</ele>
        <time>2021-09-12T08:01:06.000Z</time>
      </trkpt>
      <trkpt lat="46.34862" lon="4.71211">
        <ele>243.368738</ele>
        <time>2021-09-12T08:01:11.000Z</time>
      </trkpt>
      <trkpt lat="46.34859" lon="4.71219">
        <ele>243.25875</ele>
        <time>2021-09-12T08:01:12.000Z</time>
      </trkpt>
      <trkpt lat="46.34844" lon="4.7126">
        <ele>242.682912</ele>
        <time>2021-09-12T08:01:17.000Z</time>
      </trkpt>
      <trkpt lat="46.34841" lon="4.71268">
        <ele>242.569343</ele>
        <time>2021-09-12T08:01:18.000Z</time>
      </trkpt>
      <trkpt lat="46.34832" lon="4.7129">
        <ele>242.255039</ele>
        <time>2021-09-12T08:01:21.000Z</time>
      </trkpt>
      <trkpt lat="46.34826" lon="4.71305">
        <ele>242.04829</ele>
        <time>2021-09-12T08:01:23.000Z</time>
      </trkpt>
      <trkpt lat="46.34824" lon="4.71312">
        <ele>241.94889</ele>
        <time>2021-09-12T08:01:24.000Z</time>
      </trkpt>
      <trkpt lat="46.34821" lon="4.71319">
        <ele>241.852494</ele>
        <time>2021-09-12T08:01:25.000Z</time>
      </trkpt>
      <trkpt lat="46.34816" lon="4.71332">
        <ele>241.677094</ele>
        <time>2021-09-12T08:01:27.000Z</time>
      </trkpt>
      <trkpt lat="46.34814" lon="4.71338">
        <ele>241.589929</ele>
        <time>2021-09-12T08:01:28.000Z</time>
      </trkpt>
      <trkpt lat="46.34796" lon="4.71359">
        <ele>241.182868</ele>
        <time>2021-09-12T08:01:33.000Z</time>
      </trkpt>
      <trkpt lat="46.34785" lon="4.71386">
        <ele>240.795804</ele>
        <time>2021-09-12T08:01:38.000Z</time>
      </trkpt>
      <trkpt lat="46.34777" lon="4.71418">
        <ele>240.541919</ele>
        <time>2021-09-12T08:01:43.000Z</time>
      </trkpt>
      <trkpt lat="46.34763" lon="4.71439">
        <ele>240.718251</ele>
        <time>2021-09-12T08:01:47.000Z</time>
      </trkpt>
      <trkpt lat="46.34756" lon="4.71449">
        <ele>240.800193</ele>
        <time>2021-09-12T08:01:49.000Z</time>
      </trkpt>
      <trkpt lat="46.34753" lon="4.71454">
        <ele>240.836464</ele>
        <time>2021-09-12T08:01:50.000Z</time>
      </trkpt>
      <trkpt lat="46.3475" lon="4.71458">
        <ele>240.872902</ele>
        <time>2021-09-12T08:01:52.000Z</time>
      </trkpt>
      <trkpt lat="46.34741" lon="4.71473">
        <ele>240.990687</ele>
        <time>2021-09-12T08:01:54.000Z</time>
      </trkpt>
      <trkpt lat="46.34737" lon="4.71479">
        <ele>241.037801</ele>
        <time>2021-09-12T08:01:55.000Z</time>
      </trkpt>
      <trkpt lat="46.34718" lon="4.71509">
        <ele>241.280295</ele>
        <time>2021-09-12T08:02:00.000Z</time>
      </trkpt>
      <trkpt lat="46.34714" lon="4.71515">
        <ele>241.325685</ele>
        <time>2021-09-12T08:02:01.000Z</time>
      </trkpt>
      <trkpt lat="46.34707" lon="4.71526">
        <ele>241.417456</ele>
        <time>2021-09-12T08:02:03.000Z</time>
      </trkpt>
      <trkpt lat="46.347" lon="4.71537">
        <ele>241.502444</ele>
        <time>2021-09-12T08:02:05.000Z</time>
      </trkpt>
      <trkpt lat="46.34686" lon="4.71557">
        <ele>241.669117</ele>
        <time>2021-09-12T08:02:10.000Z</time>
      </trkpt>
      <trkpt lat="46.34676" lon="4.7156">
        <ele>241.757727</ele>
        <time>2021-09-12T08:02:13.000Z</time>
      </trkpt>
      <trkpt lat="46.34663" lon="4.7156">
        <ele>241.867889</ele>
        <time>2021-09-12T08:02:17.000Z</time>
      </trkpt>
      <trkpt lat="46.3466" lon="4.71562">
        <ele>241.895977</ele>
        <time>2021-09-12T08:02:18.000Z</time>
      </trkpt>
      <trkpt lat="46.34641" lon="4.71577">
        <ele>242.056189</ele>
        <time>2021-09-12T08:02:24.000Z</time>
      </trkpt>
      <trkpt lat="46.34623" lon="4.71591">
        <ele>242.158135</ele>
        <time>2021-09-12T08:02:29.000Z</time>
      </trkpt>
      <trkpt lat="46.34615" lon="4.71592">
        <ele>242.200778</ele>
        <time>2021-09-12T08:02:31.000Z</time>
      </trkpt>
      <trkpt lat="46.34599" lon="4.71592">
        <ele>242.277225</ele>
        <time>2021-09-12T08:02:34.000Z</time>
      </trkpt>
      <trkpt lat="46.34565" lon="4.71611">
        <ele>242.455057</ele>
        <time>2021-09-12T08:02:40.000Z</time>
      </trkpt>
      <trkpt lat="46.34539" lon="4.71624">
        <ele>242.591734</ele>
        <time>2021-09-12T08:02:45.000Z</time>
      </trkpt>
      <trkpt lat="46.34535" lon="4.71627">
        <ele>242.615963</ele>
        <time>2021-09-12T08:02:46.000Z</time>
      </trkpt>
      <trkpt lat="46.34525" lon="4.71632">
        <ele>242.664422</ele>
        <time>2021-09-12T08:02:48.000Z</time>
      </trkpt>
      <trkpt lat="46.34512" lon="4.71639">
        <ele>242.737455</ele>
        <time>2021-09-12T08:02:51.000Z</time>
      </trkpt>
      <trkpt lat="46.34483" lon="4.71655">
        <ele>242.887929</ele>
        <time>2021-09-12T08:02:57.000Z</time>
      </trkpt>
      <trkpt lat="46.34478" lon="4.71657">
        <ele>242.910508</ele>
        <time>2021-09-12T08:02:58.000Z</time>
      </trkpt>
      <trkpt lat="46.34442" lon="4.71684">
        <ele>242.223204</ele>
        <time>2021-09-12T08:03:05.000Z</time>
      </trkpt>
      <trkpt lat="46.34409" lon="4.7171">
        <ele>241.58992</ele>
        <time>2021-09-12T08:03:11.000Z</time>
      </trkpt>
      <trkpt lat="46.34376" lon="4.71742">
        <ele>240.932677</ele>
        <time>2021-09-12T08:03:17.000Z</time>
      </trkpt>
      <trkpt lat="46.34371" lon="4.71747">
        <ele>240.830998</ele>
        <time>2021-09-12T08:03:18.000Z</time>
      </trkpt>
      <trkpt lat="46.34366" lon="4.71752">
        <ele>240.72186</ele>
        <time>2021-09-12T08:03:19.000Z</time>
      </trkpt>
      <trkpt lat="46.34345" lon="4.71777">
        <ele>240.272922</ele>
        <time>2021-09-12T08:03:23.000Z</time>
      </trkpt>
      <trkpt lat="46.34312" lon="4.71817">
        <ele>239.130422</ele>
        <time>2021-09-12T08:03:29.000Z</time>
      </trkpt>
      <trkpt lat="46.3429" lon="4.71842">
        <ele>238.107495</ele>
        <time>2021-09-12T08:03:33.000Z</time>
      </trkpt>
      <trkpt lat="46.34286" lon="4.71848">
        <ele>237.885072</ele>
        <time>2021-09-12T08:03:34.000Z</time>
      </trkpt>
      <trkpt lat="46.34272" lon="4.71866">
        <ele>237.209623</ele>
        <time>2021-09-12T08:03:37.000Z</time>
      </trkpt>
      <trkpt lat="46.34267" lon="4.71874">
        <ele>236.923424</ele>
        <time>2021-09-12T08:03:38.000Z</time>
      </trkpt>
      <trkpt lat="46.3425" lon="4.71896">
        <ele>236.10199</ele>
        <time>2021-09-12T08:03:41.000Z</time>
      </trkpt>
      <trkpt lat="46.34238" lon="4.71907">
        <ele>235.567164</ele>
        <time>2021-09-12T08:03:43.000Z</time>
      </trkpt>
      <trkpt lat="46.34229" lon="4.71918">
        <ele>235.126396</ele>
        <time>2021-09-12T08:03:45.000Z</time>
      </trkpt>
      <trkpt lat="46.34221" lon="4.71928">
        <ele>234.751145</ele>
        <time>2021-09-12T08:03:47.000Z</time>
      </trkpt>
      <trkpt lat="46.34213" lon="4.7194">
        <ele>234.329138</ele>
        <time>2021-09-12T08:03:49.000Z</time>
      </trkpt>
      <trkpt lat="46.34203" lon="4.71955">
        <ele>233.783461</ele>
        <time>2021-09-12T08:03:52.000Z</time>
      </trkpt>
      <trkpt lat="46.34201" lon="4.71971">
        <ele>233.379503</ele>
        <time>2021-09-12T08:03:55.000Z</time>
      </trkpt>
      <trkpt lat="46.34198" lon="4.71976">
        <ele>233.223509</ele>
        <time>2021-09-12T08:03:59.000Z</time>
      </trkpt>
      <trkpt lat="46.34194" lon="4.71982">
        <ele>233.113666</ele>
        <time>2021-09-12T08:04:00.000Z</time>
      </trkpt>
      <trkpt lat="46.34198" lon="4.71989">
        <ele>232.987748</ele>
        <time>2021-09-12T08:04:04.000Z</time>
      </trkpt>
      <trkpt lat="46.34208" lon="4.71985">
        <ele>232.776034</ele>
        <time>2021-09-12T08:04:05.000Z</time>
      </trkpt>
      <trkpt lat="46.34215" lon="4.72002">
        <ele>232.502936</ele>
        <time>2021-09-12T08:04:07.000Z</time>
      </trkpt>
      <trkpt lat="46.34215" lon="4.72002">
        <ele>232.502936</ele>
        <time>2021-09-12T08:04:08.000Z</time>
      </trkpt>
      <trkpt lat="46.3422" lon="4.72015">
        <ele>232.297556</ele>
        <time>2021-09-12T08:04:09.000Z</time>
      </trkpt>
      <trkpt lat="46.34231" lon="4.72043">
        <ele>231.836178</ele>
        <time>2021-09-12T08:04:13.000Z</time>
      </trkpt>
      <trkpt lat="46.34244" lon="4.72084">
        <ele>231.219158</ele>
        <time>2021-09-12T08:04:18.000Z</time>
      </trkpt>
      <trkpt lat="46.34246" lon="4.72092">
        <ele>231.098089</ele>
        <time>2021-09-12T08:04:19.000Z</time>
      </trkpt>
      <trkpt lat="46.34253" lon="4.72126">
        <ele>230.608964</ele>
        <time>2021-09-12T08:04:23.000Z</time>
      </trkpt>
      <trkpt lat="46.34251" lon="4.72133">
        <ele>230.498403</ele>
        <time>2021-09-12T08:04:24.000Z</time>
      </trkpt>
      <trkpt lat="46.34248" lon="4.72139">
        <ele>230.393082</ele>
        <time>2021-09-12T08:04:26.000Z</time>
      </trkpt>
      <trkpt lat="46.34252" lon="4.72161">
        <ele>230.069929</ele>
        <time>2021-09-12T08:04:28.000Z</time>
      </trkpt>
      <trkpt lat="46.34255" lon="4.72176">
        <ele>229.857825</ele>
        <time>2021-09-12T08:04:30.000Z</time>
      </trkpt>
      <trkpt lat="46.34258" lon="4.7219">
        <ele>229.649741</ele>
        <time>2021-09-12T08:04:32.000Z</time>
      </trkpt>
      <trkpt lat="46.3426" lon="4.72205">
        <ele>229.591799</ele>
        <time>2021-09-12T08:04:34.000Z</time>
      </trkpt>
      <trkpt lat="46.34264" lon="4.72225">
        <ele>229.523701</ele>
        <time>2021-09-12T08:04:37.000Z</time>
      </trkpt>
      <trkpt lat="46.3427" lon="4.72254">
        <ele>229.420916</ele>
        <time>2021-09-12T08:04:42.000Z</time>
      </trkpt>
      <trkpt lat="46.34274" lon="4.72273">
        <ele>229.356456</ele>
        <time>2021-09-12T08:04:45.000Z</time>
      </trkpt>
      <trkpt lat="46.34275" lon="4.72278">
        <ele>229.339525</ele>
        <time>2021-09-12T08:04:47.000Z</time>
      </trkpt>
      <trkpt lat="46.34276" lon="4.72301">
        <ele>229.262876</ele>
        <time>2021-09-12T08:04:49.000Z</time>
      </trkpt>
      <trkpt lat="46.34269" lon="4.72308">
        <ele>229.220925</ele>
        <time>2021-09-12T08:04:50.000Z</time>
      </trkpt>
      <trkpt lat="46.3426" lon="4.72315">
        <ele>229.17308</ele>
        <time>2021-09-12T08:04:52.000Z</time>
      </trkpt>
      <trkpt lat="46.34238" lon="4.72334">
        <ele>229.046815</ele>
        <time>2021-09-12T08:04:57.000Z</time>
      </trkpt>
      <trkpt lat="46.34208" lon="4.7236">
        <ele>228.880682</ele>
        <time>2021-09-12T08:05:03.000Z</time>
      </trkpt>
      <trkpt lat="46.34176" lon="4.72388">
        <ele>228.890497</ele>
        <time>2021-09-12T08:05:09.000Z</time>
      </trkpt>
      <trkpt lat="46.34132" lon="4.72424">
        <ele>229.265047</ele>
        <time>2021-09-12T08:05:17.000Z</time>
      </trkpt>
      <trkpt lat="46.34108" lon="4.72443">
        <ele>229.464817</ele>
        <time>2021-09-12T08:05:23.000Z</time>
      </trkpt>
      <trkpt lat="46.34084" lon="4.72462">
        <ele>229.668815</ele>
        <time>2021-09-12T08:05:29.000Z</time>
      </trkpt>
      <trkpt lat="46.34045" lon="4.72492">
        <ele>229.993391</ele>
        <time>2021-09-12T08:05:39.000Z</time>
      </trkpt>
      <trkpt lat="46.34016" lon="4.72516">
        <ele>230.367448</ele>
        <time>2021-09-12T08:05:48.000Z</time>
      </trkpt>
      <trkpt lat="46.33996" lon="4.72531">
        <ele>230.677803</ele>
        <time>2021-09-12T08:05:54.000Z</time>
      </trkpt>
      <trkpt lat="46.33966" lon="4.72557">
        <ele>231.16821</ele>
        <time>2021-09-12T08:06:03.000Z</time>
      </trkpt>
      <trkpt lat="46.33939" lon="4.72579">
        <ele>231.598647</ele>
        <time>2021-09-12T08:06:10.000Z</time>
      </trkpt>
      <trkpt lat="46.33911" lon="4.72603">
        <ele>232.057134</ele>
        <time>2021-09-12T08:06:16.000Z</time>
      </trkpt>
      <trkpt lat="46.33869" lon="4.72638">
        <ele>232.578634</ele>
        <time>2021-09-12T08:06:24.000Z</time>
      </trkpt>
      <trkpt lat="46.33822" lon="4.72678">
        <ele>232.30177</ele>
        <time>2021-09-12T08:06:32.000Z</time>
      </trkpt>
      <trkpt lat="46.3378" lon="4.72716">
        <ele>232.051045</ele>
        <time>2021-09-12T08:06:39.000Z</time>
      </trkpt>
      <trkpt lat="46.33744" lon="4.72755">
        <ele>231.819575</ele>
        <time>2021-09-12T08:06:45.000Z</time>
      </trkpt>
      <trkpt lat="46.33719" lon="4.72787">
        <ele>231.542447</ele>
        <time>2021-09-12T08:06:50.000Z</time>
      </trkpt>
      <trkpt lat="46.33712" lon="4.72795">
        <ele>231.405632</ele>
        <time>2021-09-12T08:06:52.000Z</time>
      </trkpt>
      <trkpt lat="46.33693" lon="4.7282">
        <ele>231.0032</ele>
        <time>2021-09-12T08:06:53.000Z</time>
      </trkpt>
      <trkpt lat="46.33641" lon="4.7289">
        <ele>229.880673</ele>
        <time>2021-09-12T08:07:01.000Z</time>
      </trkpt>
      <trkpt lat="46.33635" lon="4.72899">
        <ele>229.742819</ele>
        <time>2021-09-12T08:07:02.000Z</time>
      </trkpt>
      <trkpt lat="46.3359" lon="4.72959">
        <ele>228.783456</ele>
        <time>2021-09-12T08:07:09.000Z</time>
      </trkpt>
      <trkpt lat="46.33563" lon="4.72996">
        <ele>228.161255</ele>
        <time>2021-09-12T08:07:15.000Z</time>
      </trkpt>
      <trkpt lat="46.33532" lon="4.73039">
        <ele>227.45379</ele>
        <time>2021-09-12T08:07:20.000Z</time>
      </trkpt>
      <trkpt lat="46.33507" lon="4.73076">
        <ele>226.870248</ele>
        <time>2021-09-12T08:07:26.000Z</time>
      </trkpt>
      <trkpt lat="46.33471" lon="4.73136">
        <ele>225.955528</ele>
        <time>2021-09-12T08:07:33.000Z</time>
      </trkpt>
      <trkpt lat="46.33446" lon="4.73202">
        <ele>225.214763</ele>
        <time>2021-09-12T08:07:40.000Z</time>
      </trkpt>
      <trkpt lat="46.33425" lon="4.73261">
        <ele>224.555983</ele>
        <time>2021-09-12T08:07:47.000Z</time>
      </trkpt>
      <trkpt lat="46.33403" lon="4.73333">
        <ele>223.784185</ele>
        <time>2021-09-12T08:07:53.000Z</time>
      </trkpt>
      <trkpt lat="46.33397" lon="4.73354">
        <ele>223.567764</ele>
        <time>2021-09-12T08:07:56.000Z</time>
      </trkpt>
      <trkpt lat="46.33377" lon="4.73424">
        <ele>222.909352</ele>
        <time>2021-09-12T08:08:02.000Z</time>
      </trkpt>
      <trkpt lat="46.33355" lon="4.73501">
        <ele>222.226832</ele>
        <time>2021-09-12T08:08:10.000Z</time>
      </trkpt>
      <trkpt lat="46.33337" lon="4.73564">
        <ele>221.670625</ele>
        <time>2021-09-12T08:08:18.000Z</time>
      </trkpt>
      <trkpt lat="46.33316" lon="4.73616">
        <ele>221.187756</ele>
        <time>2021-09-12T08:08:24.000Z</time>
      </trkpt>
      <trkpt lat="46.33312" lon="4.73622">
        <ele>221.129578</ele>
        <time>2021-09-12T08:08:27.000Z</time>
      </trkpt>
      <trkpt lat="46.333" lon="4.73631">
        <ele>221.002708</ele>
        <time>2021-09-12T08:08:31.000Z</time>
      </trkpt>
      <trkpt lat="46.3329" lon="4.73646">
        <ele>220.864447</ele>
        <time>2021-09-12T08:08:33.000Z</time>
      </trkpt>
      <trkpt lat="46.33291" lon="4.73655">
        <ele>220.808208</ele>
        <time>2021-09-12T08:08:34.000Z</time>
      </trkpt>
      <trkpt lat="46.33291" lon="4.73655">
        <ele>220.808208</ele>
        <time>2021-09-12T08:08:35.000Z</time>
      </trkpt>
      <trkpt lat="46.333" lon="4.7368">
        <ele>220.620501</ele>
        <time>2021-09-12T08:08:37.000Z</time>
      </trkpt>
      <trkpt lat="46.33299" lon="4.73688">
        <ele>220.567383</ele>
        <time>2021-09-12T08:08:38.000Z</time>
      </trkpt>
      <trkpt lat="46.3329" lon="4.7374">
        <ele>220.208469</ele>
        <time>2021-09-12T08:08:44.000Z</time>
      </trkpt>
      <trkpt lat="46.33273" lon="4.73816">
        <ele>219.679941</ele>
        <time>2021-09-12T08:08:52.000Z</time>
      </trkpt>
      <trkpt lat="46.33254" lon="4.73895">
        <ele>219.135009</ele>
        <time>2021-09-12T08:09:00.000Z</time>
      </trkpt>
      <trkpt lat="46.33234" lon="4.73974">
        <ele>218.590834</ele>
        <time>2021-09-12T08:09:08.000Z</time>
      </trkpt>
      <trkpt lat="46.33226" lon="4.74005">
        <ele>218.381981</ele>
        <time>2021-09-12T08:09:11.000Z</time>
      </trkpt>
      <trkpt lat="46.33208" lon="4.74079">
        <ele>217.87398</ele>
        <time>2021-09-12T08:09:18.000Z</time>
      </trkpt>
      <trkpt lat="46.33203" lon="4.74101">
        <ele>217.724954</ele>
        <time>2021-09-12T08:09:20.000Z</time>
      </trkpt>
      <trkpt lat="46.33185" lon="4.74177">
        <ele>217.197953</ele>
        <time>2021-09-12T08:09:27.000Z</time>
      </trkpt>
      <trkpt lat="46.3318" lon="4.74198">
        <ele>217.050257</ele>
        <time>2021-09-12T08:09:29.000Z</time>
      </trkpt>
      <trkpt lat="46.33166" lon="4.74256">
        <ele>216.649583</ele>
        <time>2021-09-12T08:09:35.000Z</time>
      </trkpt>
      <trkpt lat="46.3316" lon="4.74273">
        <ele>216.522749</ele>
        <time>2021-09-12T08:09:38.000Z</time>
      </trkpt>
      <trkpt lat="46.33149" lon="4.74297">
        <ele>216.335673</ele>
        <time>2021-09-12T08:09:40.000Z</time>
      </trkpt>
      <trkpt lat="46.33142" lon="4.74313">
        <ele>216.21162</ele>
        <time>2021-09-12T08:09:42.000Z</time>
      </trkpt>
      <trkpt lat="46.33136" lon="4.74328">
        <ele>216.101875</ele>
        <time>2021-09-12T08:09:44.000Z</time>
      </trkpt>
      <trkpt lat="46.33124" lon="4.74327">
        <ele>216.049548</ele>
        <time>2021-09-12T08:09:46.000Z</time>
      </trkpt>
      <trkpt lat="46.33113" lon="4.74342">
        <ele>215.985083</ele>
        <time>2021-09-12T08:09:48.000Z</time>
      </trkpt>
      <trkpt lat="46.33115" lon="4.74363">
        <ele>215.925726</ele>
        <time>2021-09-12T08:09:50.000Z</time>
      </trkpt>
      <trkpt lat="46.33119" lon="4.74369">
        <ele>215.900028</ele>
        <time>2021-09-12T08:09:52.000Z</time>
      </trkpt>
      <trkpt lat="46.3313" lon="4.74406">
        <ele>215.78384</ele>
        <time>2021-09-12T08:09:54.000Z</time>
      </trkpt>
      <trkpt lat="46.33127" lon="4.74425">
        <ele>215.729894</ele>
        <time>2021-09-12T08:09:56.000Z</time>
      </trkpt>
      <trkpt lat="46.33116" lon="4.74468">
        <ele>215.598369</ele>
        <time>2021-09-12T08:10:01.000Z</time>
      </trkpt>
      <trkpt lat="46.33098" lon="4.74544">
        <ele>215.367145</ele>
        <time>2021-09-12T08:10:10.000Z</time>
      </trkpt>
      <trkpt lat="46.33094" lon="4.7456">
        <ele>215.429802</ele>
        <time>2021-09-12T08:10:12.000Z</time>
      </trkpt>
      <trkpt lat="46.33078" lon="4.74627">
        <ele>215.842445</ele>
        <time>2021-09-12T08:10:21.000Z</time>
      </trkpt>
      <trkpt lat="46.33062" lon="4.74693">
        <ele>216.247696</ele>
        <time>2021-09-12T08:10:31.000Z</time>
      </trkpt>
      <trkpt lat="46.33051" lon="4.74742">
        <ele>216.545886</ele>
        <time>2021-09-12T08:10:40.000Z</time>
      </trkpt>
      <trkpt lat="46.33043" lon="4.74773">
        <ele>216.739204</ele>
        <time>2021-09-12T08:10:47.000Z</time>
      </trkpt>
      <trkpt lat="46.33035" lon="4.74802">
        <ele>216.961388</ele>
        <time>2021-09-12T08:10:54.000Z</time>
      </trkpt>
      <trkpt lat="46.33024" lon="4.74847">
        <ele>217.441067</ele>
        <time>2021-09-12T08:11:04.000Z</time>
      </trkpt>
      <trkpt lat="46.33014" lon="4.74886">
        <ele>217.856209</ele>
        <time>2021-09-12T08:11:12.000Z</time>
      </trkpt>
      <trkpt lat="46.33001" lon="4.74931">
        <ele>218.342248</ele>
        <time>2021-09-12T08:11:21.000Z</time>
      </trkpt>
      <trkpt lat="46.32989" lon="4.74966">
        <ele>218.738582</ele>
        <time>2021-09-12T08:11:27.000Z</time>
      </trkpt>
      <trkpt lat="46.32972" lon="4.7501">
        <ele>219.243653</ele>
        <time>2021-09-12T08:11:33.000Z</time>
      </trkpt>
      <trkpt lat="46.32953" lon="4.7506">
        <ele>219.517814</ele>
        <time>2021-09-12T08:11:39.000Z</time>
      </trkpt>
      <trkpt lat="46.32929" lon="4.75121">
        <ele>219.599735</ele>
        <time>2021-09-12T08:11:46.000Z</time>
      </trkpt>
      <trkpt lat="46.32902" lon="4.7519">
        <ele>219.693835</ele>
        <time>2021-09-12T08:11:54.000Z</time>
      </trkpt>
      <trkpt lat="46.32891" lon="4.75217">
        <ele>219.729916</ele>
        <time>2021-09-12T08:11:57.000Z</time>
      </trkpt>
      <trkpt lat="46.32864" lon="4.75286">
        <ele>220.116466</ele>
        <time>2021-09-12T08:12:05.000Z</time>
      </trkpt>
      <trkpt lat="46.32861" lon="4.75294">
        <ele>220.20808</ele>
        <time>2021-09-12T08:12:06.000Z</time>
      </trkpt>
      <trkpt lat="46.32844" lon="4.75338">
        <ele>220.705812</ele>
        <time>2021-09-12T08:12:12.000Z</time>
      </trkpt>
      <trkpt lat="46.3283" lon="4.75373">
        <ele>221.109349</ele>
        <time>2021-09-12T08:12:18.000Z</time>
      </trkpt>
      <trkpt lat="46.32815" lon="4.7541">
        <ele>221.525049</ele>
        <time>2021-09-12T08:12:26.000Z</time>
      </trkpt>
      <trkpt lat="46.32803" lon="4.75441">
        <ele>221.884352</ele>
        <time>2021-09-12T08:12:34.000Z</time>
      </trkpt>
      <trkpt lat="46.32789" lon="4.75476">
        <ele>222.284597</ele>
        <time>2021-09-12T08:12:43.000Z</time>
      </trkpt>
      <trkpt lat="46.32774" lon="4.75515">
        <ele>223.196343</ele>
        <time>2021-09-12T08:12:53.000Z</time>
      </trkpt>
      <trkpt lat="46.32762" lon="4.75546">
        <ele>224.007016</ele>
        <time>2021-09-12T08:13:01.000Z</time>
      </trkpt>
      <trkpt lat="46.3275" lon="4.75576">
        <ele>224.808122</ele>
        <time>2021-09-12T08:13:09.000Z</time>
      </trkpt>
      <trkpt lat="46.32733" lon="4.75618">
        <ele>225.910884</ele>
        <time>2021-09-12T08:13:19.000Z</time>
      </trkpt>
      <trkpt lat="46.32719" lon="4.75655">
        <ele>226.872215</ele>
        <time>2021-09-12T08:13:28.000Z</time>
      </trkpt>
      <trkpt lat="46.32701" lon="4.757">
        <ele>228.064646</ele>
        <time>2021-09-12T08:13:39.000Z</time>
      </trkpt>
      <trkpt lat="46.32684" lon="4.75742">
        <ele>228.946489</ele>
        <time>2021-09-12T08:13:49.000Z</time>
      </trkpt>
      <trkpt lat="46.32666" lon="4.75786">
        <ele>229.823544</ele>
        <time>2021-09-12T08:13:59.000Z</time>
      </trkpt>
      <trkpt lat="46.32647" lon="4.75832">
        <ele>230.726323</ele>
        <time>2021-09-12T08:14:08.000Z</time>
      </trkpt>
      <trkpt lat="46.32625" lon="4.75885">
        <ele>231.78248</ele>
        <time>2021-09-12T08:14:17.000Z</time>
      </trkpt>
      <trkpt lat="46.32602" lon="4.75942">
        <ele>232.743938</ele>
        <time>2021-09-12T08:14:26.000Z</time>
      </trkpt>
      <trkpt lat="46.32581" lon="4.75996">
        <ele>232.758877</ele>
        <time>2021-09-12T08:14:34.000Z</time>
      </trkpt>
      <trkpt lat="46.32561" lon="4.76044">
        <ele>232.772293</ele>
        <time>2021-09-12T08:14:40.000Z</time>
      </trkpt>
      <trkpt lat="46.32536" lon="4.76103">
        <ele>232.78857</ele>
        <time>2021-09-12T08:14:46.000Z</time>
      </trkpt>
      <trkpt lat="46.32504" lon="4.76179">
        <ele>232.517977</ele>
        <time>2021-09-12T08:14:53.000Z</time>
      </trkpt>
      <trkpt lat="46.32499" lon="4.7619">
        <ele>232.370334</ele>
        <time>2021-09-12T08:14:54.000Z</time>
      </trkpt>
      <trkpt lat="46.32466" lon="4.76254">
        <ele>231.467562</ele>
        <time>2021-09-12T08:15:00.000Z</time>
      </trkpt>
      <trkpt lat="46.32449" lon="4.76286">
        <ele>231.012369</ele>
        <time>2021-09-12T08:15:03.000Z</time>
      </trkpt>
      <trkpt lat="46.32414" lon="4.76354">
        <ele>230.049075</ele>
        <time>2021-09-12T08:15:09.000Z</time>
      </trkpt>
      <trkpt lat="46.32395" lon="4.7639">
        <ele>229.471937</ele>
        <time>2021-09-12T08:15:12.000Z</time>
      </trkpt>
      <trkpt lat="46.32357" lon="4.76465">
        <ele>228.195374</ele>
        <time>2021-09-12T08:15:18.000Z</time>
      </trkpt>
      <trkpt lat="46.32344" lon="4.76488">
        <ele>227.785002</ele>
        <time>2021-09-12T08:15:20.000Z</time>
      </trkpt>
      <trkpt lat="46.32308" lon="4.76555">
        <ele>226.62332</ele>
        <time>2021-09-12T08:15:26.000Z</time>
      </trkpt>
      <trkpt lat="46.32275" lon="4.76618">
        <ele>225.762528</ele>
        <time>2021-09-12T08:15:32.000Z</time>
      </trkpt>
      <trkpt lat="46.32259" lon="4.76648">
        <ele>225.396251</ele>
        <time>2021-09-12T08:15:35.000Z</time>
      </trkpt>
      <trkpt lat="46.32225" lon="4.76712">
        <ele>224.601046</ele>
        <time>2021-09-12T08:15:42.000Z</time>
      </trkpt>
      <trkpt lat="46.32201" lon="4.76758">
        <ele>224.035557</ele>
        <time>2021-09-12T08:15:48.000Z</time>
      </trkpt>
      <trkpt lat="46.3219" lon="4.76778">
        <ele>223.784646</ele>
        <time>2021-09-12T08:15:51.000Z</time>
      </trkpt>
      <trkpt lat="46.32183" lon="4.7679">
        <ele>223.843569</ele>
        <time>2021-09-12T08:15:53.000Z</time>
      </trkpt>
      <trkpt lat="46.32162" lon="4.76828">
        <ele>224.190165</ele>
        <time>2021-09-12T08:16:00.000Z</time>
      </trkpt>
      <trkpt lat="46.32141" lon="4.76867">
        <ele>224.550444</ele>
        <time>2021-09-12T08:16:09.000Z</time>
      </trkpt>
      <trkpt lat="46.32129" lon="4.76889">
        <ele>224.756491</ele>
        <time>2021-09-12T08:16:16.000Z</time>
      </trkpt>
      <trkpt lat="46.32118" lon="4.76909">
        <ele>224.935177</ele>
        <time>2021-09-12T08:16:22.000Z</time>
      </trkpt>
      <trkpt lat="46.32101" lon="4.76939">
        <ele>225.215062</ele>
        <time>2021-09-12T08:16:31.000Z</time>
      </trkpt>
      <trkpt lat="46.32079" lon="4.76978">
        <ele>225.57834</ele>
        <time>2021-09-12T08:16:42.000Z</time>
      </trkpt>
      <trkpt lat="46.32058" lon="4.77017">
        <ele>226.096312</ele>
        <time>2021-09-12T08:16:52.000Z</time>
      </trkpt>
      <trkpt lat="46.32038" lon="4.77054">
        <ele>226.605672</ele>
        <time>2021-09-12T08:17:01.000Z</time>
      </trkpt>
      <trkpt lat="46.3201" lon="4.77104">
        <ele>227.309399</ele>
        <time>2021-09-12T08:17:12.000Z</time>
      </trkpt>
      <trkpt lat="46.31986" lon="4.77148">
        <ele>227.930115</ele>
        <time>2021-09-12T08:17:21.000Z</time>
      </trkpt>
      <trkpt lat="46.31971" lon="4.77177">
        <ele>228.323467</ele>
        <time>2021-09-12T08:17:27.000Z</time>
      </trkpt>
      <trkpt lat="46.31953" lon="4.7721">
        <ele>228.685385</ele>
        <time>2021-09-12T08:17:34.000Z</time>
      </trkpt>
      <trkpt lat="46.31922" lon="4.77267">
        <ele>229.199196</ele>
        <time>2021-09-12T08:17:45.000Z</time>
      </trkpt>
      <trkpt lat="46.31898" lon="4.77312">
        <ele>229.609497</ele>
        <time>2021-09-12T08:17:53.000Z</time>
      </trkpt>
      <trkpt lat="46.3187" lon="4.77365">
        <ele>230.092047</ele>
        <time>2021-09-12T08:18:02.000Z</time>
      </trkpt>
      <trkpt lat="46.31841" lon="4.77418">
        <ele>230.471459</ele>
        <time>2021-09-12T08:18:11.000Z</time>
      </trkpt>
      <trkpt lat="46.31814" lon="4.77468">
        <ele>230.713627</ele>
        <time>2021-09-12T08:18:19.000Z</time>
      </trkpt>
      <trkpt lat="46.31782" lon="4.77528">
        <ele>231.006414</ele>
        <time>2021-09-12T08:18:27.000Z</time>
      </trkpt>
      <trkpt lat="46.31749" lon="4.77588">
        <ele>231.297018</ele>
        <time>2021-09-12T08:18:35.000Z</time>
      </trkpt>
      <trkpt lat="46.31718" lon="4.77645">
        <ele>232.034492</ele>
        <time>2021-09-12T08:18:44.000Z</time>
      </trkpt>
      <trkpt lat="46.31694" lon="4.77691">
        <ele>232.713456</ele>
        <time>2021-09-12T08:18:52.000Z</time>
      </trkpt>
      <trkpt lat="46.31674" lon="4.77728">
        <ele>233.265034</ele>
        <time>2021-09-12T08:19:00.000Z</time>
      </trkpt>
      <trkpt lat="46.31652" lon="4.77767">
        <ele>233.849533</ele>
        <time>2021-09-12T08:19:09.000Z</time>
      </trkpt>
      <trkpt lat="46.31624" lon="4.77821">
        <ele>234.742422</ele>
        <time>2021-09-12T08:19:21.000Z</time>
      </trkpt>
      <trkpt lat="46.31599" lon="4.77866">
        <ele>235.7073</ele>
        <time>2021-09-12T08:19:31.000Z</time>
      </trkpt>
      <trkpt lat="46.31578" lon="4.77906">
        <ele>236.566757</ele>
        <time>2021-09-12T08:19:40.000Z</time>
      </trkpt>
      <trkpt lat="46.3155" lon="4.77958">
        <ele>237.678563</ele>
        <time>2021-09-12T08:19:52.000Z</time>
      </trkpt>
      <trkpt lat="46.31535" lon="4.77986">
        <ele>238.271903</ele>
        <time>2021-09-12T08:19:59.000Z</time>
      </trkpt>
      <trkpt lat="46.31516" lon="4.7802">
        <ele>239.203678</ele>
        <time>2021-09-12T08:20:08.000Z</time>
      </trkpt>
      <trkpt lat="46.31504" lon="4.78042">
        <ele>240.124448</ele>
        <time>2021-09-12T08:20:15.000Z</time>
      </trkpt>
      <trkpt lat="46.3149" lon="4.78069">
        <ele>241.237548</ele>
        <time>2021-09-12T08:20:24.000Z</time>
      </trkpt>
      <trkpt lat="46.3148" lon="4.78087">
        <ele>242.00394</ele>
        <time>2021-09-12T08:20:30.000Z</time>
      </trkpt>
      <trkpt lat="46.31466" lon="4.78112">
        <ele>243.06288</ele>
        <time>2021-09-12T08:20:39.000Z</time>
      </trkpt>
      <trkpt lat="46.31452" lon="4.7814">
        <ele>244.19709</ele>
        <time>2021-09-12T08:20:49.000Z</time>
      </trkpt>
      <trkpt lat="46.31438" lon="4.78167">
        <ele>245.314567</ele>
        <time>2021-09-12T08:20:57.000Z</time>
      </trkpt>
      <trkpt lat="46.31426" lon="4.78191">
        <ele>246.283179</ele>
        <time>2021-09-12T08:21:05.000Z</time>
      </trkpt>
      <trkpt lat="46.31412" lon="4.78218">
        <ele>247.386055</ele>
        <time>2021-09-12T08:21:14.000Z</time>
      </trkpt>
      <trkpt lat="46.31399" lon="4.78246">
        <ele>248.430326</ele>
        <time>2021-09-12T08:21:24.000Z</time>
      </trkpt>
      <trkpt lat="46.31382" lon="4.78286">
        <ele>249.865588</ele>
        <time>2021-09-12T08:21:35.000Z</time>
      </trkpt>
      <trkpt lat="46.31372" lon="4.78317">
        <ele>250.911311</ele>
        <time>2021-09-12T08:21:43.000Z</time>
      </trkpt>
      <trkpt lat="46.31365" lon="4.78336">
        <ele>251.574617</ele>
        <time>2021-09-12T08:21:49.000Z</time>
      </trkpt>
      <trkpt lat="46.3135" lon="4.78379">
        <ele>253.056643</ele>
        <time>2021-09-12T08:21:59.000Z</time>
      </trkpt>
      <trkpt lat="46.3134" lon="4.78408">
        <ele>254.036263</ele>
        <time>2021-09-12T08:22:07.000Z</time>
      </trkpt>
      <trkpt lat="46.31329" lon="4.7844">
        <ele>255.151593</ele>
        <time>2021-09-12T08:22:17.000Z</time>
      </trkpt>
      <trkpt lat="46.31319" lon="4.78469">
        <ele>255.658442</ele>
        <time>2021-09-12T08:22:23.000Z</time>
      </trkpt>
      <trkpt lat="46.31309" lon="4.78498">
        <ele>256.078294</ele>
        <time>2021-09-12T08:22:29.000Z</time>
      </trkpt>
      <trkpt lat="46.313" lon="4.78525">
        <ele>256.45054</ele>
        <time>2021-09-12T08:22:34.000Z</time>
      </trkpt>
      <trkpt lat="46.31296" lon="4.78536">
        <ele>256.607661</ele>
        <time>2021-09-12T08:22:36.000Z</time>
      </trkpt>
      <trkpt lat="46.31292" lon="4.78547">
        <ele>256.772094</ele>
        <time>2021-09-12T08:22:39.000Z</time>
      </trkpt>
      <trkpt lat="46.31288" lon="4.78561">
        <ele>256.964149</ele>
        <time>2021-09-12T08:22:41.000Z</time>
      </trkpt>
      <trkpt lat="46.31276" lon="4.78559">
        <ele>257.176405</ele>
        <time>2021-09-12T08:22:43.000Z</time>
      </trkpt>
      <trkpt lat="46.31266" lon="4.78576">
        <ele>257.456717</ele>
        <time>2021-09-12T08:22:45.000Z</time>
      </trkpt>
      <trkpt lat="46.31268" lon="4.78588">
        <ele>257.611729</ele>
        <time>2021-09-12T08:22:47.000Z</time>
      </trkpt>
      <trkpt lat="46.3127" lon="4.78609">
        <ele>257.882626</ele>
        <time>2021-09-12T08:22:49.000Z</time>
      </trkpt>
      <trkpt lat="46.3126" lon="4.78634">
        <ele>258.252516</ele>
        <time>2021-09-12T08:22:53.000Z</time>
      </trkpt>
      <trkpt lat="46.31257" lon="4.78641">
        <ele>258.356207</ele>
        <time>2021-09-12T08:22:55.000Z</time>
      </trkpt>
      <trkpt lat="46.31246" lon="4.78669">
        <ele>258.635132</ele>
        <time>2021-09-12T08:22:58.000Z</time>
      </trkpt>
      <trkpt lat="46.31229" lon="4.78712">
        <ele>258.645567</ele>
        <time>2021-09-12T08:23:05.000Z</time>
      </trkpt>
      <trkpt lat="46.31216" lon="4.78751">
        <ele>258.654646</ele>
        <time>2021-09-12T08:23:12.000Z</time>
      </trkpt>
      <trkpt lat="46.31196" lon="4.78817">
        <ele>258.670026</ele>
        <time>2021-09-12T08:23:19.000Z</time>
      </trkpt>
      <trkpt lat="46.31184" lon="4.78853">
        <ele>258.678403</ele>
        <time>2021-09-12T08:23:23.000Z</time>
      </trkpt>
      <trkpt lat="46.31168" lon="4.78904">
        <ele>258.557334</ele>
        <time>2021-09-12T08:23:29.000Z</time>
      </trkpt>
      <trkpt lat="46.31142" lon="4.78982">
        <ele>257.48964</ele>
        <time>2021-09-12T08:23:35.000Z</time>
      </trkpt>
      <trkpt lat="46.31119" lon="4.79055">
        <ele>256.498855</ele>
        <time>2021-09-12T08:23:41.000Z</time>
      </trkpt>
      <trkpt lat="46.31119" lon="4.79055">
        <ele>256.498855</ele>
        <time>2021-09-12T08:23:42.000Z</time>
      </trkpt>
      <trkpt lat="46.31091" lon="4.79139">
        <ele>255.340081</ele>
        <time>2021-09-12T08:23:48.000Z</time>
      </trkpt>
      <trkpt lat="46.31083" lon="4.79162">
        <ele>254.999724</ele>
        <time>2021-09-12T08:23:51.000Z</time>
      </trkpt>
      <trkpt lat="46.31058" lon="4.79238">
        <ele>253.871511</ele>
        <time>2021-09-12T08:23:57.000Z</time>
      </trkpt>
      <trkpt lat="46.31051" lon="4.79258">
        <ele>253.575831</ele>
        <time>2021-09-12T08:23:59.000Z</time>
      </trkpt>
      <trkpt lat="46.31031" lon="4.79322">
        <ele>252.636145</ele>
        <time>2021-09-12T08:24:06.000Z</time>
      </trkpt>
      <trkpt lat="46.31009" lon="4.79396">
        <ele>251.389269</ele>
        <time>2021-09-12T08:24:14.000Z</time>
      </trkpt>
      <trkpt lat="46.30993" lon="4.79463">
        <ele>250.090522</ele>
        <time>2021-09-12T08:24:20.000Z</time>
      </trkpt>
      <trkpt lat="46.30976" lon="4.79544">
        <ele>248.537151</ele>
        <time>2021-09-12T08:24:27.000Z</time>
      </trkpt>
      <trkpt lat="46.30971" lon="4.79567">
        <ele>248.094639</ele>
        <time>2021-09-12T08:24:29.000Z</time>
      </trkpt>
      <trkpt lat="46.30952" lon="4.79653">
        <ele>246.335206</ele>
        <time>2021-09-12T08:24:37.000Z</time>
      </trkpt>
      <trkpt lat="46.30938" lon="4.79729">
        <ele>244.674236</ele>
        <time>2021-09-12T08:24:42.000Z</time>
      </trkpt>
      <trkpt lat="46.30934" lon="4.79755">
        <ele>244.110113</ele>
        <time>2021-09-12T08:24:45.000Z</time>
      </trkpt>
      <trkpt lat="46.30922" lon="4.7985">
        <ele>242.091448</ele>
        <time>2021-09-12T08:24:51.000Z</time>
      </trkpt>
      <trkpt lat="46.30919" lon="4.79877">
        <ele>241.491608</ele>
        <time>2021-09-12T08:24:53.000Z</time>
      </trkpt>
      <trkpt lat="46.30915" lon="4.79955">
        <ele>239.632843</ele>
        <time>2021-09-12T08:24:59.000Z</time>
      </trkpt>
      <trkpt lat="46.30924" lon="4.80016">
        <ele>238.160051</ele>
        <time>2021-09-12T08:25:04.000Z</time>
      </trkpt>
      <trkpt lat="46.30934" lon="4.8008">
        <ele>236.611642</ele>
        <time>2021-09-12T08:25:10.000Z</time>
      </trkpt>
      <trkpt lat="46.30934" lon="4.8008">
        <ele>236.611642</ele>
        <time>2021-09-12T08:25:11.000Z</time>
      </trkpt>
      <trkpt lat="46.30931" lon="4.80106">
        <ele>235.989051</ele>
        <time>2021-09-12T08:25:13.000Z</time>
      </trkpt>
      <trkpt lat="46.30926" lon="4.80119">
        <ele>235.649886</ele>
        <time>2021-09-12T08:25:14.000Z</time>
      </trkpt>
      <trkpt lat="46.30927" lon="4.8013">
        <ele>235.400957</ele>
        <time>2021-09-12T08:25:15.000Z</time>
      </trkpt>
      <trkpt lat="46.30936" lon="4.80142">
        <ele>235.02422</ele>
        <time>2021-09-12T08:25:17.000Z</time>
      </trkpt>
      <trkpt lat="46.30948" lon="4.8016">
        <ele>234.460543</ele>
        <time>2021-09-12T08:25:19.000Z</time>
      </trkpt>
      <trkpt lat="46.30948" lon="4.8016">
        <ele>234.460543</ele>
        <time>2021-09-12T08:25:20.000Z</time>
      </trkpt>
      <trkpt lat="46.30949" lon="4.8018">
        <ele>234.033507</ele>
        <time>2021-09-12T08:25:21.000Z</time>
      </trkpt>
      <trkpt lat="46.30949" lon="4.80189">
        <ele>233.824474</ele>
        <time>2021-09-12T08:25:23.000Z</time>
      </trkpt>
      <trkpt lat="46.30942" lon="4.80247">
        <ele>232.529666</ele>
        <time>2021-09-12T08:25:29.000Z</time>
      </trkpt>
      <trkpt lat="46.30931" lon="4.80332">
        <ele>230.650565</ele>
        <time>2021-09-12T08:25:37.000Z</time>
      </trkpt>
      <trkpt lat="46.30931" lon="4.80332">
        <ele>230.650565</ele>
        <time>2021-09-12T08:25:38.000Z</time>
      </trkpt>
      <trkpt lat="46.30925" lon="4.80385">
        <ele>229.526134</ele>
        <time>2021-09-12T08:25:43.000Z</time>
      </trkpt>
      <trkpt lat="46.30918" lon="4.8044">
        <ele>228.521716</ele>
        <time>2021-09-12T08:25:49.000Z</time>
      </trkpt>
      <trkpt lat="46.3091" lon="4.8051">
        <ele>227.231278</ele>
        <time>2021-09-12T08:25:57.000Z</time>
      </trkpt>
      <trkpt lat="46.30906" lon="4.80541">
        <ele>226.639892</ele>
        <time>2021-09-12T08:26:01.000Z</time>
      </trkpt>
      <trkpt lat="46.30901" lon="4.80555">
        <ele>226.355468</ele>
        <time>2021-09-12T08:26:03.000Z</time>
      </trkpt>
      <trkpt lat="46.30899" lon="4.80562">
        <ele>226.214666</ele>
        <time>2021-09-12T08:26:05.000Z</time>
      </trkpt>
      <trkpt lat="46.30896" lon="4.80591">
        <ele>225.680203</ele>
        <time>2021-09-12T08:26:08.000Z</time>
      </trkpt>
      <trkpt lat="46.30896" lon="4.80631">
        <ele>225.010396</ele>
        <time>2021-09-12T08:26:15.000Z</time>
      </trkpt>
      <trkpt lat="46.30892" lon="4.80662">
        <ele>224.59009</ele>
        <time>2021-09-12T08:26:19.000Z</time>
      </trkpt>
      <trkpt lat="46.30891" lon="4.80669">
        <ele>224.499143</ele>
        <time>2021-09-12T08:26:21.000Z</time>
      </trkpt>
      <trkpt lat="46.30886" lon="4.8071">
        <ele>223.958332</ele>
        <time>2021-09-12T08:26:26.000Z</time>
      </trkpt>
      <trkpt lat="46.30885" lon="4.80723">
        <ele>223.784231</ele>
        <time>2021-09-12T08:26:28.000Z</time>
      </trkpt>
      <trkpt lat="46.30879" lon="4.8077">
        <ele>223.145649</ele>
        <time>2021-09-12T08:26:35.000Z</time>
      </trkpt>
      <trkpt lat="46.30873" lon="4.8082">
        <ele>222.476501</ele>
        <time>2021-09-12T08:26:43.000Z</time>
      </trkpt>
      <trkpt lat="46.30868" lon="4.80869">
        <ele>221.827785</ele>
        <time>2021-09-12T08:26:50.000Z</time>
      </trkpt>
      <trkpt lat="46.30863" lon="4.80909">
        <ele>221.713629</ele>
        <time>2021-09-12T08:26:57.000Z</time>
      </trkpt>
      <trkpt lat="46.30859" lon="4.80948">
        <ele>221.713629</ele>
        <time>2021-09-12T08:27:03.000Z</time>
      </trkpt>
      <trkpt lat="46.30853" lon="4.80997">
        <ele>221.713629</ele>
        <time>2021-09-12T08:27:10.000Z</time>
      </trkpt>
      <trkpt lat="46.30848" lon="4.81039">
        <ele>221.713629</ele>
        <time>2021-09-12T08:27:17.000Z</time>
      </trkpt>
      <trkpt lat="46.30848" lon="4.81044">
        <ele>221.713629</ele>
        <time>2021-09-12T08:27:21.000Z</time>
      </trkpt>
      <trkpt lat="46.30847" lon="4.8105">
        <ele>221.713629</ele>
        <time>2021-09-12T08:27:38.000Z</time>
      </trkpt>
      <trkpt lat="46.30846" lon="4.81057">
        <ele>221.713629</ele>
        <time>2021-09-12T08:27:40.000Z</time>
      </trkpt>
      <trkpt lat="46.30843" lon="4.81077">
        <ele>221.713629</ele>
        <time>2021-09-12T08:27:45.000Z</time>
      </trkpt>
      <trkpt lat="46.30838" lon="4.81114">
        <ele>221.713629</ele>
        <time>2021-09-12T08:27:50.000Z</time>
      </trkpt>
      <trkpt lat="46.30836" lon="4.81125">
        <ele>221.713629</ele>
        <time>2021-09-12T08:27:52.000Z</time>
      </trkpt>
      <trkpt lat="46.30836" lon="4.81128">
        <ele>221.713629</ele>
        <time>2021-09-12T08:27:53.000Z</time>
      </trkpt>
      <trkpt lat="46.30834" lon="4.81138">
        <ele>221.713629</ele>
        <time>2021-09-12T08:28:16.000Z</time>
      </trkpt>
      <trkpt lat="46.30834" lon="4.81141">
        <ele>221.713629</ele>
        <time>2021-09-12T08:28:18.000Z</time>
      </trkpt>
      <trkpt lat="46.30829" lon="4.81178">
        <ele>221.713629</ele>
        <time>2021-09-12T08:28:25.000Z</time>
      </trkpt>
      <trkpt lat="46.30829" lon="4.81191">
        <ele>221.713629</ele>
        <time>2021-09-12T08:28:30.000Z</time>
      </trkpt>
      <trkpt lat="46.30829" lon="4.81196">
        <ele>221.713629</ele>
        <time>2021-09-12T08:28:33.000Z</time>
      </trkpt>
    </trkseg>
  </trk>
</gpx>